[[{"header":{"parameterUnit":"m.s-1","parameterCategory":1,"la1":30.6,"la2":29.2853,"lo1":-89.7004,"lo2":-87.6739,"dy":0.0162,"dx":0.0183,"nx":112,"ny":82,"refTime":"2024-07-27T12:00:00:Z","depth":0,"parameterNumber":2,"parameterNumberName":"U-component_of_WINDS"},"data":[0.0,0.0,0.0,0.0,0.0,0.0,0.0,0.0,0.0,0.0,0.0,0.0,0.0,0.0,0.0,0.0,0.0,0.0,0.0,0.0,0.0,0.0,0.0,0.0,0.0,0.0,0.0,0.0,0.0,0.0,0.0,0.0,0.0,0.0,0.0,0.0,0.0,0.0,0.0,0.0,0.0,0.0,0.0,0.0,0.0,0.0,0.0,0.0,0.0,0.0,0.0,0.0,0.0,0.0,0.0,0.0,0.0,0.0,0.0,0.0,0.0,0.0,0.0,0.0,0.0,0.0,0.0,0.0,0.0,0.0,0.0,0.0,0.0,0.0,0.0,0.0,0.0,0.0,0.0,0.0,0.0,0.0,0.0,0.0,0.0,0.0,0.0,0.0,0.0,0.0,1.3065,1.3263,1.419,1.4808,1.4808,1.4808,1.4288,1.308,0.0,0.0,0.0,0.0,0.0,0.0,0.0,0.0,0.0,0.0,0.0,0.0,0.0,0.0,0.0,0.0,0.0,0.0,0.0,0.0,0.0,0.0,0.0,0.0,0.0,0.0,0.0,0.0,0.0,0.0,0.0,0.0,0.0,0.0,0.0,0.0,0.0,0.0,0.0,0.0,0.0,0.0,0.0,0.0,0.0,0.0,0.0,0.0,0.0,0.0,0.0,0.0,0.0,0.0,0.0,0.0,0.0,0.0,0.0,0.0,0.0,0.0,0.0,0.0,0.0,0.0,0.0,0.0,0.0,0.0,0.0,0.0,0.0,0.0,0.0,0.0,0.0,0.0,0.0,0.0,0.0,0.0,0.0,0.0,0.0,0.0,0.0,0.0,0.0,0.0,0.0,0.0,0.0,0.0,0.0,0.0,0.0,0.0,0.0,0.0,0.0,0.0,0.0,0.0,1.3403,1.4415,1.4696,1.4808,1.4808,1.4808,1.4288,1.308,0.0,0.0,0.0,0.0,0.0,0.0,0.0,0.0,0.0,0.0,0.0,0.0,0.0,0.0,0.0,0.0,0.0,0.0,0.0,0.0,0.0,0.0,0.0,0.0,0.0,0.0,0.0,0.0,0.0,0.0,0.0,0.0,0.0,0.0,0.0,0.0,0.0,0.0,0.0,0.0,0.0,0.0,0.0,0.0,0.0,0.0,0.0,0.0,0.0,0.0,0.0,0.0,0.0,0.0,0.0,0.0,0.0,0.0,0.0,0.0,0.0,0.0,0.0,0.0,0.0,0.0,0.0,0.0,0.0,0.0,0.0,0.0,0.0,0.0,0.0,0.0,0.0,0.0,0.0,0.0,0.0,0.0,0.0,0.0,0.0,0.0,0.0,0.0,0.0,0.0,0.0,0.0,0.0,0.0,0.0,0.0,0.0,0.0,0.0,0.0,0.0,0.0,0.0,1.2671,1.3474,1.4668,1.4808,1.4808,1.4808,1.4808,1.4288,1.308,1.1612,0.0,0.0,0.0,0.0,0.0,0.0,0.0,0.0,0.0,0.0,0.0,0.0,0.0,0.0,0.0,0.0,0.0,0.0,0.0,0.0,0.0,0.0,0.0,0.0,0.0,0.0,0.0,0.0,0.0,0.0,0.0,0.0,0.0,0.0,0.0,0.0,0.0,0.0,0.0,0.0,0.0,0.0,0.0,0.0,0.0,0.0,0.0,0.0,0.0,0.0,0.0,0.0,0.0,0.0,0.0,0.0,0.0,0.0,0.0,0.0,0.0,0.0,0.0,0.0,0.0,0.0,0.0,0.0,0.0,0.0,0.0,0.0,0.0,0.0,0.0,0.0,0.0,0.0,0.0,0.0,0.0,0.0,0.0,0.0,0.0,0.0,0.0,0.0,0.0,0.0,0.0,0.0,0.0,0.0,0.0,0.0,0.0,0.0,0.0,0.0,0.0,0.0,1.3417,1.3629,1.4696,1.4808,1.4808,1.4808,1.4668,1.412,1.3065,1.1524,0.0,0.0,0.0,0.0,0.0,0.0,0.0,0.0,0.0,0.0,0.0,0.0,0.0,0.0,0.0,0.0,0.0,0.0,0.0,0.0,0.0,0.0,0.0,0.0,0.0,0.0,0.0,0.0,0.0,0.0,0.0,0.0,0.0,0.0,0.0,0.0,0.0,0.0,0.0,0.0,0.0,0.0,0.0,0.0,0.0,0.0,0.0,0.0,0.0,0.0,0.0,0.0,0.0,0.0,0.0,0.0,0.0,0.0,0.0,0.0,0.0,0.0,0.0,0.0,0.0,0.0,0.0,0.0,0.0,0.0,0.0,0.0,0.0,0.0,0.0,0.0,0.0,0.0,0.0,0.0,0.0,0.0,0.0,0.0,0.0,0.0,0.0,0.0,0.0,0.0,0.0,0.0,0.0,0.0,0.0,0.0,0.0,0.0,0.0,0.0,0.0,0.0,1.353,1.4078,1.4738,1.4808,1.4808,1.4808,1.4288,1.3699,1.3037,1.1254,0.0,0.0,0.0,0.0,0.0,0.0,0.0,0.0,0.0,0.0,0.0,0.0,0.0,0.0,0.0,0.0,0.0,0.0,0.0,0.0,0.0,0.0,0.0,0.0,0.0,0.0,0.0,0.0,0.0,0.0,0.0,0.0,0.0,0.0,0.0,0.0,0.0,0.0,0.0,0.0,0.0,0.0,0.0,0.0,0.0,0.0,0.0,0.0,0.0,0.0,0.0,0.0,0.0,0.0,0.0,0.0,0.0,0.0,0.0,0.0,0.0,0.0,0.0,0.0,0.0,0.0,0.0,0.0,0.0,0.0,0.0,0.0,0.0,0.0,0.0,0.0,0.0,0.0,0.0,0.0,0.0,0.0,0.0,0.0,0.0,0.0,0.0,0.0,0.0,0.0,0.0,0.0,0.0,0.0,0.0,0.0,0.0,0.0,0.0,0.0,0.0,0.0,1.3206,1.3727,1.4696,1.4808,1.4808,1.4808,1.4246,1.3445,1.2434,0.0,0.0,0.0,0.0,0.0,0.0,0.0,0.0,0.0,0.0,0.0,0.0,0.0,0.0,0.0,0.0,0.0,0.0,0.0,0.0,0.0,0.0,0.0,0.0,0.0,0.0,0.0,0.0,0.0,0.0,0.0,0.0,0.0,0.0,0.0,0.0,0.0,0.0,0.0,0.0,0.0,0.0,0.0,0.0,0.0,0.0,0.0,0.0,0.0,0.0,0.0,0.0,0.0,0.0,0.0,0.0,0.0,0.0,0.0,0.0,0.0,0.0,0.0,0.0,0.0,0.0,0.0,0.0,0.0,0.0,0.0,0.0,0.0,0.0,0.0,0.0,0.0,0.0,0.0,0.0,0.0,0.0,0.0,0.0,0.0,0.0,0.0,0.0,0.0,0.0,0.0,0.0,0.0,0.0,0.0,0.0,0.0,0.0,0.0,0.0,0.0,0.0,1.2728,1.3333,1.3881,1.471,1.4808,1.4808,1.4808,1.4064,1.3123,1.202,0.0,0.0,0.0,0.0,0.0,0.0,0.0,0.0,0.0,0.0,0.0,0.0,0.0,0.0,0.0,0.0,0.0,0.0,0.0,0.0,0.0,0.0,0.0,0.0,0.0,0.0,0.0,0.0,0.0,0.0,0.0,0.0,0.0,0.0,0.0,0.0,0.0,0.0,0.0,0.0,0.0,0.0,0.0,0.0,0.0,0.0,0.0,0.0,0.0,0.0,0.0,0.0,0.0,0.0,0.0,0.0,0.0,0.0,0.0,0.0,0.0,0.0,0.0,0.0,0.0,0.0,0.0,0.0,0.0,0.0,0.0,0.0,0.0,0.0,0.0,0.0,0.0,0.0,0.0,0.0,0.0,0.0,0.0,0.0,0.0,0.0,0.0,0.0,0.0,0.0,0.0,0.0,0.0,0.0,0.0,0.0,0.0,0.0,0.0,0.0,0.0,0.0,1.284,1.4036,1.4794,1.4808,1.4808,1.4808,1.4808,1.3699,1.2647,0.0,0.0,0.0,0.0,0.0,0.0,0.0,0.0,0.0,0.0,0.0,0.0,0.0,0.0,0.0,0.0,0.0,0.0,0.0,0.0,0.0,0.0,0.0,0.0,0.0,0.0,0.0,0.0,0.0,0.0,0.0,0.0,0.0,0.0,0.0,0.0,0.0,0.0,0.0,0.0,0.0,0.0,0.0,0.0,0.0,0.0,0.0,0.0,0.0,0.0,0.0,0.0,0.0,0.0,0.0,0.0,0.0,0.0,0.0,0.0,0.0,0.0,0.0,0.0,0.0,0.0,0.0,0.0,0.0,0.0,0.0,0.0,0.0,0.0,0.0,0.0,0.0,0.0,0.0,0.0,0.0,0.0,0.0,0.0,0.0,0.0,0.0,0.0,0.0,0.0,0.0,0.0,0.0,0.0,0.0,0.0,0.0,0.0,0.0,0.0,0.0,0.0,0.0,1.2784,1.3699,1.4331,1.4752,1.4808,1.4808,1.4808,1.3699,1.2518,1.1378,0.0,0.0,0.0,0.0,0.0,0.0,0.0,0.0,0.0,0.0,0.0,0.0,0.0,0.0,0.0,0.0,0.0,0.0,0.0,0.0,0.0,0.0,0.0,0.0,0.0,0.0,0.0,0.0,0.0,0.0,0.0,0.0,0.0,0.0,0.0,0.0,0.0,0.0,0.0,0.0,0.0,0.0,0.0,0.0,0.0,0.0,0.0,0.0,0.0,0.0,0.0,0.0,0.0,0.0,0.0,0.0,0.0,0.0,0.0,0.0,0.0,0.0,0.0,0.0,0.0,0.0,0.0,0.0,0.0,0.0,0.0,0.0,0.0,0.0,0.0,0.0,0.0,0.0,0.0,0.0,0.0,0.0,0.0,0.0,0.0,0.0,0.0,0.0,0.0,0.0,0.0,0.0,0.0,0.0,0.0,0.0,0.0,0.0,0.0,0.0,0.0,0.0,1.2798,1.3726,1.4401,1.4766,1.4808,1.4808,1.4808,1.3895,1.2772,1.1451,0.0,0.0,0.0,0.0,0.0,0.0,0.0,0.0,0.0,0.0,0.0,0.0,0.0,0.0,0.0,0.0,0.0,0.0,0.0,0.0,0.0,0.0,0.0,0.0,0.0,0.0,0.0,0.0,0.0,0.0,0.0,0.0,0.0,0.0,0.0,0.0,0.0,0.0,0.0,0.0,0.0,0.0,0.0,0.0,0.0,0.0,0.0,0.0,0.0,0.0,0.0,0.0,0.0,0.0,0.0,0.0,0.0,0.0,0.0,0.0,0.0,0.0,0.0,0.0,0.0,0.0,0.0,0.0,0.0,0.0,0.0,0.0,0.0,0.0,0.0,0.0,0.0,0.0,0.0,0.0,0.0,0.0,0.0,0.0,0.0,0.0,0.0,0.0,0.0,0.0,0.0,0.0,0.0,0.0,0.0,0.0,0.0,0.0,0.0,0.0,0.0,0.0,1.284,1.4036,1.4808,1.4808,1.4808,1.4808,1.4808,1.4246,1.3305,1.1893,0.0,0.0,0.0,0.0,0.0,0.0,0.0,0.0,0.0,0.0,0.0,0.0,0.0,0.0,0.0,0.0,0.0,0.0,0.0,0.0,0.0,0.0,0.0,0.0,0.0,0.0,0.0,0.0,0.0,0.0,0.0,0.0,0.0,0.0,0.0,0.0,0.0,0.0,0.0,0.0,0.0,0.0,0.0,0.0,0.0,0.0,0.0,0.0,0.0,0.0,0.0,0.0,0.0,0.0,0.0,0.0,0.0,0.0,0.0,0.0,1.3346,1.2822,0.0,0.0,0.0,0.0,0.0,0.0,0.0,0.0,0.0,0.0,0.0,0.0,0.0,0.0,0.0,0.0,0.0,0.0,0.0,0.0,0.0,0.0,0.0,0.0,0.0,0.0,0.0,0.0,0.0,0.0,0.0,0.0,0.0,0.0,0.0,0.0,0.0,0.0,0.0,0.0,1.2896,1.4036,1.4808,1.4808,1.4808,1.4808,1.4808,1.4246,1.3347,1.2046,1.0676,0.0,0.0,0.0,0.0,0.0,0.0,0.0,0.0,0.0,0.0,0.0,0.0,0.0,0.0,0.0,0.0,0.0,0.0,0.0,0.0,0.0,0.0,0.0,0.0,0.0,0.0,0.0,0.0,0.0,0.0,0.0,0.0,0.0,0.0,0.0,0.0,0.0,0.0,0.0,0.0,0.0,0.0,0.0,0.0,0.0,0.0,0.0,0.0,0.0,0.0,0.0,0.0,0.0,0.0,0.0,0.0,0.0,0.0,0.0,1.4794,1.422,0.0,0.0,0.0,0.0,0.0,0.0,0.0,0.0,0.0,0.0,0.0,0.0,0.0,0.0,0.0,0.0,0.0,0.0,0.0,0.0,0.0,0.0,0.0,0.0,0.0,0.0,0.0,0.0,0.0,0.0,0.0,0.0,0.0,0.0,0.0,0.0,0.0,0.0,0.0,0.0,1.2911,1.4036,1.4808,1.4808,1.4808,1.4808,1.4808,1.4513,1.385,1.2692,1.1431,0.0,0.0,0.0,0.0,0.0,0.0,0.0,0.0,0.0,0.0,0.0,0.0,0.0,0.0,0.0,0.0,0.0,0.0,0.0,0.0,0.0,0.0,0.0,0.0,0.0,0.0,0.0,0.0,0.0,0.0,0.0,0.0,0.0,0.0,0.0,0.0,0.0,0.0,0.0,0.0,0.0,0.0,0.0,0.0,0.0,0.0,0.0,0.0,0.0,0.0,0.0,0.0,0.0,1.804,1.8349,1.8826,1.8321,1.8363,1.8728,1.6677,1.6185,1.6733,1.5174,0.0,0.0,0.0,0.0,0.0,0.0,0.0,0.0,0.0,0.0,0.0,0.0,0.0,0.0,0.0,0.0,0.0,0.0,0.0,0.0,0.0,0.0,1.5503,1.4788,1.5258,1.5469,1.3981,0.0,0.0,0.0,0.0,0.0,0.0,0.0,0.0,0.0,0.0,0.0,1.3094,1.4106,1.4808,1.4808,1.4746,1.4714,1.4714,1.4637,1.4204,1.3283,1.2234,1.1322,0.0,0.0,0.0,0.0,0.0,0.0,0.0,0.0,0.0,0.0,0.0,0.0,0.0,0.0,0.0,0.0,0.0,0.0,0.0,0.0,0.0,0.0,0.0,0.0,0.0,0.0,0.0,0.0,0.0,0.0,0.0,0.0,1.2223,1.3488,0.0,0.0,0.0,0.0,0.0,0.0,0.0,0.0,0.0,0.0,0.0,0.0,0.0,1.8068,1.8152,1.8717,1.9067,1.9165,1.9754,2.0077,2.0147,2.0063,2.0077,2.0133,1.981,0.0,1.7464,1.7211,0.0,0.0,0.0,0.0,0.0,0.0,0.0,0.0,0.0,0.0,0.0,0.0,0.0,0.0,0.0,0.0,0.0,0.0,0.0,0.0,0.0,0.0,1.6757,1.6637,1.6596,1.6494,1.6255,1.4921,1.3586,1.2882,1.2756,1.2699,0.0,0.0,0.0,0.0,0.0,0.0,1.3755,1.4373,1.4808,1.4808,1.4556,1.4365,1.4365,1.4046,1.3565,1.2894,1.2225,1.1516,1.0716,0.971,0.0,0.0,0.0,0.0,0.0,0.0,0.0,0.0,0.0,0.0,0.0,0.0,0.0,0.0,0.0,0.0,0.0,0.0,0.0,0.0,0.0,0.0,0.0,0.0,0.0,0.0,0.0,0.0,0.0,1.2406,1.3783,1.4331,1.5033,1.5455,0.0,0.0,0.0,0.0,0.0,0.0,0.0,0.0,0.0,1.8616,1.8857,1.936,2.0049,2.033,2.0639,2.0976,2.1271,2.1397,2.1397,2.1397,2.1397,2.1397,2.1397,2.0737,1.9613,1.8925,1.8475,1.8194,0.0,0.0,0.0,0.0,1.8035,1.781,1.8323,1.8337,1.8028,1.7044,0.0,0.0,0.0,0.0,0.0,0.0,0.0,1.7674,1.7731,1.7892,1.8035,1.7888,1.7791,1.7618,1.7281,1.655,1.5679,1.471,1.4232,1.3895,1.3572,1.3516,0.0,0.0,0.0,1.4401,1.4401,1.4935,1.5188,1.485,1.4683,1.4588,1.4588,1.4401,1.4036,1.335,1.2776,1.2195,1.162,1.0513,0.9727,0.0,0.0,0.0,0.0,0.0,0.0,0.0,0.0,0.0,0.0,0.0,0.0,0.0,0.0,0.0,0.0,0.0,0.0,0.0,0.0,0.0,0.0,0.0,0.0,0.0,0.0,0.0,0.0,1.4204,1.5342,1.5497,1.6635,1.7323,0.0,0.0,0.0,0.0,0.0,0.0,1.8981,1.9136,1.9431,1.988,2.0049,2.0569,2.1541,2.1541,2.178,2.2184,2.2184,2.2184,2.2184,2.2184,2.2184,2.2184,2.2184,2.1978,2.1457,2.0344,1.981,1.96,1.9178,1.8995,1.9051,1.9515,1.9348,1.9136,2.0077,2.0259,1.9869,1.8821,1.8559,1.8447,1.7267,0.0,0.0,0.0,0.0,1.8999,1.9237,1.9287,1.9234,1.9035,1.8995,1.8826,1.8208,1.7941,1.7464,1.6213,1.5595,1.5145,1.4682,1.4612,0.0,1.4612,1.4991,1.5286,1.5286,1.5539,1.552,1.5089,1.4735,1.4511,1.4511,1.4369,1.4046,1.348,1.3057,1.2697,1.2428,1.1369,1.0685,1.0408,0.0,0.0,0.0,0.0,0.0,0.0,0.0,0.0,0.0,0.0,0.0,0.0,0.0,0.0,0.0,0.0,0.0,0.0,0.0,0.0,0.0,0.0,0.0,0.0,0.0,0.0,0.0,0.0,0.0,1.7393,1.8545,0.0,0.0,0.0,0.0,1.9305,1.9908,2.0274,2.0302,2.0865,2.1189,2.1217,2.1735,2.2072,2.2128,2.2128,2.2156,2.2184,2.2184,2.2184,2.2184,2.2184,2.2184,2.2184,2.2184,2.2156,2.2086,2.1485,2.085,2.0344,2.0316,2.0302,2.0302,2.0344,2.033,2.0316,2.0386,2.0386,2.0344,2.0274,2.0004,1.976,1.9929,1.9991,0.0,0.0,2.0177,2.061,2.0373,2.0302,2.0302,2.0302,2.0302,2.0119,1.9432,1.8843,1.811,1.6874,1.6621,1.6578,1.655,0.0,1.655,1.655,1.6578,1.6593,1.6593,1.6087,1.5674,1.5646,1.4513,1.3749,1.3749,1.3173,1.278,1.2745,1.2708,1.2696,1.2661,1.2374,1.2066,1.1793,1.0492,0.0,0.0,0.0,0.0,0.0,0.0,0.0,0.0,0.0,0.0,0.0,0.0,0.0,0.0,0.0,0.0,0.0,0.0,0.0,0.0,0.0,0.0,0.0,0.0,0.0,0.0,0.0,0.0,1.8675,1.9529,0.0,2.0274,2.0484,2.0934,2.1721,2.2002,2.2325,2.278,2.3005,2.2921,2.2451,2.2662,2.2578,2.2184,2.2184,2.2184,2.2184,2.2184,2.2184,2.2184,2.2184,2.2184,2.2184,2.2184,2.2184,2.2156,2.1945,2.1735,2.1538,2.1538,2.1538,2.1538,2.1538,2.1538,2.1538,2.1538,2.1538,2.1482,2.1133,2.0741,2.045,2.0558,2.0599,2.0645,2.0939,2.1055,2.1194,2.1485,2.1257,2.0992,2.0992,2.0667,2.033,2.0105,1.988,1.9473,1.8616,1.7815,1.7281,1.7281,1.7281,1.7281,1.7281,1.7281,1.7281,1.7281,1.707,1.6775,1.6382,1.5529,1.4976,1.4976,1.4226,1.3728,1.3728,1.3263,1.3022,1.3022,1.2712,1.2195,1.1387,1.059,0.9743,0.0,0.0,0.0,0.0,0.0,0.0,0.0,0.0,0.0,0.0,0.0,0.0,0.0,0.0,0.0,0.0,0.0,0.0,0.0,0.0,0.0,0.0,0.0,0.0,0.0,1.8096,1.9374,1.9978,2.0793,2.1468,2.1893,2.2132,2.2597,2.3364,2.3421,2.3617,2.4089,2.4118,2.392,2.3435,2.3421,2.3126,2.2493,2.2479,2.2381,2.2184,2.2184,2.2184,2.2184,2.2184,2.2184,2.2184,2.2184,2.2184,2.2184,2.2184,2.2184,2.2184,2.2184,2.2184,2.2184,2.2184,2.2184,2.2184,2.2184,2.2184,2.2114,2.1752,2.1464,2.1254,2.1254,2.1254,2.1383,2.1753,2.1733,2.1724,2.2086,2.1921,2.1611,2.1611,2.1285,2.0948,2.0737,2.0695,2.0512,1.988,1.8925,1.8152,1.7941,1.7913,1.7913,1.7913,1.7913,1.7913,1.7913,1.7731,1.745,1.7042,1.6166,1.5558,1.5387,1.4668,1.4059,1.3762,1.3399,1.316,1.3022,1.2667,1.2174,1.1521,1.0814,1.0122,0.9401,0.0,0.0,0.0,0.0,0.0,0.0,0.0,0.0,0.0,0.0,0.0,0.0,0.0,0.0,0.0,0.0,0.0,0.0,0.0,0.0,0.0,0.0,0.0,1.8517,1.9669,2.0681,2.133,2.2409,2.314,2.3154,2.3766,2.416,2.416,2.4174,2.4174,2.4174,2.4174,2.416,2.4146,2.4146,2.3836,2.3126,2.3112,2.2802,2.2212,2.2184,2.2184,2.2184,2.2184,2.2184,2.2184,2.2184,2.2184,2.2184,2.2184,2.2184,2.2184,2.2184,2.2184,2.2184,2.2184,2.2184,2.2184,2.2184,2.2184,2.2184,2.2184,2.2184,2.2184,2.2184,2.2184,2.2184,2.2184,2.2184,2.2184,2.2184,2.2184,2.2184,2.2184,2.2184,2.2016,2.1457,2.1344,2.1161,2.054,1.9922,1.9249,1.8658,1.8545,1.8531,1.8517,1.8517,0.0,1.8517,1.7998,1.7632,1.7632,1.6396,1.5351,1.4831,1.4313,1.3689,1.2828,1.3035,1.3057,1.2745,1.2271,1.2111,1.2269,1.1324,1.0672,1.0408,0.0,0.0,0.0,0.0,0.0,0.0,0.0,0.0,0.0,0.0,0.0,0.0,0.0,0.0,0.0,0.0,0.0,0.0,0.0,0.0,0.0,1.9086,2.0316,2.0527,2.1201,2.2086,2.3216,2.3639,2.4019,2.4418,2.4629,2.491,2.5359,2.5402,2.5402,2.5402,2.5402,2.5177,2.4741,2.4727,2.4418,2.385,2.3336,2.3013,2.2845,2.2395,2.2184,2.2184,2.2184,2.2184,2.2184,2.2184,2.2184,2.2184,2.2184,2.2184,2.2184,2.2184,2.2184,2.2184,2.2184,2.2184,2.2184,2.2184,2.2184,2.2184,2.2184,2.2184,2.2184,2.2184,2.2184,2.2184,2.2184,2.2184,2.2184,2.2184,2.2184,2.2184,2.2184,2.2184,2.2128,2.1974,2.1978,2.1749,2.1189,2.0878,2.0428,1.9319,1.9137,1.8983,1.8588,1.8517,1.8517,1.8517,1.8377,1.8264,1.8264,1.7515,1.6959,1.683,1.5394,1.452,1.4528,1.3685,1.3148,1.3057,1.2942,1.258,1.2013,1.1394,1.0826,0.0,0.0,0.0,0.0,0.0,0.0,0.0,0.0,0.0,0.0,0.0,0.0,0.0,0.0,0.0,0.0,0.0,0.0,0.0,0.0,0.0,0.0,2.0931,2.2259,2.2794,2.2949,2.3336,2.4385,2.4498,2.4737,2.5303,2.5359,2.5514,2.5865,2.5893,2.5893,2.5893,2.5893,2.5725,2.5374,2.5359,2.5064,2.4498,2.4067,2.3617,2.3097,2.2732,2.2423,2.2184,2.2184,2.2091,2.1888,2.2091,2.2091,2.1888,2.2137,2.2184,2.2184,0.0,0.0,0.0,0.0,2.2184,2.2184,2.2184,2.2184,2.2184,2.2184,2.2184,2.2184,2.2184,2.2184,2.2184,2.2184,2.2184,2.2184,2.2184,2.2184,2.2184,2.2184,2.2184,2.2184,2.2184,2.2184,2.2086,2.1766,2.1696,0.0,2.0372,2.0007,1.9586,1.8955,1.8871,1.8773,1.8545,1.8517,1.8517,1.8517,1.7988,1.7592,1.738,1.6271,0.0,0.0,0.0,1.3826,1.3047,1.3433,0.0,0.0,0.0,0.0,0.0,0.0,0.0,0.0,1.154,1.1517,0.0,0.0,0.0,0.0,0.0,0.0,0.0,0.0,0.0,0.0,0.0,0.0,0.0,0.0,0.0,0.0,2.255,2.3716,2.491,2.4667,2.4526,2.5022,2.5078,2.5289,2.5837,2.5893,2.5893,2.5893,2.5893,2.5893,2.5893,2.5893,0.0,0.0,0.0,2.5626,2.5093,2.5008,2.4418,2.3308,2.3238,2.2915,2.2395,2.2395,2.2144,2.1724,2.2205,2.2144,2.171,2.2122,2.224,2.2184,2.2184,2.2184,2.2184,2.2184,2.2184,2.2184,2.2184,0.0,0.0,2.2184,2.2184,2.2184,2.2269,2.2226,2.2184,2.2269,2.2226,2.2184,2.2184,2.2184,2.2184,2.2184,2.2184,2.2184,2.2184,2.2184,2.2184,2.2184,2.2184,2.2002,2.1499,2.0878,2.0288,1.96,1.9432,1.9193,1.8647,1.8559,1.8517,1.8517,1.8135,0.0,1.7211,1.6987,1.6525,1.579,1.5612,1.476,1.3093,1.3877,1.3696,1.2292,1.3179,1.367,1.3665,1.4448,1.4722,1.4484,1.2611,1.2531,0.0,0.0,0.0,0.0,0.0,0.0,0.0,0.0,0.0,0.0,0.0,0.0,0.0,0.0,0.0,2.2702,2.3905,2.4868,2.5612,2.5626,2.5584,2.5697,2.5725,2.5767,2.5879,2.5893,2.5893,2.5893,2.5893,2.5893,2.5893,2.5893,2.5893,2.5893,2.5893,2.5837,2.5725,2.5219,2.4854,2.4615,2.416,0.0,2.3752,2.3752,2.3702,2.3602,2.3702,2.3652,2.356,2.3091,2.2634,2.2184,2.2184,2.2184,2.2184,2.2184,2.2184,2.2184,2.2184,2.2184,2.2184,2.2184,2.2184,2.2269,2.2774,2.2578,0.0,2.2774,2.2564,2.2184,2.2184,2.2184,2.2184,2.2184,2.2184,2.2184,2.2184,2.2184,2.2184,2.2184,2.2184,2.2142,2.203,2.1555,2.0906,2.0302,1.9768,1.9348,1.9235,1.8787,1.8517,1.8517,1.8439,1.8344,1.8218,1.7166,1.6558,1.6707,1.6011,1.5244,1.4449,1.4638,1.4513,1.3869,1.4043,1.4321,1.4638,1.4492,1.4999,1.6062,1.4952,1.4387,0.0,0.0,0.0,0.0,0.0,0.0,0.0,0.0,0.0,0.0,0.0,1.8472,2.0496,0.0,2.2187,2.3931,2.4917,2.5542,2.5851,2.5893,2.5893,2.5893,2.5893,2.5893,2.5893,2.5893,2.5893,2.5893,2.5893,2.5893,2.5893,2.5893,2.5893,2.5893,2.5893,2.5893,2.5893,2.5584,2.5289,2.498,2.4709,2.4413,2.4118,2.4118,2.3951,2.3733,2.4002,2.3951,2.3705,2.3602,2.3393,2.3174,2.3174,2.278,2.2184,2.2184,2.2184,2.2184,2.2184,2.2184,2.2184,2.2184,2.2381,2.2704,2.2999,2.3112,2.3112,2.3097,2.2873,2.2564,2.2269,2.2184,2.2184,2.2184,2.2184,2.2184,2.2184,2.2184,2.2184,2.2184,2.2184,2.2184,2.2184,2.1978,2.1569,2.092,2.0555,2.0245,1.995,1.9319,1.8941,1.8941,1.8661,1.8517,1.8517,1.7873,1.7446,1.7394,1.7186,1.6619,1.5659,1.5802,1.5582,1.4967,1.4943,1.5199,1.5647,1.5474,1.5913,1.6822,1.6307,1.6044,0.0,0.0,0.0,0.0,0.0,0.0,0.0,1.7106,1.7984,1.9482,1.9869,2.0557,2.2606,2.2999,2.3474,2.4945,2.557,2.5893,2.5893,2.5893,2.5893,2.5893,2.5893,2.5893,2.5893,2.5893,2.5893,2.5893,2.5893,2.5893,2.5893,2.5893,2.5893,2.5893,2.5893,2.5893,2.5893,2.5893,2.5655,2.5149,2.5149,2.4896,2.447,2.447,2.4198,2.3857,2.4249,2.4128,2.3678,2.4082,2.423,2.4118,2.4118,2.3498,2.255,2.255,2.255,2.255,2.255,2.255,2.255,2.255,2.2887,2.3308,2.3421,2.3744,2.4033,2.3575,2.3378,2.314,2.2521,2.2353,2.2339,2.2212,2.2184,2.2184,2.2184,2.2184,2.2184,2.2184,2.2184,2.2184,2.2184,2.2184,2.2002,2.1569,2.1386,2.1133,2.0625,2.0007,1.953,1.9404,1.8941,1.8604,1.84,1.8439,1.8268,1.772,1.8189,1.7928,1.6612,1.6889,1.67,1.594,1.59,1.6184,1.6665,1.6632,1.6934,1.7488,1.7157,1.7227,1.4785,1.5648,1.6404,1.6404,1.7159,1.8097,0.0,1.9809,2.0589,2.1746,2.2405,2.3196,2.4473,2.4721,2.4973,2.5697,2.5851,2.5893,2.5893,2.5893,2.5893,2.5893,2.5893,2.5893,2.5893,2.5893,2.5893,2.5893,2.5893,2.5893,2.5893,2.5893,2.5893,2.5893,2.5893,2.5893,2.5893,2.5893,2.5865,2.5795,2.5795,2.5753,2.5697,2.5697,2.5697,2.5628,2.5683,2.5374,2.4815,2.4868,2.461,2.4118,2.4118,2.4033,2.3906,2.3906,2.3906,2.3906,2.3906,2.3906,2.3906,2.3906,2.3949,2.4103,2.4601,2.4498,2.4216,2.4643,2.4427,2.3864,2.3168,2.2999,2.2859,2.2311,2.2184,2.2184,2.2184,2.2184,2.2184,2.2184,2.2184,2.2184,2.2184,2.2184,2.2156,2.2086,2.1654,2.1288,2.1217,2.0653,2.0063,1.946,1.9333,1.8891,1.7963,1.8268,1.8149,1.7323,1.8016,1.8082,1.7149,1.7504,1.7505,1.7044,1.7027,1.7218,1.7652,1.7284,1.7611,1.8503,1.7652,1.7366,1.657,1.7203,1.7684,1.8375,1.912,1.9965,2.1121,2.1812,2.2604,2.3634,2.3811,2.4065,2.5296,2.4929,2.4721,2.5742,2.5893,2.5893,2.5893,2.5893,2.5893,2.5893,2.5893,2.5893,2.5893,2.5893,2.5893,2.5893,2.5893,2.5893,2.5893,2.5893,2.5893,2.5893,2.5893,2.6062,2.6427,2.6076,2.6076,2.6427,2.6062,2.5893,2.5893,2.5893,2.5893,2.5893,2.5893,2.5753,2.5514,2.5514,2.5359,2.5135,2.5135,2.5135,2.5036,2.4385,2.4118,2.4118,2.4118,2.4118,2.4118,2.4118,2.4357,2.4695,2.4896,2.505,2.5107,2.5008,2.4797,2.4498,2.3878,2.3659,2.3589,2.3385,2.2985,2.2704,2.2704,2.2437,2.2184,2.2184,2.2184,2.2184,2.2184,2.2184,2.2184,2.2184,2.1974,2.1837,2.1837,2.1316,2.0667,2.0063,1.9614,1.9196,1.8768,1.8595,1.8347,1.7975,1.8307,1.8361,1.7975,1.7841,1.7841,1.7935,1.7447,1.7529,1.8214,1.7529,1.7693,1.8556,1.7693,1.7612,1.7873,1.8449,1.8881,1.9888,2.0616,2.1316,2.2062,2.2924,2.3797,2.4572,2.4596,2.4781,2.5715,2.5133,2.4838,2.577,2.5893,2.5893,2.5893,2.5893,2.5893,2.5893,2.5893,2.5964,2.6132,2.5992,2.5964,2.6132,2.6146,2.6231,2.6399,2.6413,2.6413,2.6413,2.6413,2.6624,2.7074,2.6638,2.6638,2.7074,2.6455,2.6146,2.6132,2.5978,2.5893,2.5893,2.5893,2.5893,2.5893,2.5893,2.5893,2.5893,2.5893,2.5893,2.5781,2.4896,2.4624,2.4624,2.4624,2.4624,2.4624,2.4624,2.4868,2.5233,2.5233,2.5542,2.5809,2.5359,2.5233,2.5093,2.4526,2.4371,2.4329,2.416,2.3702,2.3364,2.3364,2.3013,2.2704,2.2704,2.255,2.2437,2.2437,2.2297,2.2184,2.2184,2.2184,2.2184,2.2184,2.1682,2.1147,2.0681,2.0077,1.9656,1.9656,1.9095,1.8731,1.8731,1.8616,1.8517,1.8517,1.8175,1.8135,1.8478,1.7895,1.7855,1.8517,1.7855,1.7895,1.8478,1.7908,1.7988,1.8191,1.9117,1.9989,2.0557,2.1448,2.2093,2.1569,2.2778,2.3968,2.3995,2.5007,2.5839,2.5893,2.5893,2.5839,2.5893,2.5893,2.5893,2.5893,2.5893,2.5893,2.5893,2.5893,2.6132,2.6722,2.6245,2.6132,2.6736,2.6778,2.7059,2.7692,2.772,2.772,2.772,2.772,2.772,2.7748,2.772,2.772,2.7748,2.7088,2.6778,2.6764,2.6174,2.5893,2.5893,2.5893,2.5893,2.5893,2.5893,2.5893,2.5893,2.5893,2.5893,2.5893,2.5851,2.5837,2.5837,2.5837,2.5837,2.5837,2.5837,2.5851,2.5865,2.5865,2.5879,2.5893,2.5879,2.5865,2.5725,2.5107,2.4952,2.4812,2.4258,2.4103,2.4089,2.4089,2.4075,2.4061,2.4061,2.3505,2.3069,2.3069,2.2578,2.2184,2.2184,2.2184,2.2184,2.2184,2.1682,2.1302,2.1288,2.0709,2.0372,2.0372,1.9782,1.9362,1.9362,1.8801,1.8517,1.8517,1.8478,1.8478,1.8517,1.8478,1.8478,1.8517,1.8478,1.8478,1.8517,1.8478,1.8556,1.9446,2.0425,2.129,2.2671,2.3541,2.4123,2.4348,2.4829,2.5245,2.5245,2.5272,2.5453,2.5839,2.5564,2.5453,2.5839,2.5893,2.5893,2.5893,2.5893,2.5893,2.5893,2.6245,2.6582,2.6793,2.6245,2.6329,2.7369,2.7059,2.7088,2.7748,2.7776,2.7776,2.7776,2.7776,2.7973,2.838,2.7987,2.7987,2.838,2.7748,2.7228,2.6793,2.6596,2.6287,2.5893,2.5893,2.5893,2.5921,2.6329,2.6512,2.654,2.6975,2.7144,2.7102,2.6652,2.6512,2.6441,2.6034,2.5893,2.5893,2.5893,2.5893,2.5893,2.5893,2.5893,2.5893,2.5893,2.5893,2.5837,2.564,2.5584,2.5542,2.5331,2.4966,2.4723,2.4723,2.4399,2.4118,2.4118,2.3935,2.3603,2.3168,2.2929,2.2648,2.224,2.2184,2.2184,2.2184,2.2002,2.1921,2.1921,2.1386,2.102,2.102,2.0414,2.0077,2.0077,1.9473,1.9081,1.9081,1.8689,1.8517,1.8517,1.8517,1.8517,1.8517,1.8517,1.8517,1.8517,1.8595,1.8595,2.0885,2.1826,2.2471,2.3809,2.4381,2.4668,2.4869,2.4894,2.4896,2.4915,2.4772,2.4617,2.4696,2.4641,2.4791,2.5217,2.563,2.5978,2.6188,2.6427,2.6568,2.6568,2.6919,2.7242,2.7467,2.6933,2.6989,2.8029,2.772,2.7762,2.8394,2.8422,2.8422,2.8422,2.8422,2.8619,2.9012,2.8633,2.8521,2.8689,2.8296,2.7776,2.7158,2.7158,2.6947,2.6568,2.6568,2.6568,2.6596,2.6989,2.7158,2.72,2.7607,2.7776,2.772,2.7312,2.7158,2.7031,2.6188,2.5893,2.5893,2.5893,2.5893,2.5893,2.5893,2.5893,2.5893,2.5893,2.5893,2.5893,2.5893,2.5893,2.5893,2.5893,2.5584,2.5303,2.5303,2.4994,2.4713,2.4713,2.4596,2.425,2.3842,2.3393,2.2957,2.2564,2.2325,2.2184,2.2184,2.2184,2.2184,2.2184,2.1865,2.164,2.164,2.1046,2.0709,2.0709,2.0119,1.9782,1.9782,1.9402,1.9192,1.9192,1.9192,1.9192,1.9192,1.9192,1.9065,1.8855,1.916,1.9145,2.2326,2.3202,2.3593,2.3989,2.4079,2.3962,2.3374,2.3242,2.3242,2.3276,2.3607,2.362,2.2722,2.3312,2.4042,2.4231,2.523,2.616,2.6778,2.7397,2.7776,2.7776,2.7804,2.8057,2.8633,2.8197,2.8127,2.8745,2.8717,2.8956,2.9574,2.9602,2.9602,2.9602,2.9602,2.9602,2.9602,2.9602,2.9307,2.8745,2.8745,2.8422,2.7832,2.7832,2.7804,2.7776,2.7776,2.7776,2.7776,2.7804,2.7832,2.7832,2.786,2.7874,2.7874,2.7832,2.7832,2.765,2.6413,2.5992,2.5992,2.5992,2.5964,2.595,2.595,2.5921,2.5893,2.5893,2.5893,2.5893,2.5893,2.5893,2.5893,2.5893,2.5893,2.5893,2.5893,2.5893,2.5893,2.5893,2.5402,2.498,2.498,2.3955,2.3154,2.3154,2.262,2.2212,2.2184,2.2184,2.2184,2.2184,2.2184,2.2184,2.2184,2.1696,2.1358,2.1358,2.0765,2.0442,2.0442,2.0414,2.04,2.04,2.04,2.04,2.04,2.04,2.0091,1.946,2.0119,2.0063,2.2496,2.3681,2.4611,2.4741,2.509,2.537,2.5189,2.4847,2.4545,2.4555,2.3658,2.2875,2.2931,2.3269,2.3832,2.4671,2.5811,2.6807,2.7439,2.7664,2.7776,2.7776,2.8183,2.8521,2.8675,2.897,2.9392,3.001,2.9209,2.8956,2.9574,2.9602,2.9602,2.9602,2.9602,2.9602,2.9602,2.9602,2.9532,2.9378,2.9378,2.9055,2.8464,2.8464,2.8212,2.7776,2.7776,2.7776,2.7804,2.8282,2.8464,2.8507,2.897,2.9139,2.9083,2.8633,2.8464,2.8352,2.7565,2.7298,2.7298,2.7298,2.6975,2.6582,2.6582,2.6259,2.5893,2.5893,2.5893,2.5893,2.5893,2.5893,2.5893,2.5893,2.5893,2.5893,2.5893,2.5893,2.5893,2.5893,2.5402,2.498,2.498,2.4385,2.3864,2.3864,2.328,2.2704,2.224,2.2184,2.2184,2.2184,2.2184,2.2184,2.2184,2.2044,2.1945,2.1945,2.1428,2.1091,2.1091,2.0625,2.04,2.04,2.04,2.04,2.04,2.04,2.0316,2.0161,2.0387,2.0373,2.3665,2.4579,2.5188,2.5061,2.523,2.537,2.4816,2.4202,2.3578,2.2838,2.1931,2.1125,2.0709,2.1669,2.2798,2.3412,2.5369,2.7031,2.7692,2.824,2.8577,2.8577,2.8886,2.9083,2.9083,2.9645,3.015,3.0488,2.9645,2.9364,2.9968,2.9757,2.9602,2.9602,2.9602,2.9602,2.9602,2.9602,2.9602,2.9602,2.9602,2.942,2.9083,2.9083,2.89,2.8577,2.8577,2.8577,2.8605,2.8956,2.9083,2.9125,2.9476,2.9602,2.956,2.9223,2.9083,2.9055,2.8703,2.8577,2.8493,2.7945,2.7537,2.7228,2.7228,2.6793,2.6287,2.6287,2.6104,2.5893,2.5893,2.5893,2.5893,2.5893,2.5893,2.5893,2.5893,2.5893,2.5893,2.5893,2.5626,2.5374,2.5374,2.4868,2.4512,2.4512,2.3688,2.2971,2.2634,2.2339,2.2184,2.2184,2.2184,2.2184,2.2184,2.2184,2.2184,2.2184,2.1907,2.171,2.171,2.1355,2.1187,2.1187,2.1187,2.1187,2.1187,2.1187,2.1046,2.0793,2.1135,2.1062,2.5024,2.5439,2.5439,2.5061,2.5007,2.464,2.3445,2.2631,2.1747,2.0219,1.9742,1.9183,1.7895,1.962,2.1402,2.1821,2.4517,2.6877,2.7776,2.8816,2.9518,2.9602,2.9602,2.9602,2.9602,3.008,3.0431,3.0516,2.9954,2.9869,3.0488,3.001,2.9687,2.9602,2.9602,2.9602,2.9602,2.9602,2.9602,2.9602,2.9602,2.9602,2.9602,2.9602,2.9602,2.9602,2.9602,2.9602,2.9602,2.9602,2.9602,2.9602,2.9602,2.9602,2.9602,2.9602,2.9602,2.9602,2.9602,2.9602,2.9434,2.8366,2.7959,2.7902,2.7902,2.7453,2.6933,2.6933,2.6483,2.602,2.602,2.595,2.5893,2.5893,2.5893,2.5893,2.5893,2.5893,2.5893,2.5893,2.5893,2.5893,2.5893,2.5458,2.5107,2.5107,2.4095,2.3308,2.3238,2.262,2.2184,2.2184,2.2217,2.2263,2.2184,2.2217,2.2263,2.2184,2.2184,2.2184,2.2184,2.2184,2.2184,2.2184,2.2184,2.2184,2.2184,2.2184,2.1949,2.1443,2.1978,2.1935,2.4533,2.5075,2.5439,2.5061,2.5025,2.4727,2.3612,2.2729,0.0,2.0696,1.9674,1.897,1.9055,1.9595,2.0628,2.2554,2.4231,2.6062,2.8226,2.8717,2.904,2.9546,2.9602,2.9602,2.9602,2.9701,2.9968,3.0488,2.9954,2.9869,3.0488,3.0417,3.0136,2.9631,2.9602,2.9602,2.9602,2.9602,2.9602,2.9602,2.9602,2.9602,2.9602,2.9602,2.9602,2.9602,2.9602,2.9602,2.9602,2.9602,2.9602,2.9602,2.9602,2.9602,2.9602,2.9602,2.9602,2.9602,2.9602,2.9602,2.9574,2.9364,2.8942,2.8535,2.8535,2.8099,2.7607,2.7607,2.7144,2.6652,2.6652,2.6273,2.5893,2.5893,2.5893,2.5893,2.5893,2.5893,2.5893,2.5893,2.5893,2.5893,2.5893,2.5809,2.5725,2.5725,2.5121,2.4474,2.4005,2.2935,2.2184,2.2184,2.2434,2.248,2.2217,2.2434,2.2495,2.2231,2.2184,2.2184,2.2184,2.2184,2.2184,2.2184,2.2184,2.2184,2.2184,2.2184,2.2128,2.203,2.2128,2.2114,2.3824,2.4423,2.4943,2.4819,2.487,2.4591,2.3103,0.0,0.0,1.9492,1.8669,1.8275,1.8275,1.9035,2.0065,2.1144,2.2825,2.4755,2.6933,2.7509,2.8183,2.9462,2.9897,2.9954,2.9645,3.0488,3.105,3.1021,3.1345,3.1246,3.0558,3.0221,2.9912,2.9617,2.9602,2.9602,2.9602,2.9602,2.9602,2.9602,2.9602,2.9602,2.9602,2.9602,2.9602,2.9602,2.9602,2.9602,2.9602,2.9602,2.9602,2.9602,2.9602,2.9602,2.9602,2.9602,2.9602,2.9602,2.9602,2.9602,2.9602,2.9602,2.9406,2.9167,2.9167,2.8745,2.8254,2.8254,2.7551,2.6807,2.6807,2.6357,2.5893,2.5893,2.5893,2.5893,2.5893,2.5893,2.5893,2.5893,2.5893,2.5948,2.6204,2.6056,2.5948,2.6204,2.573,2.5217,2.4918,2.4244,2.3457,2.2566,2.2618,2.2709,2.2768,2.2709,2.2618,2.248,2.2434,2.2402,2.2231,2.2184,2.2184,2.2184,2.2356,2.2356,2.2184,2.2586,2.2678,2.2434,2.2434,2.2434,2.343,2.3917,2.4475,2.4721,2.4769,2.4217,2.2468,2.1563,2.0496,1.8262,1.7882,1.7841,1.7529,1.8544,1.9521,1.9795,2.1449,2.3449,2.5598,2.6427,2.7509,2.9378,3.015,3.0333,2.9855,3.126,3.2005,3.1527,3.2384,3.2342,3.0993,3.0347,2.9954,2.9813,2.9799,2.9743,2.9602,2.9602,2.9602,2.9602,2.9602,2.9602,2.9602,2.9602,2.9602,2.9602,2.9602,2.9602,2.9602,2.9602,2.9602,2.9602,2.9602,2.9602,2.9602,2.9602,2.9602,2.9602,2.9602,2.9602,2.9602,2.9602,2.9602,2.9602,2.9602,2.9265,2.8886,2.8886,2.8085,2.7186,2.7059,2.6652,2.6259,2.6118,2.5992,2.5893,2.5893,2.5893,2.5893,2.5893,2.5948,2.615,2.6457,2.6258,2.615,2.6563,2.613,2.577,2.5742,2.5673,2.505,2.3504,2.3256,2.317,2.3275,2.3068,2.2934,2.2844,2.2844,2.2663,2.231,2.231,2.231,2.231,2.2572,2.2618,2.2449,2.2949,2.3038,2.2844,2.2663,2.2618,2.3798,2.4055,2.4368,2.5205,2.4569,2.333,2.1911,0.0,1.9963,1.8181,1.8135,1.8439,1.84,1.8523,1.8985,2.0175,0.0,2.2527,2.5472,2.6427,2.7509,2.9378,3.015,3.0502,3.0445,3.112,3.1555,3.1485,3.1597,3.1822,3.2216,3.1654,3.105,3.0459,3.0445,3.0164,2.9617,2.9602,2.9602,2.9602,2.9602,2.9602,2.9602,2.9602,2.9602,2.9602,2.9602,2.9602,2.9602,2.9602,2.9602,2.9602,2.9602,2.9602,2.9602,2.9602,2.9602,2.9602,2.9602,2.9602,2.9602,2.9602,2.9602,2.9602,2.9602,2.956,2.9532,2.9532,2.904,2.8394,2.7832,2.765,2.7453,2.6863,2.6301,2.5893,2.5893,2.5893,2.5893,2.5893,2.6204,2.6457,2.651,2.6457,2.6563,2.6967,2.6663,2.6364,2.6188,2.64,2.6279,2.5604,2.4957,2.4268,2.3363,2.3538,2.3566,2.326,2.3231,2.3083,2.2663,2.2663,2.2663,2.2663,2.2694,2.2844,2.3187,2.2889,2.2934,2.3231,2.254,2.2402,2.2823,2.3567,2.4232,2.4805,2.4017,2.287,2.2082,2.0815,1.9488,1.8434,1.8386,1.8517,1.8517,1.8517,1.8686,1.9178,1.9768,2.0976,2.3336,2.484,2.654,2.8788,3.0263,3.1106,3.1106,3.2005,3.2595,3.2595,3.2595,3.2707,3.2946,3.2033,3.1373,3.112,3.0726,3.0403,3.015,2.9785,2.9602,2.9602,2.9602,2.9602,2.9602,2.9602,2.9602,2.9602,2.9602,2.9602,2.9602,2.9602,2.9602,2.9602,2.9602,2.9602,2.9602,2.9602,2.9602,2.9602,2.9602,2.9602,2.9602,2.9602,2.9602,2.9602,2.9602,2.9602,2.9602,2.9602,2.9167,2.8633,2.8394,2.7762,2.7187,2.7186,2.6495,2.5948,2.6204,2.6042,2.5893,2.5893,2.6204,2.6563,2.6811,2.6864,2.7019,2.7458,2.7408,2.7268,2.7166,2.7482,2.7466,2.6856,2.5561,2.4715,2.4531,2.4066,2.3754,2.3625,2.3625,2.3348,2.274,2.2934,2.2934,2.2694,2.3157,2.3348,2.3319,2.3551,2.3653,2.3581,2.3304,2.3246,2.1992,2.304,2.3946,2.4447,2.3644,2.2588,2.2053,2.0625,1.9221,1.8644,1.8517,1.8517,1.8517,1.8517,1.8517,0.0,1.9151,2.0428,2.2451,2.4025,2.5907,2.8394,3.001,3.1007,3.119,3.2497,3.3326,3.3326,3.3326,3.3326,3.3326,3.2497,3.1949,3.1766,3.1148,3.0712,3.053,2.9912,2.9602,2.9602,2.9602,2.9602,2.9602,2.9602,2.9602,2.9602,2.9602,2.9602,2.9602,2.9602,2.9602,2.9602,2.9602,2.9602,2.9602,2.9602,2.9602,2.9602,2.9602,2.9602,2.9602,2.9602,2.9602,2.9602,2.9602,2.9602,2.9602,2.9602,2.9167,2.8792,2.9082,2.825,2.7414,2.7867,2.7293,2.6597,2.6583,2.6426,2.6204,2.6096,2.651,2.6982,2.724,2.7291,2.7458,2.789,2.789,2.784,2.794,2.8201,2.8227,2.775,2.6398,2.5499,2.5305,2.4658,2.418,2.3967,2.3967,2.3653,2.3068,2.3304,2.3304,2.3024,2.3523,2.3739,2.3625,2.3967,2.4094,2.3925,2.3754,2.3711,2.1683,2.2612,2.3402,2.4283,2.3592,2.2477,2.1521,2.0316,1.9221,1.8644,1.8517,1.8517,1.8517,1.8517,1.8517,1.8517,1.9571,2.1243,2.3752,2.4638,2.5907,2.8394,2.9237,2.9855,3.0474,3.2216,3.3326,3.3326,3.3326,3.3326,3.3326,3.3312,3.3031,3.2412,3.1794,3.1176,3.053,2.9912,2.9602,2.9602,2.9602,2.9602,2.9602,2.9602,2.9602,2.9602,2.9602,2.9602,2.9602,2.9602,2.9602,2.9602,2.9602,2.9602,2.9602,2.9602,2.9602,2.9602,2.9602,2.9602,2.9602,2.9602,2.9602,2.9602,2.9602,2.9602,2.9602,2.9602,2.9167,2.8951,3.0033,2.9376,2.8641,2.9217,2.8791,2.791,2.7017,2.6942,2.6967,2.6563,2.7203,2.779,2.779,2.779,2.794,2.8348,2.8039,2.794,2.8348,2.8411,2.8411,2.8396,2.778,2.6811,2.5441,2.5302,2.5025,2.4348,2.4302,2.4135,2.3797,2.3797,2.3797,2.3797,2.3797,2.3967,2.4302,2.3952,2.3967,2.4261,2.361,2.3494,2.1175,2.1725,2.2083,2.2769,2.186,2.0771,2.0721,1.9712,1.8717,1.8559,1.8517,1.8517,1.8517,1.8517,1.8798,1.9669,2.047,0.0,2.3168,2.5036,2.6694,2.7931,3.0108,3.1766,3.2384,3.2974,3.3326,3.3326,3.3326,3.3326,3.3326,3.3326,3.3031,3.2426,3.1808,3.1176,3.053,3.0333,3.0024,2.9617,3.0488,3.0656,3.0249,3.0698,3.0656,3.0235,3.0235,2.9996,2.9602,2.9602,2.9602,2.9602,2.9602,2.9602,2.9602,2.9602,2.9602,2.9602,2.9602,2.9602,2.9602,2.9602,2.9602,2.9602,2.9602,2.9602,2.9602,2.9602,2.9462,2.9487,3.0147,2.9707,2.9305,3.0125,2.931,2.8301,2.785,2.752,2.7136,2.6582,2.7203,2.779,2.779,2.8039,2.825,2.8396,2.8299,2.825,2.8396,2.8411,2.8411,2.8411,2.8211,2.7534,2.6164,2.5595,2.5025,2.4348,2.4302,2.4135,2.3824,2.4009,2.4051,2.3782,2.4009,2.4177,2.4302,2.4177,2.4219,2.4302,2.4094,2.4051,2.0418,2.096,2.1274,2.1741,2.0955,2.01,2.0034,1.9248,1.8517,1.8517,1.8517,1.8517,1.8517,1.8517,1.8855,1.9866,2.054,2.1524,2.3224,2.5191,2.7045,2.8633,3.074,3.23,3.2918,3.3185,3.3227,3.3002,3.3185,3.3213,3.2988,3.3199,3.3031,3.2426,3.2033,3.1527,3.0895,3.0895,3.0572,2.9968,3.0993,3.1274,3.0895,3.105,3.0909,3.0516,3.0277,2.9968,0.0,2.9602,2.9602,2.9602,2.9602,2.9602,2.9602,2.9602,2.9602,2.9602,2.9602,2.9602,2.9602,2.9602,2.9602,2.9602,2.9602,2.9602,2.9602,2.9602,2.9727,2.9898,3.019,3.0144,3.0075,3.0482,2.9923,2.9139,2.8507,2.8247,2.7939,2.721,2.7586,2.8054,2.8054,2.825,2.8411,2.8411,2.8411,2.8411,2.8411,2.8411,2.8411,2.8411,2.8411,2.7965,2.6857,2.6118,2.5426,2.4733,2.4441,2.4219,2.4009,2.4177,2.4219,2.4009,2.4177,2.4302,2.4302,2.4302,2.4302,2.4302,2.4302,2.4302,0.0,2.0274,2.0806,2.103,2.0667,2.0105,1.946,1.8885,0.0,1.8517,1.8517,1.8531,1.8574,1.8574,1.8773,1.9474,2.0175,2.1426,2.385,2.5219,2.7144,3.0164,3.105,3.1668,3.2286,3.2848,3.296,3.2384,3.2876,3.296,3.244,3.2946,3.3016,3.2483,3.2469,3.2145,3.1499,3.1527,3.1232,3.06,3.1288,3.1597,3.1541,3.0937,3.0656,3.0614,2.9954,2.9673,2.9673,2.9631,2.9602,2.9602,2.9602,2.9602,2.9602,2.9602,2.9602,2.9602,2.9602,2.9602,2.9602,2.9602,2.9602,2.9602,2.9602,2.9602,2.9602,2.9602,2.996,3.0312,3.0312,3.0673,3.097,3.0553,3.0615,3.0413,2.9109,2.9167,2.9215,2.8314,2.8324,2.8458,2.8411,2.8411,2.8411,2.8411,2.8411,2.8411,2.8411,2.8411,2.8411,2.8411,2.8411,2.815,2.7519,2.6857,2.6149,2.5441,2.4748,2.4379,2.4379,2.4333,2.4302,2.4302,2.4302,2.4302,2.4302,2.4302,2.4302,2.4302,2.4302,2.4333,1.8709,0.0,1.9083,1.9123,1.9065,1.8925,0.0,1.8616,1.8517,0.0,0.0,1.8618,1.9081,1.9179,1.9726,2.1285,2.2058,2.2999,2.4545,2.6245,2.8127,3.0263,3.0656,3.1007,3.164,3.1836,3.185,3.171,3.1836,3.2061,3.2384,3.2539,3.2778,3.3101,3.3101,3.2595,3.1499,3.1963,3.1878,3.1274,3.237,3.2651,3.2188,3.2033,3.1963,3.1907,3.0783,3.0305,3.0263,2.9799,2.9602,2.9602,2.9602,2.9602,2.9602,2.9602,2.9602,2.9602,2.9602,2.9602,2.9602,2.9602,2.9602,2.9602,2.9602,2.9602,2.9602,2.9602,2.996,3.0372,3.0732,3.1204,3.161,3.1823,3.166,3.1249,3.0458,3.0338,3.0045,2.8862,2.8921,2.9012,2.8488,2.8411,2.8411,2.8411,2.8411,2.8411,2.8411,2.8411,2.8411,2.8411,2.8411,2.835,2.8181,2.755,2.6857,2.618,2.5472,2.5072,2.5072,2.4579,2.4302,2.4302,2.4302,2.4302,2.4302,2.4302,2.4302,2.4302,2.4302,2.4579,1.8369,1.8517,1.8517,1.8517,1.8517,1.8517,1.8517,0.0,0.0,0.0,0.0,1.8661,1.9277,1.939,1.9992,2.1875,2.2451,2.3519,2.5921,2.7621,2.9195,3.0783,3.0965,3.1106,3.1457,3.1485,3.1373,3.1064,3.1316,3.1499,3.1541,3.2089,3.2553,3.289,3.3185,3.2862,3.1921,3.2511,3.2511,3.1921,3.2876,3.3143,3.2806,3.2244,3.1991,3.1921,3.0656,3.0108,3.008,2.9743,2.9602,2.9602,2.9602,2.9602,2.9602,2.9602,2.9602,2.9602,2.9602,2.9602,2.9602,2.9602,2.9602,2.9602,2.9602,2.9727,2.9898,2.9898,3.0266,3.0613,3.0673,3.1029,3.1379,3.1422,3.1198,3.0917,3.0929,3.0488,3.0023,2.9704,2.9276,2.8935,2.8873,2.8611,2.8411,2.8411,2.8411,2.8411,2.8411,2.8411,2.8411,2.8411,2.8411,2.8411,2.8411,2.8073,2.7565,2.6888,2.6195,2.5795,2.578,2.5133,2.4625,2.4317,2.4302,2.4302,2.4302,2.4625,2.4779,2.4779,2.5118,2.5441,1.8198,1.8447,1.8517,1.8517,1.8517,1.8517,1.8517,0.0,0.0,0.0,0.0,0.0,0.0,1.9614,2.0316,2.217,2.2704,2.4067,2.7439,2.8816,2.9897,3.1064,3.1204,3.1204,3.1204,3.1204,3.0965,3.0431,3.0895,3.1007,3.0544,3.1626,3.23,3.2412,3.3002,3.3073,3.2553,3.3059,3.3059,3.2553,3.3073,3.3269,3.3143,3.2005,3.1541,3.1555,3.0193,2.9715,2.9883,2.9687,2.9602,2.9602,2.9602,2.9602,2.9602,2.9602,2.9602,2.9602,2.9602,2.9602,2.9602,2.9602,2.9602,2.9602,2.9602,2.9913,3.0312,3.0372,3.0732,3.1029,3.0553,3.0792,3.1087,3.0613,3.0426,3.0522,3.1071,3.0522,3.0063,3.0713,2.9693,2.8858,2.9335,2.8858,2.8411,2.8411,2.8411,2.8411,2.8411,2.8411,2.8411,2.8411,2.8411,2.8411,2.8411,2.8411,2.8165,2.758,2.6919,2.6426,2.618,2.5733,2.5164,2.4471,2.4564,2.461,2.4625,2.5195,2.5487,2.5487,2.6103,2.6426,1.7717,1.8124,1.8517,1.8517,1.8517,1.8517,1.8517,0.0,0.0,0.0,0.0,0.0,0.0,2.0653,2.164,2.3512,2.5078,2.6666,2.8324,2.8717,2.9097,2.9813,2.9897,2.9897,2.9897,2.9897,2.9855,2.9757,2.9841,3.008,3.0502,3.1232,3.1864,3.2384,3.3002,3.3283,3.3185,3.3269,3.3269,3.3185,3.3283,3.3045,3.2511,3.1822,3.178,3.2174,3.0375,3.0207,3.112,3.0052,2.9602,2.9602,2.9602,2.9602,2.9602,2.9602,2.9602,2.9602,2.9602,2.9602,2.9602,2.9602,2.9602,2.9602,2.9602,2.9913,3.0372,3.0792,3.1204,3.1495,3.1029,3.1537,3.2048,3.161,3.1747,3.2038,3.2145,3.2041,3.1828,3.1405,3.0637,2.9966,2.9489,2.8858,2.8411,2.8411,2.8411,2.8411,2.8411,2.8411,2.8411,2.8411,2.8411,2.8411,2.8411,2.8411,2.8365,2.8258,2.7611,2.6718,2.5518,2.5949,2.5887,2.5179,2.5718,2.6026,2.6072,2.618,2.6226,2.6226,2.6334,2.6688,1.7407,1.7801,1.8096,1.8433,1.8517,1.8616,1.8899,0.0,0.0,0.0,0.0,0.0,0.0,2.14,2.2527,2.4699,2.661,2.8029,2.8605,2.897,2.9293,2.9574,2.9602,2.9602,2.9602,2.9602,2.9602,2.9602,2.9602,2.9729,3.001,3.0628,3.1092,3.1373,3.2005,3.2328,3.2328,3.2328,3.2497,3.282,3.282,3.2511,3.1893,3.1626,3.1443,3.1345,3.0474,3.0249,3.0431,2.9841,2.9602,2.9602,2.9602,2.9602,2.9602,2.9602,2.9602,2.9602,2.9602,2.9602,2.9602,2.9602,2.9602,2.9602,2.9602,3.0083,3.0673,3.0613,3.097,3.1321,3.1379,3.148,3.1652,3.1667,3.1293,3.1235,3.2189,3.1551,3.1012,3.1782,3.0812,2.9904,2.995,2.9089,2.8411,2.8411,2.8411,2.8411,2.8411,2.8411,2.8411,2.8411,2.8411,2.8411,2.8411,2.8411,2.8411,2.8411,2.8119,2.7488,2.6488,2.6749,2.6611,2.5903,2.6195,2.6349,2.6349,2.6749,2.6934,2.6949,2.7303,2.7642,1.7084,1.7492,1.7745,1.8363,0.0,1.8675,1.9446,0.0,0.0,0.0,0.0,0.0,0.0,2.255,2.394,2.6006,2.7776,2.89,2.89,2.9307,2.9602,2.9602,2.9602,2.9602,2.9602,2.9602,2.9602,2.9602,2.9602,2.9602,2.9602,3.0193,3.053,3.053,3.1148,3.1485,3.1485,3.1485,3.1724,3.2188,3.2188,3.1864,3.126,3.126,3.0993,3.0516,3.0375,3.0122,2.9813,2.9673,2.9602,2.9602,2.9602,2.9602,2.9602,2.9602,2.9602,2.9602,2.9602,2.9602,2.9602,2.9602,2.9602,2.9602,2.9727,3.0312,3.0911,3.0553,3.0792,3.1204,3.1495,3.1321,3.1263,3.161,3.1011,3.0706,3.2112,3.1197,3.0566,3.209,3.0905,2.9812,3.0335,2.9304,2.8411,2.8411,2.8411,2.8411,2.8411,2.8411,2.8411,2.8411,2.8411,2.8411,2.8411,2.8411,2.8411,2.8411,2.8411,2.8104,2.7426,2.755,2.7319,2.6641,2.678,2.6842,2.6765,2.7365,2.7626,2.7642,2.8165,2.8411,1.6564,1.7169,1.7745,1.8363,0.0,0.0,2.0049,2.033,0.0,2.1819,0.0,0.0,0.0,2.4896,2.6736,2.7509,2.8717,2.9546,2.9546,2.9574,2.9602,2.9602,2.9602,2.9602,2.9602,2.9602,2.9602,2.9602,2.9602,2.9602,2.9602,3.0193,3.053,3.053,3.1148,3.1485,3.1485,3.1485,3.1513,3.1555,3.1555,3.1218,3.0586,3.0586,3.0572,3.0488,2.9926,2.9968,3.0417,2.9841,2.9602,2.9602,2.9602,2.9602,2.9602,2.9602,2.9602,2.9602,2.9602,2.9602,2.9602,2.9602,2.9602,2.9665,3.0144,3.0613,3.097,3.097,3.1263,3.1552,3.1146,3.1321,3.1682,3.1682,3.1931,3.2219,3.2367,3.2275,3.2228,3.2367,3.1289,3.0366,3.0412,2.9304,2.8411,2.8411,2.8411,2.8411,2.8411,2.8411,2.8411,2.8411,2.8411,2.8411,2.8411,2.8411,2.8411,2.8411,2.8411,2.8104,2.7426,2.7996,2.8011,2.7334,2.7934,2.8258,2.8258,2.8304,2.8334,2.8334,2.8381,2.8411,1.641,1.714,1.7745,1.8363,0.0,0.0,0.0,2.0934,2.1397,2.3076,2.34,0.0,2.4151,2.5655,2.7017,2.7664,2.8802,2.9602,2.9602,2.9602,2.9602,2.9602,2.9602,2.9602,2.9602,2.9602,2.9602,2.9602,2.9602,2.9602,2.9602,2.9827,2.9954,2.9954,3.0193,3.0319,3.0319,3.0319,3.0319,3.0319,3.0712,3.0558,2.9968,3.0347,3.0319,2.9968,3.0122,3.0094,2.994,2.9701,2.9602,2.9602,2.9602,2.9602,2.9602,2.9602,2.9602,2.9602,2.9602,2.9602,2.9602,2.9602,2.9602,2.9602,2.9789,3.019,3.0493,3.019,3.0673,3.1263,3.1379,3.1552,3.1781,3.2064,3.1965,3.1874,3.2305,3.2059,3.1767,3.1767,3.1043,3.0289,2.9874,2.9027,2.8411,2.8411,2.8411,2.8411,2.8411,2.8411,2.8411,2.8411,2.8411,2.8411,2.8411,2.8411,2.8411,2.8411,2.8411,2.8288,2.8042,2.8273,2.8288,2.8027,2.8273,2.8411,2.8411,2.8411,2.8411,2.8411,2.8411,2.8411,1.6396,1.714,1.7801,0.0,0.0,0.0,0.0,2.1738,2.2189,2.4221,2.4695,2.4826,2.5444,2.6413,2.7326,2.7959,2.8942,2.9602,2.9602,2.9602,2.9602,2.9602,2.9602,2.9602,2.9602,2.9602,2.9602,2.9602,2.9602,2.9602,2.9602,2.9602,2.9602,2.9602,2.9602,2.9602,2.9602,2.9665,2.9651,2.9665,3.0073,3.0073,2.9617,3.0052,3.001,2.9631,3.0052,2.9996,2.9602,2.9602,2.9602,2.9602,2.9602,2.9602,2.9602,2.9602,2.9602,2.9602,2.9602,2.9602,2.9602,2.9602,2.9602,2.9602,2.9789,3.0021,3.0266,2.9898,3.0493,3.1263,3.1437,3.1625,3.1796,3.212,3.1934,3.1774,3.2124,3.175,3.1382,3.1382,3.0689,2.9966,2.9489,2.8858,2.8411,2.8411,2.8411,2.8411,2.8411,2.8411,2.8411,2.8411,2.8411,2.8411,2.8411,2.8411,2.8411,2.8411,2.8411,2.8411,2.8411,2.8411,2.8411,2.8411,2.8411,2.8411,2.8411,2.8411,2.8411,2.8411,2.8411,2.8411,1.6508,1.714,1.7899,0.0,0.0,0.0,2.2536,2.2634,2.2887,2.5374,2.5893,2.6076,2.6694,2.7326,2.7973,2.8577,2.9195,2.9602,2.9602,2.9602,2.9602,2.9602,2.9602,2.9602,2.9602,2.9602,2.9602,2.9602,2.9602,2.9602,2.9602,2.9602,2.9602,2.9602,2.9602,2.9602,2.9602,2.9699,2.9808,2.9808,2.9808,2.9699,2.9602,2.9602,2.9602,2.9602,2.9602,2.9602,2.9602,2.9602,2.9602,2.9602,2.9602,2.9602,2.9602,2.9602,2.9602,2.9602,2.9602,2.9602,2.9602,2.9602,2.9602,2.9665,3.0144,3.0312,3.0312,3.0312,3.097,3.1625,3.1146,3.1321,3.1739,3.1739,3.2064,3.2287,3.1781,3.1546,3.1397,3.1382,3.032,2.9427,2.9396,2.8842,2.8411,2.8411,2.8411,2.8411,2.8411,2.8411,2.8411,2.8411,2.8411,2.8411,2.8411,2.8411,2.8411,2.8411,2.8411,2.8411,2.8411,2.8411,2.8411,2.8411,2.8396,2.8396,2.8411,2.8396,2.8396,2.8411,2.8411,2.8411,1.6508,1.714,0.0,1.9081,0.0,0.0,0.0,2.2957,0.0,0.0,2.5893,2.595,2.6132,2.668,2.7158,2.734,2.8268,2.897,2.897,2.9336,2.9602,2.9602,2.9602,2.9602,2.9602,2.9602,2.9602,2.9602,2.9602,2.9602,2.9602,2.9602,2.9602,2.9602,2.9602,2.9665,2.9761,2.9747,2.9808,2.9808,2.9808,2.9747,2.9761,2.9665,2.9602,2.9602,2.9602,2.9602,2.9602,2.996,3.0312,3.0553,3.019,3.0083,3.0083,2.9727,2.9602,2.9602,2.9602,2.9602,2.9602,2.9602,2.9602,2.9602,2.9789,2.9789,2.9789,2.9789,3.0493,3.1204,3.1029,3.1595,3.2176,3.2176,3.2287,3.2342,3.2231,3.2133,3.1813,3.0889,3.0397,2.9812,2.8873,2.8535,2.8411,2.8411,2.8411,2.8411,2.8411,2.8411,2.8411,2.8411,2.8411,2.8411,2.8411,2.8411,2.8411,2.8411,2.8411,2.8411,2.8411,2.8411,2.8411,2.8411,2.8748,2.8748,2.8411,2.8748,2.8748,2.8411,2.8411,2.8411,1.6874,1.7506,0.0,1.9515,2.0372,2.1369,2.3097,0.0,0.0,0.0,2.5893,2.5964,2.6217,2.6554,2.6891,2.7144,2.7832,2.8324,2.8324,2.8858,2.9237,2.9237,2.9462,2.9602,2.9602,2.9602,2.9602,2.9602,2.9602,2.9602,2.9602,2.9602,2.9602,2.9651,2.9651,2.9775,2.9898,2.9946,2.9946,2.9898,2.9898,2.9884,2.9808,2.9651,2.9602,2.9602,2.9602,2.9727,2.9898,3.019,3.0553,3.097,3.0673,3.0433,3.0266,2.996,2.9789,2.9602,2.9602,2.9602,2.9602,2.9602,2.9602,2.9602,2.9602,2.9602,2.9602,2.9602,3.0266,3.1029,3.1029,3.1709,3.2342,3.2176,3.2272,3.2266,3.1824,3.1673,3.1289,3.0228,2.9812,2.9366,2.855,2.8411,2.8411,2.8411,2.8411,2.8411,2.8411,2.8411,2.8411,2.8411,2.8411,2.8411,2.8411,2.8411,2.8411,2.8411,2.8411,2.8493,2.8653,2.8493,2.8493,2.8653,2.8967,2.8951,2.8653,2.8951,2.8873,2.8411,2.8411,2.8411,1.7365,0.0,0.0,2.0063,2.0526,0.0,2.3583,2.5019,2.5877,2.5879,2.5893,2.6062,2.6624,2.6722,2.6919,2.7509,2.765,2.7692,2.7692,2.8226,2.8605,2.8605,2.9153,2.9532,2.9532,2.9574,2.9602,2.9665,2.9602,2.9602,2.9665,2.9665,2.9713,2.9808,2.9808,2.9946,3.0111,3.0205,3.0205,3.0111,3.0111,2.9974,2.9808,2.9651,2.9602,2.9602,2.9602,2.9898,3.0372,3.0372,3.0673,3.1131,3.1087,3.0792,3.0433,3.0312,3.0021,2.9665,2.9602,2.9602,2.9602,2.9602,2.9602,2.9602,2.9602,2.9602,2.9602,2.9602,3.0208,3.0896,3.0955,3.1562,3.2063,3.1732,3.2074,3.2103,3.0991,3.0601,3.0304,2.9643,2.8965,2.8473,2.8411,2.8411,2.8411,2.8411,2.8411,2.8411,2.8411,2.8411,2.8411,2.8411,2.8411,2.8411,2.8411,2.8411,2.8411,2.8411,2.8444,2.8668,2.9074,2.87,2.8653,2.9166,2.9212,2.9212,2.9166,2.9212,2.9013,2.8541,2.8493,2.8493,1.6916,1.749,0.0,0.0,2.1468,2.2788,2.3878,2.4938,2.5712,2.5849,2.5893,2.5936,2.6062,2.609,2.6132,2.6287,2.6708,2.7017,2.7017,2.7565,2.7973,2.7973,2.8521,2.8886,2.8886,2.9321,2.9727,3.0144,2.9789,2.9789,3.0144,3.0144,3.0068,2.9808,3.0068,3.019,3.0266,3.0007,3.0007,3.0266,3.0007,2.9822,2.9808,2.9651,2.9602,2.9602,2.9602,3.0083,3.0851,3.0851,3.1364,3.2048,3.1667,3.1495,3.1321,3.0553,3.0266,3.0083,2.9727,2.9602,2.9602,2.9602,2.9602,2.9602,2.9602,2.9602,2.9602,2.9602,2.9906,3.0337,3.0837,3.0675,3.0524,3.1313,3.1958,3.2213,3.1428,3.1221,3.0982,3.0335,2.9658,2.9027,2.8488,2.8411,2.8411,2.8411,2.8411,2.8411,2.8411,2.8411,2.8411,2.8411,2.8411,2.8411,2.8411,2.8411,2.8411,2.8411,2.8748,2.8997,2.909,2.8997,2.9182,2.9617,2.9995,3.0011,2.9661,2.9995,2.9968,2.9499,2.9136,2.9136,1.6994,0.0,0.0,1.9964,0.0,2.3231,2.3765,2.4533,2.5214,2.5443,2.5883,2.615,2.5948,2.5893,2.5893,2.5893,2.616,2.6371,2.6371,2.6919,2.7312,2.7312,2.7874,2.8366,2.8661,2.897,2.9402,2.9931,2.9727,2.9713,3.0068,3.0068,3.0068,3.0068,3.0144,3.0266,3.0447,3.019,3.0129,3.0312,3.0129,2.9931,2.9808,2.9651,2.9602,2.9602,2.9851,3.0312,3.1029,3.1263,3.1781,3.2398,3.212,3.1781,3.1321,3.1087,3.0673,3.0266,3.0021,2.9974,2.9898,2.9665,2.9602,2.9602,2.9602,2.9602,2.9602,2.9602,3.0021,3.0469,3.0499,3.0563,3.0533,3.0452,3.1037,3.1427,3.0606,3.0689,3.0628,2.9643,2.9181,2.8827,2.8473,2.8411,2.8411,2.8411,2.8411,2.8411,2.8411,2.8411,2.8411,2.8411,2.8411,2.8411,2.8411,2.8411,2.8411,2.8411,2.8826,2.9212,2.9438,2.9645,2.9865,3.014,3.0393,3.0393,3.014,3.0393,3.0267,2.9793,2.9528,2.9572,0.0,0.0,1.8232,1.9964,2.164,0.0,2.3454,2.41,2.4694,2.4886,2.5675,2.6155,2.5873,2.5833,2.5875,2.5879,2.5893,2.5893,2.5893,2.6329,2.6652,2.6652,2.7228,2.7804,2.831,2.8464,2.8848,2.9638,2.9619,2.9723,3.0054,3.0054,3.0129,3.0266,3.0219,3.0355,3.0568,3.0433,3.0372,3.0326,3.0266,3.0129,2.987,2.9775,2.9727,2.9727,3.0144,3.0613,3.1146,3.1552,3.1951,3.2398,3.2342,3.1823,3.1263,3.1495,3.1087,3.0433,3.0312,3.0266,3.0144,2.9727,2.9602,2.9602,2.9602,2.9602,2.9602,2.9602,3.0093,3.0543,3.0059,3.0363,3.0523,2.9541,2.9894,3.0273,2.9541,2.9858,2.992,2.8796,2.8488,2.8411,2.8411,2.8411,2.8411,2.8411,2.8411,2.8411,2.8411,2.8411,2.8411,2.8411,2.8411,2.8411,2.8411,2.8411,2.8444,2.8541,2.8967,2.9438,2.9881,3.0351,3.0601,3.0601,3.0601,3.0601,3.0601,3.0601,3.0393,3.0027,2.9924,2.9924,0.0,0.0,1.9002,0.0,2.1197,2.2117,0.0,2.3834,2.4686,2.4366,2.4846,2.5325,2.5537,2.5535,2.5616,2.5863,2.5893,2.5893,2.5893,2.5964,2.602,2.602,2.6554,2.6975,2.7059,2.7565,2.8495,2.9914,2.9682,2.9914,3.1073,3.1102,3.0807,3.0172,3.0522,3.0582,3.0326,3.0703,3.0763,3.0568,3.028,3.0158,3.0251,3.019,3.0205,3.019,3.0251,3.0792,3.161,3.1667,3.1951,3.2342,3.1951,3.1951,3.2104,3.1379,3.1029,3.0851,3.0433,3.0021,2.9665,2.9602,2.9602,2.9602,2.9602,2.9602,2.9602,2.9602,2.9416,2.9298,2.9421,2.8872,2.8389,2.8783,2.8973,2.91,2.9342,2.9489,2.9489,2.9319,2.8812,2.8411,2.8411,2.8411,2.8411,2.8411,2.8411,2.8411,2.8411,2.8411,2.8411,2.8411,2.8411,2.8411,2.8411,2.8411,2.8573,2.8997,2.9438,2.9924,3.0393,3.0878,3.1112,3.1112,3.1015,3.0918,3.0918,3.0918,3.0878,3.0838,3.0435,3.0435,1.6142,1.7763,1.9272,0.0,2.1095,2.2161,2.2641,2.3522,2.4219,2.4262,2.4445,2.4777,2.5185,2.5567,2.585,2.5986,2.6332,2.6563,2.6563,2.6563,2.6563,2.6563,2.6594,2.6854,2.7501,2.7567,2.8095,2.9369,2.9778,3.0044,3.028,3.0526,3.0367,2.9748,2.9784,2.9985,3.0396,3.081,3.1174,3.1595,3.119,3.1014,3.1058,3.0777,3.0673,3.0732,3.097,3.1321,3.1724,3.1951,3.2231,3.2398,3.2176,3.2064,3.2007,3.1823,3.1422,3.1029,3.1087,3.0792,3.0312,3.0083,3.0021,2.996,2.9665,2.9602,2.9665,2.9898,3.0028,3.0102,3.0142,2.9769,2.9395,2.92,2.894,2.8783,2.8836,2.915,2.9304,2.8919,2.8611,2.8411,2.8411,2.8411,2.8411,2.8411,2.8411,2.8411,2.8411,2.8411,2.8411,2.8411,2.8411,2.8411,2.8411,2.8411,2.8621,2.909,2.9528,3.0011,3.0477,3.0958,3.1151,3.1112,3.1015,3.1015,3.1112,3.1032,3.1015,3.0975,3.0797,3.0797,0.0,0.0,1.898,1.9724,2.0837,2.1943,0.0,2.3262,2.3796,2.423,2.4302,2.4441,2.4836,2.5364,2.5771,2.5835,2.6409,2.6835,2.6835,2.7019,2.7122,2.7122,2.6811,2.6963,2.7777,2.754,2.7802,2.8857,2.9605,2.9878,2.9606,2.9944,2.9959,2.9463,2.9359,2.9719,3.0599,3.1095,3.1789,3.2547,3.2018,3.1792,3.1792,3.1407,3.1306,3.1364,3.161,3.1781,3.191,3.2231,3.2398,3.2398,3.2287,3.2064,3.191,3.212,3.1781,3.1204,3.1552,3.1379,3.0911,3.0433,3.0312,3.019,2.9727,2.9602,2.9665,3.0021,3.0437,3.0631,3.0223,3.0378,3.0379,2.9485,2.9042,2.8809,2.8452,2.8796,2.9012,2.8504,2.8411,2.8411,2.8411,2.8411,2.8411,2.8411,2.8411,2.8411,2.8411,2.8411,2.8411,2.8411,2.8411,2.8411,2.8411,2.8411,2.8668,2.9257,2.9617,3.0054,3.0642,3.1015,3.1151,3.1055,3.1015,3.1015,3.1112,3.1015,3.0975,3.0975,3.0975,3.0935,0.0,1.7136,0.0,1.9508,2.0181,2.0887,2.2475,2.3077,2.3492,2.4179,2.4302,2.4333,2.4353,2.4561,2.4851,2.5099,2.5732,2.6159,2.6159,2.6688,2.7122,2.7122,2.7071,2.7086,2.7181,2.7115,2.7617,2.8718,2.8861,2.9184,2.9856,3.0151,3.0083,2.9589,2.9955,3.0418,3.0952,3.1873,3.2555,3.2933,3.236,3.2099,3.2074,3.2074,3.2145,3.2272,3.1894,3.1951,3.2398,3.2398,3.2398,3.2342,3.1894,3.2007,3.2342,3.1894,3.1739,3.1682,3.1682,3.1379,3.0911,3.0433,3.0312,3.019,2.9727,2.9602,2.9602,2.9602,2.9834,2.9796,2.8813,2.9486,3.0134,2.9107,2.9093,2.9177,2.855,2.8427,2.8442,2.8411,2.8411,2.8411,2.8411,2.8411,2.8411,2.8411,2.8411,2.8411,2.8411,2.8411,2.8411,2.8411,2.8411,2.8411,2.8411,2.8411,2.8795,2.9722,2.981,3.0182,3.1112,3.119,3.119,3.119,3.1055,3.0975,3.0912,3.0975,3.0992,3.0912,3.0912,3.0831,0.0,0.0,0.0,1.8924,1.9923,2.0881,2.166,2.2256,2.284,2.3517,2.3656,2.3794,2.4225,2.4729,2.5118,2.5228,2.6197,2.6925,2.6925,2.75,2.7925,2.7925,2.7725,2.766,2.7925,2.771,2.7831,2.8488,2.9085,2.9322,2.9154,2.9567,2.9587,2.8989,2.9243,2.9859,3.0941,3.2231,3.2921,3.3072,3.2935,3.2888,3.2834,3.2492,3.2327,3.2398,3.2231,3.2231,3.2398,3.2398,3.2398,3.2398,3.2231,3.2231,3.2398,3.2231,3.1951,3.1724,3.2064,3.1838,3.1379,3.0911,3.0732,3.0613,2.9837,2.9789,3.0144,3.0433,3.0499,3.0462,3.0373,2.9958,2.937,2.8553,2.8556,2.8704,2.8458,2.875,2.8919,2.8488,2.8411,2.8411,2.8411,2.8411,2.8411,2.8411,2.8411,2.8411,2.8411,2.8411,2.8541,2.8826,2.8573,2.8541,2.8826,2.8873,2.9136,2.975,3.0097,3.0535,3.119,3.119,3.1151,3.1055,3.1112,3.1112,3.1072,3.0992,3.0912,3.0912,3.0814,3.0733,1.6219,0.0,0.0,0.0,1.9396,2.0255,2.1105,2.1624,2.2132,2.2825,2.2963,2.3163,2.384,2.4333,2.4718,2.4948,2.5949,2.6703,2.6703,2.7488,2.8057,2.8057,2.8015,2.8103,2.8348,2.8152,2.8103,2.8396,2.9007,2.9107,2.8657,2.9126,2.929,2.9033,2.9391,3.0016,3.0881,3.2368,3.3032,3.2934,3.3272,3.3346,3.315,3.2757,3.2523,3.2398,3.2398,3.2398,3.2398,3.2398,3.2398,3.2367,3.2136,3.2044,3.2044,3.2044,3.1894,3.1617,3.1949,3.1992,3.1807,3.1126,3.0968,3.0851,3.0083,2.996,3.0101,3.0351,3.0452,3.0473,3.051,2.9856,2.9101,2.8667,2.8642,2.8673,2.8458,2.8765,2.895,2.8488,2.8411,2.8411,2.8411,2.8411,2.8411,2.8411,2.8411,2.8411,2.8411,2.8525,2.8732,2.909,2.8967,2.9013,2.9303,2.9348,2.9528,3.0011,3.0351,3.0699,3.119,3.119,3.1151,3.1072,3.1151,3.119,3.119,3.1032,3.0912,3.0912,3.0831,3.0733,0.0,0.0,0.0,1.8212,1.8515,1.8991,2.0809,2.1275,2.1439,2.2117,2.2255,2.2471,2.3148,2.3271,2.3486,2.4164,2.4856,2.5318,2.5318,2.6503,2.7365,2.7365,2.795,2.835,2.835,2.8365,2.8381,2.8381,2.8396,2.8411,2.8411,2.8858,2.935,2.9858,3.0538,3.0849,3.0849,3.2303,3.2853,3.254,3.3243,3.3335,3.2834,3.285,3.2656,3.2336,3.2336,3.2336,3.2336,3.2382,3.2382,3.2305,3.1643,3.1366,3.1351,3.1351,3.1351,3.1351,3.1351,3.1782,3.2173,3.1036,3.0798,3.0852,3.0375,2.9964,2.9543,2.9342,2.9624,2.9773,2.8914,2.9012,2.9381,2.9381,2.9381,2.9196,2.855,2.8411,2.8411,2.8411,2.8411,2.8411,2.8411,2.8411,2.8411,2.8411,2.8411,2.8411,2.8411,2.8826,2.912,2.912,2.9528,2.981,2.9793,2.9793,3.0011,3.0477,3.0518,3.074,3.119,3.119,3.119,3.119,3.119,3.119,3.119,3.1055,3.0975,3.0912,3.0912,3.0831,1.612,0.0,0.0,0.0,0.0,0.0,1.9664,2.0227,2.0782,2.146,2.1599,2.1763,2.244,2.2563,2.2794,2.3471,2.4564,2.5318,2.5318,2.6087,2.6672,2.6672,2.6811,2.6919,2.6949,2.738,2.7673,2.7673,2.8134,2.8444,2.8605,2.9121,2.9531,2.9902,3.0097,3.0061,2.991,3.0842,3.1166,3.0862,3.1344,3.1522,3.1368,3.1192,3.1034,3.0966,3.0966,3.0966,3.1043,3.1997,3.2105,3.1643,3.1459,3.1089,3.0689,3.0689,3.0689,3.0689,3.0689,3.0812,3.083,3.0204,2.9978,2.9907,2.9189,2.9074,2.9145,2.88,2.8928,2.8959,2.8237,2.8377,2.8575,2.8328,2.8476,2.8642,2.8442,2.8411,2.8411,2.8411,2.8411,2.8411,2.8411,2.8411,2.8411,2.8411,2.8411,2.8411,2.8411,2.8826,2.9212,2.9572,2.9705,2.9924,3.0267,3.0309,3.0351,3.0477,3.0821,3.1055,3.119,3.119,3.119,3.119,3.119,3.119,3.119,3.1032,3.0935,3.0975,3.0975,3.0855,1.6478,1.668,1.6832,1.7621,0.0,0.0,1.9675,2.0061,2.0412,2.0813,2.089,2.1106,2.1747,2.187,2.2086,2.2763,2.3533,2.4256,2.481,2.5503,2.5949,2.5949,2.618,2.6364,2.638,2.6734,2.698,2.698,2.7427,2.7938,2.8556,2.8889,2.9255,2.971,2.9858,2.977,2.9515,3.0206,3.0433,3.0164,3.0613,3.0756,3.0603,3.0464,3.0428,3.0428,3.0428,3.0428,3.0489,3.1243,3.1336,3.0966,3.0674,3.0335,2.9997,2.9997,2.9997,2.9997,2.9997,3.0181,3.0314,2.9763,2.9645,2.9589,2.8876,2.8764,2.872,2.8443,2.8494,2.854,2.8145,2.8201,2.8348,2.8103,2.825,2.8411,2.8411,2.8411,2.8411,2.8411,2.8411,2.8411,2.8411,2.8411,2.8411,2.8411,2.8411,2.8411,2.8411,2.8967,2.9483,2.975,3.014,3.0493,3.0781,3.0781,3.0781,3.0781,3.1055,3.119,3.119,3.119,3.119,3.119,3.119,3.119,3.1112,3.0952,3.0912,3.0935,3.0975,3.0935,1.7085,1.7195,1.7456,1.8646,1.9111,0.0,2.0211,2.0345,2.0304,2.0304,2.0304,2.0489,2.109,2.1198,2.1393,2.207,2.2178,2.2624,2.3902,2.4671,2.5118,2.5195,2.5826,2.6272,2.6272,2.6349,2.6364,2.6272,2.6557,2.7146,2.8168,2.8259,2.859,2.9259,2.9484,2.956,2.9403,3.0014,3.021,3.0006,3.036,3.0421,3.0197,3.0197,3.0197,3.0197,3.0197,3.0197,3.0197,3.0197,3.0243,3.0243,2.9643,2.9366,2.9304,2.9304,2.9304,2.9304,2.9304,2.9689,3.0104,2.9504,2.9383,2.9485,2.9109,2.8671,2.8277,2.8145,2.8192,2.8348,2.8411,2.8411,2.8411,2.8411,2.8411,2.8411,2.8411,2.8411,2.8411,2.8411,2.8411,2.8411,2.8411,2.8411,2.8411,2.8411,2.8411,2.8396,2.8493,2.9227,2.9793,2.9881,3.0675,3.119,3.119,3.119,3.119,3.119,3.119,3.119,3.119,3.119,3.119,3.119,3.119,3.1151,3.1015,3.0952,3.0912,3.0912,3.0975,3.0975,1.7854,1.7822,1.7803,1.8455,1.9045,0.0,1.9669,2.0089,2.0426,2.0304,2.0304,2.035,2.0474,2.0505,2.072,2.1399,2.1486,2.1763,2.2563,2.3271,2.3887,2.4441,2.5102,2.5518,2.5518,2.6041,2.6149,2.5564,2.6262,2.6795,2.7008,2.7257,2.7476,2.7817,2.7859,2.8132,2.8606,2.8766,2.8984,2.9264,2.9171,2.909,2.9057,2.8879,2.8796,2.8796,2.8796,2.8796,2.8796,2.8796,2.9119,2.9597,2.9458,2.9089,2.8611,2.8611,2.8611,2.8611,2.8611,2.8688,2.8781,2.8642,2.8639,2.8599,2.8182,2.7964,2.7882,2.7865,2.7896,2.7989,2.8314,2.8411,2.8411,2.8411,2.8411,2.8411,2.8411,2.8411,2.8411,2.8411,2.8411,2.8411,2.8411,2.8411,2.8411,2.8411,2.8411,2.8541,2.8904,2.9438,2.9924,3.0309,3.0878,3.119,3.119,3.119,3.119,3.119,3.119,3.119,3.119,3.119,3.119,3.119,3.119,3.1151,3.1015,3.0975,3.0975,3.0975,3.1112,3.1112,1.8587,1.8619,1.8743,1.9452,2.0004,0.0,0.0,2.0476,2.0628,2.0561,2.046,2.0392,2.0392,2.0339,2.0412,2.0767,2.0813,2.0936,2.1275,2.244,2.3425,2.3763,2.4394,2.481,2.481,2.5133,2.5392,2.5478,2.559,2.5998,2.68,2.6746,2.6824,2.7201,2.7442,2.7618,2.7699,2.8049,2.8265,2.8418,2.8497,2.8573,2.8525,2.8444,2.8411,2.8411,2.8411,2.8411,2.8411,2.8411,2.8611,2.8904,2.8904,2.8704,2.8411,2.8411,2.8411,2.8411,2.8411,2.8411,2.8411,2.8411,2.8411,2.8299,2.794,2.779,2.779,2.779,2.794,2.8152,2.8348,2.8411,2.8411,2.8411,2.8411,2.8411,2.8411,2.8411,2.8411,2.8411,2.8411,2.8411,2.8411,2.8411,2.8411,2.8411,2.8411,2.8573,2.9044,2.9528,2.9968,3.0435,3.0918,3.119,3.119,3.119,3.119,3.119,3.119,3.119,3.119,3.119,3.119,3.119,3.1151,3.1112,3.1112,3.1015,3.1015,3.1015,3.1151,3.1112,1.929,1.9489,1.981,2.0685,2.1023,2.1119,0.0,0.0,0.0,2.0794,2.0662,2.0561,2.0561,2.046,2.0407,2.0407,2.0407,2.0407,2.0407,2.1867,2.2987,2.3086,2.381,2.4302,2.4302,2.4194,2.4493,2.5373,2.4766,2.502,2.6592,2.6176,2.6211,2.6783,2.7064,2.7105,2.6925,2.7438,2.7671,2.7651,2.7922,2.8121,2.8244,2.8211,2.8288,2.8411,2.8411,2.8411,2.8411,2.8411,2.8411,2.8411,2.8411,2.8411,2.8411,2.8411,2.8411,2.8411,2.8411,2.8411,2.8411,2.8411,2.8411,2.8348,2.7989,2.7905,2.7905,2.7905,2.8152,2.8411,2.8411,2.8411,2.8411,2.8411,2.8411,2.8411,2.8411,2.8411,2.8411,2.8411,2.8411,2.8411,2.8411,2.8411,2.8411,2.8411,2.8411,2.8621,2.9166,2.9572,3.0011,3.0576,3.0958,3.119,3.119,3.119,3.119,3.119,3.119,3.119,3.119,3.119,3.119,3.119,3.1095,3.1095,3.119,3.1095,3.1015,3.1015,3.1151,3.1151,1.9963,2.0353,2.0716,2.1135,2.1246,2.1262,2.1135,0.0,2.1038,2.0827,0.0,2.0761,2.0761,0.0,0.0,2.0728,2.0728,2.0728,2.0728,2.128,2.1864,2.237,2.3533,2.4302,2.4302,2.3763,2.3686,2.4421,2.3835,2.4035,2.5435,2.4863,2.5025,2.6088,2.5599,2.5783,2.6719,2.6551,2.6805,2.7444,2.7067,2.7205,2.7782,2.7581,2.7842,2.8411,2.8411,2.8411,2.8411,2.8411,2.8411,2.8411,2.8411,2.8411,2.8411,2.8411,2.8411,2.8411,2.8411,2.8411,2.8411,2.8411,2.8411,2.8411,2.8348,2.8348,2.8348,2.8348,2.8348,2.8411,2.8411,2.8411,2.8411,2.8411,2.8411,2.8411,2.8411,2.8411,2.8411,2.8411,2.8411,2.8411,2.8411,2.8411,2.8411,2.8411,2.8411,2.8716,2.9617,2.9766,3.014,3.1015,3.1151,3.119,3.119,3.119,3.119,3.119,3.119,3.119,3.119,3.119,3.119,3.119,3.119,3.119,3.119,3.119,3.119,3.119,3.119,3.119,2.0361,2.0579,2.0728,2.1183,2.1246,2.1199,2.1214,2.123,2.1183,2.1119,0.0,0.0,0.0,0.0,0.0,0.0,2.0794,2.0794,2.0794,2.0879,2.1144,2.1755,2.2624,2.3286,2.3686,2.3102,2.3317,2.4779,2.4024,2.4064,2.5443,2.5102,2.5092,2.5592,2.5438,2.5516,2.5899,2.6166,2.6397,2.6602,2.6803,2.6933,2.7112,2.7022,2.7319,2.7827,2.7827,2.8042,2.8411,2.8411,2.8411,2.8411,2.8411,2.8411,2.8411,2.8411,2.8411,2.8411,2.8411,2.8411,2.8411,2.8411,2.8411,2.8411,2.8411,2.8411,2.8411,2.8411,2.8411,2.8411,2.8411,2.8411,2.8411,2.8411,2.8411,2.8411,2.8411,2.8411,2.8411,2.8411,2.8411,2.8411,2.8411,2.8411,2.8411,2.8411,2.8411,2.8763,2.9661,2.9793,3.0156,3.1112,3.119,3.119,3.119,3.119,3.119,3.119,3.119,3.119,3.119,3.119,3.119,3.119,3.119,3.119,3.119,3.119,3.119,3.119,3.119,3.119,2.041,2.0628,2.0761,2.1183,2.123,2.1199,2.1277,2.1309,2.1309,2.1309,2.1214,0.0,0.0,0.0,2.0925,2.0925,0.0,2.0925,2.0925,2.0794,2.0816,2.1179,2.174,2.2346,2.3041,2.2523,2.2894,2.4709,2.3966,2.4076,2.5628,2.5401,2.5336,2.5582,2.5561,2.5448,2.5294,2.5711,2.5886,2.5724,2.6146,2.6408,2.6526,2.6526,2.6769,2.7211,2.7211,2.7442,2.7873,2.8057,2.8134,2.815,2.8334,2.8411,2.8411,2.8411,2.8411,2.8411,2.8411,2.8411,2.8411,2.8411,2.8411,2.8411,2.8411,2.8411,2.8411,2.8411,2.8411,2.8411,2.8411,2.8411,2.8411,2.8411,2.8411,2.8411,2.8411,2.8411,2.8411,2.8411,2.8411,2.8411,2.8411,2.8411,2.8411,2.8411,2.8493,2.8873,2.9722,2.9924,3.0309,3.1112,3.119,3.119,3.119,3.119,3.119,3.119,3.119,3.119,3.119,3.119,3.119,3.119,3.119,3.119,3.119,3.119,3.119,3.119,3.119,3.119,2.003,2.0579,2.1135,2.1246,2.1309,2.1277,2.1309,2.1309,2.1309,2.1309,2.1294,2.1277,2.1277,2.1294,2.1277,2.1277,2.1277,0.0,0.0,2.1167,2.0925,2.0592,2.1132,2.1797,2.2549,2.2117,2.2346,2.3569,2.3211,2.373,2.5597,2.524,2.5401,2.6246,2.5646,2.5294,2.5294,2.5116,2.5053,2.5037,2.4773,2.5133,2.604,2.604,2.6267,2.6723,2.6723,2.6605,2.6503,2.7149,2.7426,2.7503,2.815,2.8411,2.8411,2.8411,2.8411,2.8411,2.8411,2.8411,2.8411,2.8411,2.8411,2.8411,2.8411,2.8411,2.8411,2.8411,2.8411,2.8411,2.8411,2.8411,2.8411,2.8411,2.8411,2.8411,2.8411,2.8411,2.8411,2.8411,2.8411,2.8411,2.8411,2.8411,2.8411,2.8411,2.8779,2.9257,2.975,3.0182,3.0658,3.1151,3.119,3.119,3.119,3.119,3.119,3.119,3.119,3.119,3.119,3.119,3.119,3.119,3.119,3.119,3.119,3.119,3.119,3.119,3.119,3.119,2.0204,2.0494,2.0794,2.1087,2.1055,2.1023,2.1246,2.1309,2.1309,2.1309,2.1309,2.1309,2.1309,2.1309,2.1309,2.1309,2.1309,2.1309,0.0,2.1055,2.0794,2.0527,2.0832,2.1255,2.1817,2.1415,2.1623,2.2867,2.3022,2.3585,2.4664,2.5128,2.5522,2.5841,2.5615,2.5502,2.5502,2.541,2.541,2.541,2.5162,2.5171,2.5313,2.5152,2.5321,2.5759,2.5759,2.5993,2.6411,2.6626,2.6995,2.7411,2.7642,2.8011,2.8411,2.8411,2.8411,2.8411,2.8411,2.8411,2.8411,2.8411,2.8411,2.8411,2.8411,2.8411,2.8411,2.8411,2.8411,2.8411,2.8411,2.8411,2.8411,2.8411,2.8411,2.8411,2.8411,2.8411,2.8411,2.8411,2.8411,2.8411,2.8411,2.8411,2.8411,2.8411,2.8779,2.9257,2.975,3.0225,3.0699,3.1151,3.119,3.119,3.119,3.119,3.119,3.119,3.119,3.119,3.119,3.119,3.119,3.119,3.119,3.119,3.119,3.119,3.119,3.119,3.119,3.119,2.017,2.0376,2.0595,2.0893,2.0893,2.086,2.1151,2.123,2.123,2.123,2.1262,2.1246,2.1151,2.1214,2.1277,2.123,2.1262,2.1309,0.0,2.1119,2.0925,2.0794,2.0794,2.0901,2.1101,2.076,2.1015,2.2207,2.2623,2.3215,2.4063,2.5137,2.5675,2.5637,2.56,2.5751,2.601,2.5615,2.5538,2.5841,2.5406,2.5162,2.51,2.4831,2.4879,2.5033,2.5033,2.5253,2.5672,2.5903,2.6257,2.6703,2.7196,2.7657,2.8073,2.8319,2.8411,2.8411,2.8411,2.8411,2.8411,2.8411,2.8411,2.8411,2.8411,2.8411,2.8411,2.8411,2.8411,2.8411,2.8411,2.8411,2.8411,2.8411,2.8411,2.8411,2.8411,2.8411,2.8411,2.8411,2.8411,2.8411,2.8411,2.8411,2.8411,2.8411,2.892,2.9438,2.975,3.0368,3.0878,3.1151,3.119,3.119,3.119,3.119,3.119,3.119,3.119,3.119,3.119,3.119,3.119,3.119,3.119,3.119,3.119,3.119,3.119,3.119,3.119,3.119]},{"header":{"parameterUnit":"m.s-1","parameterCategory":1,"la1":30.6,"la2":29.2853,"lo1":-89.7004,"lo2":-87.6739,"dy":0.0162,"dx":0.0183,"nx":112,"ny":82,"refTime":"2024-07-27T12:00:00:Z","depth":0,"parameterNumber":3,"parameterNumberName":"V-component_of_WINDS"},"data":[0.0,0.0,0.0,0.0,0.0,0.0,0.0,0.0,0.0,0.0,0.0,0.0,0.0,0.0,0.0,0.0,0.0,0.0,0.0,0.0,0.0,0.0,0.0,0.0,0.0,0.0,0.0,0.0,0.0,0.0,0.0,0.0,0.0,0.0,0.0,0.0,0.0,0.0,0.0,0.0,0.0,0.0,0.0,0.0,0.0,0.0,0.0,0.0,0.0,0.0,0.0,0.0,0.0,0.0,0.0,0.0,0.0,0.0,0.0,0.0,0.0,0.0,0.0,0.0,0.0,0.0,0.0,0.0,0.0,0.0,0.0,0.0,0.0,0.0,0.0,0.0,0.0,0.0,0.0,0.0,0.0,0.0,0.0,0.0,0.0,0.0,0.0,0.0,0.0,0.0,-1.2562,-1.2752,-1.3703,-1.43,-1.43,-1.43,-1.3798,-1.2576,0.0,0.0,0.0,0.0,0.0,0.0,0.0,0.0,0.0,0.0,0.0,0.0,0.0,0.0,0.0,0.0,0.0,0.0,0.0,0.0,0.0,0.0,0.0,0.0,0.0,0.0,0.0,0.0,0.0,0.0,0.0,0.0,0.0,0.0,0.0,0.0,0.0,0.0,0.0,0.0,0.0,0.0,0.0,0.0,0.0,0.0,0.0,0.0,0.0,0.0,0.0,0.0,0.0,0.0,0.0,0.0,0.0,0.0,0.0,0.0,0.0,0.0,0.0,0.0,0.0,0.0,0.0,0.0,0.0,0.0,0.0,0.0,0.0,0.0,0.0,0.0,0.0,0.0,0.0,0.0,0.0,0.0,0.0,0.0,0.0,0.0,0.0,0.0,0.0,0.0,0.0,0.0,0.0,0.0,0.0,0.0,0.0,0.0,0.0,0.0,0.0,0.0,0.0,0.0,-1.2887,-1.392,-1.4192,-1.43,-1.43,-1.43,-1.3798,-1.2576,0.0,0.0,0.0,0.0,0.0,0.0,0.0,0.0,0.0,0.0,0.0,0.0,0.0,0.0,0.0,0.0,0.0,0.0,0.0,0.0,0.0,0.0,0.0,0.0,0.0,0.0,0.0,0.0,0.0,0.0,0.0,0.0,0.0,0.0,0.0,0.0,0.0,0.0,0.0,0.0,0.0,0.0,0.0,0.0,0.0,0.0,0.0,0.0,0.0,0.0,0.0,0.0,0.0,0.0,0.0,0.0,0.0,0.0,0.0,0.0,0.0,0.0,0.0,0.0,0.0,0.0,0.0,0.0,0.0,0.0,0.0,0.0,0.0,0.0,0.0,0.0,0.0,0.0,0.0,0.0,0.0,0.0,0.0,0.0,0.0,0.0,0.0,0.0,0.0,0.0,0.0,0.0,0.0,0.0,0.0,0.0,0.0,0.0,0.0,0.0,0.0,0.0,0.0,-1.2183,-1.2955,-1.4164,-1.43,-1.43,-1.43,-1.43,-1.3798,-1.2576,-1.1562,0.0,0.0,0.0,0.0,0.0,0.0,0.0,0.0,0.0,0.0,0.0,0.0,0.0,0.0,0.0,0.0,0.0,0.0,0.0,0.0,0.0,0.0,0.0,0.0,0.0,0.0,0.0,0.0,0.0,0.0,0.0,0.0,0.0,0.0,0.0,0.0,0.0,0.0,0.0,0.0,0.0,0.0,0.0,0.0,0.0,0.0,0.0,0.0,0.0,0.0,0.0,0.0,0.0,0.0,0.0,0.0,0.0,0.0,0.0,0.0,0.0,0.0,0.0,0.0,0.0,0.0,0.0,0.0,0.0,0.0,0.0,0.0,0.0,0.0,0.0,0.0,0.0,0.0,0.0,0.0,0.0,0.0,0.0,0.0,0.0,0.0,0.0,0.0,0.0,0.0,0.0,0.0,0.0,0.0,0.0,0.0,0.0,0.0,0.0,0.0,0.0,0.0,-1.2901,-1.3104,-1.4192,-1.43,-1.43,-1.43,-1.4164,-1.3635,-1.2562,-1.1374,0.0,0.0,0.0,0.0,0.0,0.0,0.0,0.0,0.0,0.0,0.0,0.0,0.0,0.0,0.0,0.0,0.0,0.0,0.0,0.0,0.0,0.0,0.0,0.0,0.0,0.0,0.0,0.0,0.0,0.0,0.0,0.0,0.0,0.0,0.0,0.0,0.0,0.0,0.0,0.0,0.0,0.0,0.0,0.0,0.0,0.0,0.0,0.0,0.0,0.0,0.0,0.0,0.0,0.0,0.0,0.0,0.0,0.0,0.0,0.0,0.0,0.0,0.0,0.0,0.0,0.0,0.0,0.0,0.0,0.0,0.0,0.0,0.0,0.0,0.0,0.0,0.0,0.0,0.0,0.0,0.0,0.0,0.0,0.0,0.0,0.0,0.0,0.0,0.0,0.0,0.0,0.0,0.0,0.0,0.0,0.0,0.0,0.0,0.0,0.0,0.0,0.0,-1.3009,-1.3595,-1.4232,-1.43,-1.43,-1.43,-1.3798,-1.3171,-1.2535,-1.0868,0.0,0.0,0.0,0.0,0.0,0.0,0.0,0.0,0.0,0.0,0.0,0.0,0.0,0.0,0.0,0.0,0.0,0.0,0.0,0.0,0.0,0.0,0.0,0.0,0.0,0.0,0.0,0.0,0.0,0.0,0.0,0.0,0.0,0.0,0.0,0.0,0.0,0.0,0.0,0.0,0.0,0.0,0.0,0.0,0.0,0.0,0.0,0.0,0.0,0.0,0.0,0.0,0.0,0.0,0.0,0.0,0.0,0.0,0.0,0.0,0.0,0.0,0.0,0.0,0.0,0.0,0.0,0.0,0.0,0.0,0.0,0.0,0.0,0.0,0.0,0.0,0.0,0.0,0.0,0.0,0.0,0.0,0.0,0.0,0.0,0.0,0.0,0.0,0.0,0.0,0.0,0.0,0.0,0.0,0.0,0.0,0.0,0.0,0.0,0.0,0.0,0.0,-1.2698,-1.3198,-1.4192,-1.43,-1.43,-1.43,-1.3757,-1.2984,-1.2007,0.0,0.0,0.0,0.0,0.0,0.0,0.0,0.0,0.0,0.0,0.0,0.0,0.0,0.0,0.0,0.0,0.0,0.0,0.0,0.0,0.0,0.0,0.0,0.0,0.0,0.0,0.0,0.0,0.0,0.0,0.0,0.0,0.0,0.0,0.0,0.0,0.0,0.0,0.0,0.0,0.0,0.0,0.0,0.0,0.0,0.0,0.0,0.0,0.0,0.0,0.0,0.0,0.0,0.0,0.0,0.0,0.0,0.0,0.0,0.0,0.0,0.0,0.0,0.0,0.0,0.0,0.0,0.0,0.0,0.0,0.0,0.0,0.0,0.0,0.0,0.0,0.0,0.0,0.0,0.0,0.0,0.0,0.0,0.0,0.0,0.0,0.0,0.0,0.0,0.0,0.0,0.0,0.0,0.0,0.0,0.0,0.0,0.0,0.0,0.0,0.0,0.0,-1.2237,-1.2819,-1.3405,-1.4205,-1.43,-1.43,-1.43,-1.3581,-1.2728,-1.1761,0.0,0.0,0.0,0.0,0.0,0.0,0.0,0.0,0.0,0.0,0.0,0.0,0.0,0.0,0.0,0.0,0.0,0.0,0.0,0.0,0.0,0.0,0.0,0.0,0.0,0.0,0.0,0.0,0.0,0.0,0.0,0.0,0.0,0.0,0.0,0.0,0.0,0.0,0.0,0.0,0.0,0.0,0.0,0.0,0.0,0.0,0.0,0.0,0.0,0.0,0.0,0.0,0.0,0.0,0.0,0.0,0.0,0.0,0.0,0.0,0.0,0.0,0.0,0.0,0.0,0.0,0.0,0.0,0.0,0.0,0.0,0.0,0.0,0.0,0.0,0.0,0.0,0.0,0.0,0.0,0.0,0.0,0.0,0.0,0.0,0.0,0.0,0.0,0.0,0.0,0.0,0.0,0.0,0.0,0.0,0.0,0.0,0.0,0.0,0.0,0.0,0.0,-1.2346,-1.3554,-1.4287,-1.43,-1.43,-1.43,-1.43,-1.3171,-1.232,0.0,0.0,0.0,0.0,0.0,0.0,0.0,0.0,0.0,0.0,0.0,0.0,0.0,0.0,0.0,0.0,0.0,0.0,0.0,0.0,0.0,0.0,0.0,0.0,0.0,0.0,0.0,0.0,0.0,0.0,0.0,0.0,0.0,0.0,0.0,0.0,0.0,0.0,0.0,0.0,0.0,0.0,0.0,0.0,0.0,0.0,0.0,0.0,0.0,0.0,0.0,0.0,0.0,0.0,0.0,0.0,0.0,0.0,0.0,0.0,0.0,0.0,0.0,0.0,0.0,0.0,0.0,0.0,0.0,0.0,0.0,0.0,0.0,0.0,0.0,0.0,0.0,0.0,0.0,0.0,0.0,0.0,0.0,0.0,0.0,0.0,0.0,0.0,0.0,0.0,0.0,0.0,0.0,0.0,0.0,0.0,0.0,0.0,0.0,0.0,0.0,0.0,0.0,-1.2291,-1.3171,-1.3839,-1.4246,-1.43,-1.43,-1.43,-1.3171,-1.2089,-1.1132,0.0,0.0,0.0,0.0,0.0,0.0,0.0,0.0,0.0,0.0,0.0,0.0,0.0,0.0,0.0,0.0,0.0,0.0,0.0,0.0,0.0,0.0,0.0,0.0,0.0,0.0,0.0,0.0,0.0,0.0,0.0,0.0,0.0,0.0,0.0,0.0,0.0,0.0,0.0,0.0,0.0,0.0,0.0,0.0,0.0,0.0,0.0,0.0,0.0,0.0,0.0,0.0,0.0,0.0,0.0,0.0,0.0,0.0,0.0,0.0,0.0,0.0,0.0,0.0,0.0,0.0,0.0,0.0,0.0,0.0,0.0,0.0,0.0,0.0,0.0,0.0,0.0,0.0,0.0,0.0,0.0,0.0,0.0,0.0,0.0,0.0,0.0,0.0,0.0,0.0,0.0,0.0,0.0,0.0,0.0,0.0,0.0,0.0,0.0,0.0,0.0,0.0,-1.2305,-1.3255,-1.3907,-1.4259,-1.43,-1.43,-1.43,-1.3418,-1.2388,-1.1253,0.0,0.0,0.0,0.0,0.0,0.0,0.0,0.0,0.0,0.0,0.0,0.0,0.0,0.0,0.0,0.0,0.0,0.0,0.0,0.0,0.0,0.0,0.0,0.0,0.0,0.0,0.0,0.0,0.0,0.0,0.0,0.0,0.0,0.0,0.0,0.0,0.0,0.0,0.0,0.0,0.0,0.0,0.0,0.0,0.0,0.0,0.0,0.0,0.0,0.0,0.0,0.0,0.0,0.0,0.0,0.0,0.0,0.0,0.0,0.0,0.0,0.0,0.0,0.0,0.0,0.0,0.0,0.0,0.0,0.0,0.0,0.0,0.0,0.0,0.0,0.0,0.0,0.0,0.0,0.0,0.0,0.0,0.0,0.0,0.0,0.0,0.0,0.0,0.0,0.0,0.0,0.0,0.0,0.0,0.0,0.0,0.0,0.0,0.0,0.0,0.0,0.0,-1.2346,-1.3554,-1.43,-1.43,-1.43,-1.43,-1.43,-1.3757,-1.2961,-1.1945,0.0,0.0,0.0,0.0,0.0,0.0,0.0,0.0,0.0,0.0,0.0,0.0,0.0,0.0,0.0,0.0,0.0,0.0,0.0,0.0,0.0,0.0,0.0,0.0,0.0,0.0,0.0,0.0,0.0,0.0,0.0,0.0,0.0,0.0,0.0,0.0,0.0,0.0,0.0,0.0,0.0,0.0,0.0,0.0,0.0,0.0,0.0,0.0,0.0,0.0,0.0,0.0,0.0,0.0,0.0,0.0,0.0,0.0,0.0,0.0,-1.2721,-1.2167,0.0,0.0,0.0,0.0,0.0,0.0,0.0,0.0,0.0,0.0,0.0,0.0,0.0,0.0,0.0,0.0,0.0,0.0,0.0,0.0,0.0,0.0,0.0,0.0,0.0,0.0,0.0,0.0,0.0,0.0,0.0,0.0,0.0,0.0,0.0,0.0,0.0,0.0,0.0,0.0,-1.24,-1.3554,-1.43,-1.43,-1.43,-1.43,-1.43,-1.3757,-1.2889,-1.1734,-1.0676,0.0,0.0,0.0,0.0,0.0,0.0,0.0,0.0,0.0,0.0,0.0,0.0,0.0,0.0,0.0,0.0,0.0,0.0,0.0,0.0,0.0,0.0,0.0,0.0,0.0,0.0,0.0,0.0,0.0,0.0,0.0,0.0,0.0,0.0,0.0,0.0,0.0,0.0,0.0,0.0,0.0,0.0,0.0,0.0,0.0,0.0,0.0,0.0,0.0,0.0,0.0,0.0,0.0,0.0,0.0,0.0,0.0,0.0,0.0,-1.4287,-1.3672,0.0,0.0,0.0,0.0,0.0,0.0,0.0,0.0,0.0,0.0,0.0,0.0,0.0,0.0,0.0,0.0,0.0,0.0,0.0,0.0,0.0,0.0,0.0,0.0,0.0,0.0,0.0,0.0,0.0,0.0,0.0,0.0,0.0,0.0,0.0,0.0,0.0,0.0,0.0,0.0,-1.2413,-1.3554,-1.43,-1.43,-1.43,-1.43,-1.43,-1.4015,-1.3492,-1.2747,-1.1632,0.0,0.0,0.0,0.0,0.0,0.0,0.0,0.0,0.0,0.0,0.0,0.0,0.0,0.0,0.0,0.0,0.0,0.0,0.0,0.0,0.0,0.0,0.0,0.0,0.0,0.0,0.0,0.0,0.0,0.0,0.0,0.0,0.0,0.0,0.0,0.0,0.0,0.0,0.0,0.0,0.0,0.0,0.0,0.0,0.0,0.0,0.0,0.0,0.0,0.0,0.0,0.0,0.0,-1.7421,-1.7719,-1.818,-1.7692,-1.7733,-1.8085,-1.6105,-1.563,-1.6159,-1.4653,0.0,0.0,0.0,0.0,0.0,0.0,0.0,0.0,0.0,0.0,0.0,0.0,0.0,0.0,0.0,0.0,0.0,0.0,0.0,0.0,0.0,0.0,-1.3898,-1.361,-1.448,-1.4938,-1.3442,0.0,0.0,0.0,0.0,0.0,0.0,0.0,0.0,0.0,0.0,0.0,-1.2589,-1.3622,-1.43,-1.43,-1.4365,-1.4397,-1.4397,-1.4447,-1.4329,-1.3997,-1.2892,-1.2035,0.0,0.0,0.0,0.0,0.0,0.0,0.0,0.0,0.0,0.0,0.0,0.0,0.0,0.0,0.0,0.0,0.0,0.0,0.0,0.0,0.0,0.0,0.0,0.0,0.0,0.0,0.0,0.0,0.0,0.0,0.0,0.0,-1.1804,-1.3025,0.0,0.0,0.0,0.0,0.0,0.0,0.0,0.0,0.0,0.0,0.0,0.0,0.0,-1.7448,-1.7529,-1.8154,-1.8493,-1.8589,-1.9076,-1.9388,-1.9456,-1.9374,-1.9388,-1.9442,-1.913,0.0,-1.6864,-1.662,0.0,0.0,0.0,0.0,0.0,0.0,0.0,0.0,0.0,0.0,0.0,0.0,0.0,0.0,0.0,0.0,0.0,0.0,0.0,0.0,0.0,0.0,-1.5422,-1.5379,-1.568,-1.5928,-1.5698,-1.4409,-1.3063,-1.2386,-1.2264,-1.221,0.0,0.0,0.0,0.0,0.0,0.0,-1.3283,-1.388,-1.43,-1.43,-1.4556,-1.4746,-1.4746,-1.4996,-1.4934,-1.4383,-1.3697,-1.3073,-1.2603,-1.1072,0.0,0.0,0.0,0.0,0.0,0.0,0.0,0.0,0.0,0.0,0.0,0.0,0.0,0.0,0.0,0.0,0.0,0.0,0.0,0.0,0.0,0.0,0.0,0.0,0.0,0.0,0.0,0.0,0.0,-1.198,-1.331,-1.3839,-1.4517,-1.4924,0.0,0.0,0.0,0.0,0.0,0.0,0.0,0.0,0.0,-1.7977,-1.8289,-1.8696,-1.9361,-1.9632,-1.9931,-2.0256,-2.0541,-2.0663,-2.0663,-2.0663,-2.0663,-2.0663,-2.0663,-2.0026,-1.894,-1.8275,-1.7841,-1.757,0.0,0.0,0.0,0.0,-1.7341,-1.7124,-1.7464,-1.725,-1.6665,-1.5687,0.0,0.0,0.0,0.0,0.0,0.0,0.0,-1.5364,-1.6035,-1.6467,-1.6744,-1.6901,-1.7031,-1.7014,-1.6688,-1.5983,-1.5141,-1.4205,-1.3744,-1.3418,-1.305,-1.2995,0.0,0.0,0.0,-1.3907,-1.3907,-1.4422,-1.4666,-1.4341,-1.4429,-1.4525,-1.4525,-1.4655,-1.4791,-1.4892,-1.4252,-1.3906,-1.391,-1.2697,-1.1852,0.0,0.0,0.0,0.0,0.0,0.0,0.0,0.0,0.0,0.0,0.0,0.0,0.0,0.0,0.0,0.0,0.0,0.0,0.0,0.0,0.0,0.0,0.0,0.0,0.0,0.0,0.0,0.0,-1.3717,-1.4816,-1.4965,-1.6064,-1.6729,0.0,0.0,0.0,0.0,0.0,0.0,-1.833,-1.8479,-1.8764,-1.9198,-1.9361,-1.9863,-2.0711,-2.0711,-2.0941,-2.1423,-2.1423,-2.1423,-2.1423,-2.1423,-2.1423,-2.1423,-2.1423,-2.1131,-2.063,-1.9646,-1.913,-1.901,-1.852,-1.8343,-1.8398,-1.8845,-1.8765,-1.8479,-1.9388,-1.9225,-1.8528,-1.7705,-1.7156,-1.6465,-1.4878,0.0,0.0,0.0,0.0,-1.7107,-1.786,-1.8064,-1.8093,-1.8302,-1.8343,-1.818,-1.7583,-1.7326,-1.6864,-1.5657,-1.506,-1.4626,-1.4178,-1.411,0.0,-1.411,-1.4477,-1.4761,-1.4761,-1.5006,-1.5053,-1.4572,-1.4543,-1.4574,-1.4574,-1.4686,-1.4996,-1.5507,-1.502,-1.4866,-1.5143,-1.4166,-1.3313,-1.2682,0.0,0.0,0.0,0.0,0.0,0.0,0.0,0.0,0.0,0.0,0.0,0.0,0.0,0.0,0.0,0.0,0.0,0.0,0.0,0.0,0.0,0.0,0.0,0.0,0.0,0.0,0.0,0.0,0.0,-1.6797,-1.7909,0.0,0.0,0.0,0.0,-1.8725,-1.9225,-1.9578,-1.9605,-2.0062,-2.0373,-2.04,-2.0989,-2.1315,-2.1369,-2.1369,-2.1396,-2.1423,-2.1423,-2.1423,-2.1423,-2.1423,-2.1423,-2.1423,-2.1423,-2.1396,-2.1328,-2.0657,-2.0134,-1.9646,-1.9619,-1.9605,-1.9605,-1.9646,-1.9632,-1.9619,-1.9686,-1.9686,-1.9646,-1.9578,-1.8983,-1.8186,-1.7709,-1.7609,0.0,0.0,-1.857,-1.9051,-1.9503,-1.9605,-1.9605,-1.9605,-1.9605,-1.9429,-1.8847,-1.8276,-1.7489,-1.6295,-1.605,-1.601,-1.5983,0.0,-1.5983,-1.5983,-1.601,-1.6023,-1.6023,-1.5535,-1.5203,-1.5176,-1.5227,-1.5269,-1.5269,-1.5769,-1.6139,-1.6166,-1.612,-1.6105,-1.6133,-1.5212,-1.4834,-1.5027,-1.2841,0.0,0.0,0.0,0.0,0.0,0.0,0.0,0.0,0.0,0.0,0.0,0.0,0.0,0.0,0.0,0.0,0.0,0.0,0.0,0.0,0.0,0.0,0.0,0.0,0.0,0.0,0.0,0.0,-1.8113,-1.8859,0.0,-1.9578,-1.9781,-2.0216,-2.0975,-2.1247,-2.1559,-2.1903,-2.2119,-2.2038,-2.1681,-2.1884,-2.1803,-2.1423,-2.1423,-2.1423,-2.1423,-2.1423,-2.1423,-2.1423,-2.1423,-2.1423,-2.1423,-2.1423,-2.1423,-2.1396,-2.1192,-2.0989,-2.0799,-2.0799,-2.0799,-2.0799,-2.0799,-2.0799,-2.0799,-2.0799,-2.0799,-2.0745,-2.0319,-1.9597,-1.8821,-1.8674,-1.8629,-1.8753,-1.9271,-1.972,-2.0113,-2.0657,-2.0528,-2.0183,-2.0183,-1.9958,-1.9632,-1.9415,-1.9198,-1.8805,-1.7977,-1.7204,-1.6688,-1.6688,-1.6688,-1.6688,-1.6688,-1.6688,-1.6688,-1.6688,-1.6485,-1.62,-1.582,-1.5462,-1.524,-1.524,-1.5256,-1.5314,-1.5314,-1.5667,-1.5868,-1.5868,-1.5768,-1.5331,-1.4575,-1.3313,-1.214,0.0,0.0,0.0,0.0,0.0,0.0,0.0,0.0,0.0,0.0,0.0,0.0,0.0,0.0,0.0,0.0,0.0,0.0,0.0,0.0,0.0,0.0,0.0,0.0,0.0,-1.7475,-1.871,-1.9293,-2.008,-2.0731,-2.105,-2.128,-2.1727,-2.2563,-2.2617,-2.2807,-2.3162,-2.3189,-2.2999,-2.2631,-2.2617,-2.2332,-2.1722,-2.1708,-2.1613,-2.1423,-2.1423,-2.1423,-2.1423,-2.1423,-2.1423,-2.1423,-2.1423,-2.1423,-2.1423,-2.1423,-2.1423,-2.1423,-2.1423,-2.1423,-2.1423,-2.1423,-2.1423,-2.1423,-2.1423,-2.1423,-2.1355,-2.0914,-2.0368,-1.9907,-1.9907,-1.9907,-1.994,-2.0374,-2.0624,-2.0887,-2.1328,-2.1077,-2.0779,-2.0779,-2.0555,-2.0229,-2.0026,-1.9985,-1.9809,-1.9198,-1.8275,-1.7529,-1.7326,-1.7299,-1.7299,-1.7299,-1.7299,-1.7299,-1.7299,-1.7122,-1.6851,-1.6457,-1.6096,-1.5763,-1.5521,-1.5457,-1.541,-1.5284,-1.5551,-1.5754,-1.5868,-1.5854,-1.5373,-1.4419,-1.3534,-1.2612,-1.1713,0.0,0.0,0.0,0.0,0.0,0.0,0.0,0.0,0.0,0.0,0.0,0.0,0.0,0.0,0.0,0.0,0.0,0.0,0.0,0.0,0.0,0.0,0.0,-1.7882,-1.8995,-1.9971,-2.0508,-2.164,-2.2346,-2.2359,-2.285,-2.3229,-2.3229,-2.3243,-2.3243,-2.3243,-2.3243,-2.3229,-2.3216,-2.3216,-2.2918,-2.2332,-2.2319,-2.202,-2.145,-2.1423,-2.1423,-2.1423,-2.1423,-2.1423,-2.1423,-2.1423,-2.1423,-2.1423,-2.1423,-2.1423,-2.1423,-2.1423,-2.1423,-2.1423,-2.1423,-2.1423,-2.1423,-2.1423,-2.1423,-2.1423,-2.1423,-2.1423,-2.1423,-2.1423,-2.1423,-2.1423,-2.1423,-2.1423,-2.1423,-2.1423,-2.1423,-2.1423,-2.1423,-2.1423,-2.126,-2.063,-2.0522,-2.0346,-1.9836,-1.9239,-1.867,-1.8018,-1.7909,-1.7896,-1.7882,-1.7882,0.0,-1.7882,-1.738,-1.7027,-1.7027,-1.7128,-1.6901,-1.6186,-1.6465,-1.6533,-1.62,-1.5883,-1.5839,-1.6166,-1.5496,-1.5023,-1.4818,-1.3496,-1.2946,-1.3084,0.0,0.0,0.0,0.0,0.0,0.0,0.0,0.0,0.0,0.0,0.0,0.0,0.0,0.0,0.0,0.0,0.0,0.0,0.0,0.0,0.0,-1.9086,-1.9619,-1.9737,-2.0473,-2.1328,-2.2322,-2.2728,-2.3094,-2.358,-2.3784,-2.4055,-2.4489,-2.453,-2.453,-2.453,-2.453,-2.4313,-2.3892,-2.3879,-2.358,-2.2931,-2.2536,-2.2224,-2.2061,-2.1627,-2.1423,-2.1423,-2.1423,-2.1423,-2.1423,-2.1423,-2.1423,-2.1423,-2.1423,-2.1423,-2.1423,-2.1423,-2.1423,-2.1423,-2.1423,-2.1423,-2.1423,-2.1423,-2.1423,-2.1423,-2.1423,-2.1423,-2.1423,-2.1423,-2.1423,-2.1423,-2.1423,-2.1423,-2.1423,-2.1423,-2.1423,-2.1423,-2.1423,-2.1423,-2.1369,-2.122,-2.1131,-2.1003,-2.0373,-2.0161,-1.9727,-1.8738,-1.8561,-1.8412,-1.795,-1.7882,-1.7882,-1.7882,-1.7746,-1.7638,-1.7638,-1.7287,-1.6959,-1.6757,-1.6436,-1.6126,-1.5854,-1.5743,-1.5739,-1.5839,-1.563,-1.5397,-1.5102,-1.4196,-1.355,0.0,0.0,0.0,0.0,0.0,0.0,0.0,0.0,0.0,0.0,0.0,0.0,0.0,0.0,0.0,0.0,0.0,0.0,0.0,0.0,0.0,0.0,-2.0749,-2.1402,-2.1916,-2.2065,-2.2536,-2.3446,-2.3554,-2.3784,-2.4435,-2.4489,-2.4639,-2.4978,-2.5005,-2.5005,-2.5005,-2.5005,-2.4842,-2.4503,-2.4489,-2.4204,-2.3554,-2.3241,-2.2807,-2.2305,-2.1952,-2.1654,-2.1423,-2.1423,-2.152,-2.1698,-2.152,-2.152,-2.1698,-2.1471,-2.1423,-2.1423,0.0,0.0,0.0,0.0,-2.1423,-2.1423,-2.1423,-2.1423,-2.1423,-2.1423,-2.1423,-2.1423,-2.1423,-2.1423,-2.1423,-2.1423,-2.1423,-2.1423,-2.1423,-2.1423,-2.1423,-2.1423,-2.1423,-2.1423,-2.1423,-2.1423,-2.1328,-2.0928,-2.086,0.0,-1.9673,-1.932,-1.8997,-1.8385,-1.8303,-1.8208,-1.7909,-1.7882,-1.7882,-1.7882,-1.7754,-1.7515,-1.7229,-1.6923,0.0,0.0,0.0,-1.6188,-1.5898,-1.5521,0.0,0.0,0.0,0.0,0.0,0.0,0.0,0.0,-1.4379,-1.4222,0.0,0.0,0.0,0.0,0.0,0.0,0.0,0.0,0.0,0.0,0.0,0.0,0.0,0.0,0.0,0.0,-2.1776,-2.2902,-2.4055,-2.3717,-2.3581,-2.4164,-2.4218,-2.4422,-2.4951,-2.5005,-2.5005,-2.5005,-2.5005,-2.5005,-2.5005,-2.5005,0.0,0.0,0.0,-2.4747,-2.4232,-2.415,-2.358,-2.2509,-2.2441,-2.2129,-2.1627,-2.1627,-2.1856,-2.23,-2.1821,-2.1856,-2.2286,-2.1739,-2.1477,-2.1423,-2.1423,-2.1423,-2.1423,-2.1423,-2.1423,-2.1423,-2.1423,0.0,0.0,-2.1423,-2.1423,-2.1423,-2.1505,-2.1464,-2.1423,-2.1505,-2.1464,-2.1423,-2.1423,-2.1423,-2.1423,-2.1423,-2.1423,-2.1423,-2.1423,-2.1423,-2.1423,-2.1423,-2.1423,-2.1247,-2.0671,-2.0161,-1.9591,-1.901,-1.8847,-1.8616,-1.8086,-1.7923,-1.7882,-1.7882,-1.8214,0.0,-1.759,-1.759,-1.749,-1.7082,-1.7112,-1.6905,-1.6314,-1.5548,-1.5211,-1.5453,-1.5636,-1.6219,-1.7256,-1.7527,-1.7859,-1.8127,-1.5573,-1.5337,0.0,0.0,0.0,0.0,0.0,0.0,0.0,0.0,0.0,0.0,0.0,0.0,0.0,0.0,0.0,-2.2901,-2.3491,-2.4015,-2.4734,-2.4747,-2.4706,-2.4815,-2.4842,-2.4883,-2.4991,-2.5005,-2.5005,-2.5005,-2.5005,-2.5005,-2.5005,-2.5005,-2.5005,-2.5005,-2.5005,-2.4951,-2.4842,-2.4354,-2.4001,-2.377,-2.3229,0.0,-2.2837,-2.2837,-2.2888,-2.2992,-2.2888,-2.294,-2.2951,-2.2396,-2.1857,-2.1423,-2.1423,-2.1423,-2.1423,-2.1423,-2.1423,-2.1423,-2.1423,-2.1423,-2.1423,-2.1423,-2.1423,-2.1505,-2.1993,-2.1803,0.0,-2.1993,-2.1789,-2.1423,-2.1423,-2.1423,-2.1423,-2.1423,-2.1423,-2.1423,-2.1423,-2.1423,-2.1423,-2.1423,-2.1423,-2.1382,-2.1274,-2.0725,-2.0188,-1.9605,-1.9089,-1.8765,-1.8657,-1.8221,-1.7882,-1.7882,-1.7963,-1.7948,-1.7825,-1.7932,-1.7834,-1.7452,-1.717,-1.7155,-1.7451,-1.7215,-1.7219,-1.7593,-1.7654,-1.7606,-1.7522,-1.7896,-1.8035,-1.7917,-1.7125,-1.7146,0.0,0.0,0.0,0.0,0.0,0.0,0.0,0.0,0.0,0.0,0.0,-2.1156,-2.1693,0.0,-2.3076,-2.3826,-2.4273,-2.4666,-2.4964,-2.5005,-2.5005,-2.5005,-2.5005,-2.5005,-2.5005,-2.5005,-2.5005,-2.5005,-2.5005,-2.5005,-2.5005,-2.5005,-2.5005,-2.5005,-2.5005,-2.5005,-2.5005,-2.4706,-2.4422,-2.4123,-2.3757,-2.3473,-2.3189,-2.3189,-2.3332,-2.3527,-2.328,-2.3332,-2.3499,-2.2992,-2.259,-2.2282,-2.2282,-2.1903,-2.1423,-2.1423,-2.1423,-2.1423,-2.1423,-2.1423,-2.1423,-2.1423,-2.1613,-2.1925,-2.221,-2.2319,-2.2319,-2.2305,-2.2088,-2.1789,-2.1505,-2.1423,-2.1423,-2.1423,-2.1423,-2.1423,-2.1423,-2.1423,-2.1423,-2.1423,-2.1423,-2.1423,-2.1423,-2.1131,-2.0738,-2.0202,-1.9849,-1.9551,-1.9266,-1.8738,-1.8371,-1.8371,-1.8099,-1.7882,-1.7882,-1.7951,-1.7988,-1.8012,-1.7642,-1.759,-1.7934,-1.7704,-1.7612,-1.7602,-1.8208,-1.8275,-1.7841,-1.8605,-1.8798,-1.852,-1.8431,-1.8376,0.0,0.0,0.0,0.0,0.0,0.0,0.0,-2.0117,-2.0597,-2.1354,-2.2164,-2.2831,-2.3105,-2.392,-2.4521,-2.43,-2.4693,-2.5005,-2.5005,-2.5005,-2.5005,-2.5005,-2.5005,-2.5005,-2.5005,-2.5005,-2.5005,-2.5005,-2.5005,-2.5005,-2.5005,-2.5005,-2.5005,-2.5005,-2.5005,-2.5005,-2.5005,-2.5005,-2.4774,-2.4286,-2.4286,-2.4042,-2.3527,-2.3527,-2.3779,-2.4066,-2.3726,-2.371,-2.3885,-2.3562,-2.3297,-2.3189,-2.3189,-2.2593,-2.1776,-2.1776,-2.1776,-2.1776,-2.1776,-2.1776,-2.1776,-2.1776,-2.2101,-2.2509,-2.2617,-2.2929,-2.3107,-2.2766,-2.2576,-2.2346,-2.1749,-2.1586,-2.1572,-2.145,-2.1423,-2.1423,-2.1423,-2.1423,-2.1423,-2.1423,-2.1423,-2.1423,-2.1423,-2.1423,-2.1247,-2.0738,-2.0562,-2.0319,-1.9917,-1.932,-1.8942,-1.882,-1.8371,-1.8045,-1.8003,-1.7963,-1.8109,-1.8592,-1.8189,-1.8007,-1.8289,-1.7953,-1.7675,-1.7395,-1.8372,-1.8617,-1.8187,-1.9133,-1.931,-1.8836,-1.9139,-1.9049,-1.9009,-2.0119,-2.109,-2.109,-2.1963,-2.3163,0.0,-2.4245,-2.4,-2.4258,-2.4026,-2.3811,-2.3945,-2.4082,-2.4327,-2.4815,-2.4964,-2.5005,-2.5005,-2.5005,-2.5005,-2.5005,-2.5005,-2.5005,-2.5005,-2.5005,-2.5005,-2.5005,-2.5005,-2.5005,-2.5005,-2.5005,-2.5005,-2.5005,-2.5005,-2.5005,-2.5005,-2.5005,-2.4978,-2.491,-2.491,-2.4869,-2.4815,-2.4815,-2.4815,-2.4857,-2.4801,-2.4503,-2.4069,-2.4015,-2.3662,-2.3189,-2.3189,-2.3107,-2.2986,-2.2986,-2.2986,-2.2986,-2.2986,-2.2986,-2.2986,-2.2986,-2.3026,-2.3175,-2.3757,-2.3554,-2.3283,-2.3797,-2.3486,-2.2945,-2.2373,-2.221,-2.2074,-2.1545,-2.1423,-2.1423,-2.1423,-2.1423,-2.1423,-2.1423,-2.1423,-2.1423,-2.1423,-2.1423,-2.1396,-2.1328,-2.082,-2.0468,-2.04,-1.9944,-1.9374,-1.8874,-1.8752,-1.8645,-1.8439,-1.8109,-1.8228,-1.8988,-1.8333,-1.824,-1.8962,-1.8608,-1.8527,-1.8846,-1.8993,-1.8873,-1.844,-1.8945,-1.8721,-1.7868,-1.8602,-1.8869,-2.1209,-2.153,-2.1644,-2.239,-2.2787,-2.3171,-2.3768,-2.4014,-2.4134,-2.4367,-2.4982,-2.536,-2.475,-2.5148,-2.5488,-2.5077,-2.5005,-2.5005,-2.5005,-2.5005,-2.5005,-2.5005,-2.5005,-2.5005,-2.5005,-2.5005,-2.5005,-2.5005,-2.5005,-2.5005,-2.5005,-2.5005,-2.5005,-2.5005,-2.5005,-2.5168,-2.552,-2.5181,-2.5181,-2.552,-2.5168,-2.5005,-2.5005,-2.5005,-2.5005,-2.5005,-2.5005,-2.4869,-2.4639,-2.4639,-2.4489,-2.4272,-2.4272,-2.4272,-2.4177,-2.3446,-2.3189,-2.3189,-2.3189,-2.3189,-2.3189,-2.3189,-2.3419,-2.3744,-2.4042,-2.4191,-2.4245,-2.415,-2.3947,-2.3554,-2.2958,-2.2848,-2.278,-2.2485,-2.2196,-2.1925,-2.1925,-2.1667,-2.1423,-2.1423,-2.1423,-2.1423,-2.1423,-2.1423,-2.1423,-2.1423,-2.122,-2.0996,-2.0996,-2.0495,-1.9958,-1.9374,-1.9024,-1.8781,-1.8686,-1.8194,-1.8029,-1.8372,-1.8069,-1.8043,-1.8372,-1.8475,-1.8475,-1.8411,-1.8874,-1.8798,-1.8135,-1.8798,-1.8644,-1.7842,-1.8563,-1.864,-2.2469,-2.2481,-2.2402,-2.3493,-2.3821,-2.3883,-2.4077,-2.4369,-2.4643,-2.4787,-2.5582,-2.6,-2.516,-2.5687,-2.5946,-2.5104,-2.5005,-2.5005,-2.5005,-2.5005,-2.5005,-2.5005,-2.5005,-2.5073,-2.5236,-2.51,-2.5073,-2.5236,-2.5249,-2.5331,-2.5493,-2.5507,-2.5507,-2.5507,-2.5507,-2.571,-2.6145,-2.5724,-2.5724,-2.6145,-2.5548,-2.5249,-2.5236,-2.5086,-2.5005,-2.5005,-2.5005,-2.5005,-2.5005,-2.5005,-2.5005,-2.5005,-2.5005,-2.5005,-2.4896,-2.4042,-2.3676,-2.3676,-2.3676,-2.3676,-2.3676,-2.3676,-2.4015,-2.4367,-2.4367,-2.4666,-2.4924,-2.4489,-2.4367,-2.4232,-2.3581,-2.3432,-2.3392,-2.3229,-2.2888,-2.2563,-2.2563,-2.2224,-2.1925,-2.1925,-2.1776,-2.1667,-2.1667,-2.1532,-2.1423,-2.1423,-2.1423,-2.1423,-2.1423,-2.0847,-2.0332,-1.9971,-1.9388,-1.9065,-1.9065,-1.8521,-1.8167,-1.8167,-1.7977,-1.7882,-1.7882,-1.8175,-1.8214,-1.7922,-1.845,-1.8489,-1.7882,-1.8489,-1.845,-1.7922,-1.8383,-1.8305,-2.168,-2.2483,-2.3612,-2.4283,-2.5448,-2.6564,-2.7116,-2.6907,-2.662,-2.6649,-2.5783,-2.5061,-2.5005,-2.5005,-2.5061,-2.5005,-2.5005,-2.5005,-2.5005,-2.5005,-2.5005,-2.5005,-2.5005,-2.5236,-2.5805,-2.5344,-2.5236,-2.5819,-2.586,-2.6131,-2.6742,-2.6769,-2.6769,-2.6769,-2.6769,-2.6769,-2.6796,-2.6769,-2.6769,-2.6796,-2.6158,-2.586,-2.5846,-2.5276,-2.5005,-2.5005,-2.5005,-2.5005,-2.5005,-2.5005,-2.5005,-2.5005,-2.5005,-2.5005,-2.5005,-2.4964,-2.4951,-2.4951,-2.4951,-2.4951,-2.4951,-2.4951,-2.4964,-2.4978,-2.4978,-2.4991,-2.5005,-2.4991,-2.4978,-2.4842,-2.4245,-2.4096,-2.396,-2.3324,-2.3175,-2.3162,-2.3162,-2.3148,-2.3134,-2.3134,-2.2698,-2.2278,-2.2278,-2.1803,-2.1423,-2.1423,-2.1423,-2.1423,-2.1423,-2.0847,-2.0481,-2.0468,-1.9999,-1.9673,-1.9673,-1.9103,-1.8779,-1.8779,-1.8235,-1.7882,-1.7882,-1.7922,-1.7922,-1.7882,-1.7922,-1.7922,-1.7882,-1.7922,-1.7922,-1.7882,-1.7922,-1.7842,-2.3278,-2.36,-2.3853,-2.4525,-2.4807,-2.5089,-2.5657,-2.5711,-2.5577,-2.5577,-2.5605,-2.5453,-2.5061,-2.5342,-2.5453,-2.5061,-2.5005,-2.5005,-2.5005,-2.5005,-2.5005,-2.5005,-2.5344,-2.567,-2.5873,-2.5344,-2.5426,-2.643,-2.6131,-2.6158,-2.6796,-2.6823,-2.6823,-2.6823,-2.6823,-2.7013,-2.7406,-2.7026,-2.7026,-2.7406,-2.6796,-2.6294,-2.5873,-2.5683,-2.5385,-2.5005,-2.5005,-2.5005,-2.5032,-2.5426,-2.5602,-2.5629,-2.605,-2.6212,-2.6172,-2.5738,-2.5602,-2.5534,-2.5141,-2.5005,-2.5005,-2.5005,-2.5005,-2.5005,-2.5005,-2.5005,-2.5005,-2.5005,-2.5005,-2.4951,-2.4761,-2.4706,-2.4666,-2.4462,-2.4109,-2.3771,-2.3771,-2.3459,-2.3189,-2.3189,-2.3013,-2.2793,-2.2373,-2.2142,-2.1871,-2.1477,-2.1423,-2.1423,-2.1423,-2.1247,-2.1077,-2.1077,-2.0562,-2.021,-2.021,-1.9714,-1.9388,-1.9388,-1.8805,-1.8507,-1.8507,-1.8126,-1.7882,-1.7882,-1.7882,-1.7882,-1.7882,-1.7882,-1.7882,-1.7882,-1.7801,-1.7801,-2.4131,-2.4134,-2.4097,-2.5199,-2.5247,-2.5213,-2.5753,-2.5892,-2.5781,-2.5354,-2.5765,-2.5941,-2.5021,-2.5294,-2.5448,-2.4998,-2.4968,-2.5086,-2.529,-2.552,-2.5656,-2.5656,-2.5995,-2.6307,-2.6524,-2.6009,-2.6063,-2.7067,-2.6769,-2.6809,-2.742,-2.7447,-2.7447,-2.7447,-2.7447,-2.7637,-2.8017,-2.7651,-2.7542,-2.7705,-2.7325,-2.6823,-2.6226,-2.6226,-2.6022,-2.5656,-2.5656,-2.5656,-2.5683,-2.6063,-2.6226,-2.6267,-2.666,-2.6823,-2.6769,-2.6375,-2.6226,-2.6104,-2.529,-2.5005,-2.5005,-2.5005,-2.5005,-2.5005,-2.5005,-2.5005,-2.5005,-2.5005,-2.5005,-2.5005,-2.5005,-2.5005,-2.5005,-2.5005,-2.4706,-2.4435,-2.4435,-2.4137,-2.3865,-2.3865,-2.3649,-2.3418,-2.3024,-2.259,-2.2169,-2.1789,-2.1559,-2.1423,-2.1423,-2.1423,-2.1423,-2.1423,-2.1023,-2.0806,-2.0806,-2.0324,-1.9999,-1.9999,-1.9429,-1.9103,-1.9103,-1.8737,-1.8533,-1.8533,-1.8533,-1.8533,-1.8533,-1.8533,-1.8411,-1.8208,-1.8341,-1.8328,-2.4258,-2.4132,-2.4325,-2.6179,-2.6625,-2.673,-2.7246,-2.7333,-2.6973,-2.585,-2.6104,-2.6118,-2.4797,-2.4782,-2.4896,-2.4766,-2.4902,-2.5263,-2.586,-2.6457,-2.6823,-2.6823,-2.685,-2.7094,-2.7651,-2.723,-2.7162,-2.7759,-2.7732,-2.7963,-2.856,-2.8587,-2.8587,-2.8587,-2.8587,-2.8587,-2.8587,-2.8587,-2.8302,-2.7759,-2.7759,-2.7447,-2.6877,-2.6877,-2.685,-2.6823,-2.6823,-2.6823,-2.6823,-2.685,-2.6877,-2.6877,-2.6904,-2.6918,-2.6918,-2.6877,-2.6877,-2.6701,-2.5507,-2.51,-2.51,-2.51,-2.5073,-2.5059,-2.5059,-2.5032,-2.5005,-2.5005,-2.5005,-2.5005,-2.5005,-2.5005,-2.5005,-2.5005,-2.5005,-2.5005,-2.5005,-2.5005,-2.5005,-2.5005,-2.453,-2.4123,-2.4123,-2.3133,-2.2359,-2.2359,-2.1844,-2.145,-2.1423,-2.1423,-2.1423,-2.1423,-2.1423,-2.1423,-2.1423,-2.086,-2.0535,-2.0535,-2.0053,-1.9741,-1.9741,-1.9714,-1.97,-1.97,-1.97,-1.97,-1.97,-1.97,-1.9402,-1.8874,-1.9429,-1.9374,-2.5316,-2.5506,-2.5486,-2.5957,-2.5756,-2.5481,-2.5632,-2.5284,-2.4868,-2.4555,-2.418,-2.3688,-2.3031,-2.3576,-2.4146,-2.4244,-2.5034,-2.5887,-2.6497,-2.6714,-2.6823,-2.6823,-2.7216,-2.7542,-2.7691,-2.7976,-2.8383,-2.898,-2.8207,-2.7963,-2.856,-2.8587,-2.8587,-2.8587,-2.8587,-2.8587,-2.8587,-2.8587,-2.8519,-2.837,-2.837,-2.8058,-2.7488,-2.7488,-2.7244,-2.6823,-2.6823,-2.6823,-2.685,-2.7311,-2.7488,-2.7528,-2.7976,-2.8139,-2.8085,-2.7651,-2.7488,-2.7379,-2.6619,-2.6362,-2.6362,-2.6362,-2.605,-2.567,-2.567,-2.5358,-2.5005,-2.5005,-2.5005,-2.5005,-2.5005,-2.5005,-2.5005,-2.5005,-2.5005,-2.5005,-2.5005,-2.5005,-2.5005,-2.5005,-2.453,-2.4123,-2.4123,-2.3446,-2.2945,-2.2945,-2.2481,-2.1925,-2.1477,-2.1423,-2.1423,-2.1423,-2.1423,-2.1423,-2.1423,-2.1287,-2.1192,-2.1192,-2.0603,-2.0278,-2.0278,-1.9917,-1.97,-1.97,-1.97,-1.97,-1.97,-1.97,-1.9619,-1.9469,-1.9516,-1.9503,-2.5601,-2.5788,-2.5743,-2.5839,-2.5674,-2.526,-2.4708,-2.4521,-2.4203,-2.3342,-2.3212,-2.3054,-2.2403,-2.3136,-2.3815,-2.3928,-2.5039,-2.6104,-2.6742,-2.7271,-2.7596,-2.7596,-2.7895,-2.8085,-2.8085,-2.8627,-2.9116,-2.9442,-2.8627,-2.8356,-2.894,-2.8736,-2.8587,-2.8587,-2.8587,-2.8587,-2.8587,-2.8587,-2.8587,-2.8587,-2.8587,-2.841,-2.8085,-2.8085,-2.7908,-2.7596,-2.7596,-2.7596,-2.7623,-2.7963,-2.8085,-2.8125,-2.8465,-2.8587,-2.8546,-2.822,-2.8085,-2.8058,-2.7718,-2.7596,-2.7515,-2.6986,-2.6592,-2.6294,-2.6294,-2.5873,-2.5385,-2.5385,-2.5208,-2.5005,-2.5005,-2.5005,-2.5005,-2.5005,-2.5005,-2.5005,-2.5005,-2.5005,-2.5005,-2.5005,-2.4747,-2.4503,-2.4503,-2.4015,-2.3568,-2.3568,-2.2875,-2.2183,-2.1857,-2.1572,-2.1423,-2.1423,-2.1423,-2.1423,-2.1423,-2.1423,-2.1423,-2.1423,-2.1063,-2.0874,-2.0874,-2.0623,-2.046,-2.046,-2.046,-2.046,-2.046,-2.046,-2.0324,-2.008,-2.0232,-2.0251,-2.5576,-2.555,-2.555,-2.5839,-2.5783,-2.5404,-2.4278,-2.4269,-2.3941,-2.2162,-2.2511,-2.2862,-2.2,-2.2669,-2.3357,-2.3502,-2.4732,-2.5955,-2.6823,-2.7827,-2.8505,-2.8587,-2.8587,-2.8587,-2.8587,-2.9048,-2.9387,-2.9469,-2.8926,-2.8845,-2.9442,-2.898,-2.8668,-2.8587,-2.8587,-2.8587,-2.8587,-2.8587,-2.8587,-2.8587,-2.8587,-2.8587,-2.8587,-2.8587,-2.8587,-2.8587,-2.8587,-2.8587,-2.8587,-2.8587,-2.8587,-2.8587,-2.8587,-2.8587,-2.8587,-2.8587,-2.8587,-2.8587,-2.8587,-2.8587,-2.8424,-2.7393,-2.6999,-2.6945,-2.6945,-2.6511,-2.6009,-2.6009,-2.5575,-2.5127,-2.5127,-2.5059,-2.5005,-2.5005,-2.5005,-2.5005,-2.5005,-2.5005,-2.5005,-2.5005,-2.5005,-2.5005,-2.5005,-2.4584,-2.4245,-2.4245,-2.3268,-2.2509,-2.2441,-2.1844,-2.1423,-2.1423,-2.1361,-2.1313,-2.1423,-2.1361,-2.1313,-2.1423,-2.1423,-2.1423,-2.1423,-2.1423,-2.1423,-2.1423,-2.1423,-2.1423,-2.1423,-2.1423,-2.1104,-2.0617,-2.1131,-2.109,-2.5966,-2.5853,-2.555,-2.5839,-2.5135,-2.4299,-2.3923,-2.2928,0.0,-2.1338,-2.0642,-1.999,-1.9475,-2.0203,-2.1268,-2.2358,-2.3605,-2.5168,-2.7257,-2.7732,-2.8044,-2.8532,-2.8587,-2.8587,-2.8587,-2.8682,-2.894,-2.9442,-2.8926,-2.8845,-2.9442,-2.9374,-2.9102,-2.8614,-2.8587,-2.8587,-2.8587,-2.8587,-2.8587,-2.8587,-2.8587,-2.8587,-2.8587,-2.8587,-2.8587,-2.8587,-2.8587,-2.8587,-2.8587,-2.8587,-2.8587,-2.8587,-2.8587,-2.8587,-2.8587,-2.8587,-2.8587,-2.8587,-2.8587,-2.8587,-2.856,-2.8356,-2.7949,-2.7556,-2.7556,-2.7135,-2.666,-2.666,-2.6212,-2.5738,-2.5738,-2.5371,-2.5005,-2.5005,-2.5005,-2.5005,-2.5005,-2.5005,-2.5005,-2.5005,-2.5005,-2.5005,-2.5005,-2.4924,-2.4842,-2.4842,-2.4259,-2.3635,-2.308,-2.2051,-2.1423,-2.1423,-2.1104,-2.1055,-2.1361,-2.1104,-2.1068,-2.1375,-2.1423,-2.1423,-2.1423,-2.1423,-2.1423,-2.1423,-2.1423,-2.1423,-2.1423,-2.1423,-2.1369,-2.1274,-2.1369,-2.1355,-2.4996,-2.5071,-2.5052,-2.5146,-2.4654,-2.3851,-2.2803,0.0,0.0,-1.9922,-1.9332,-1.8925,-1.8925,-1.9712,-2.0508,-2.1144,-2.2333,-2.3906,-2.6009,-2.6565,-2.7216,-2.8451,-2.8872,-2.8926,-2.8627,-2.9442,-2.9984,-2.9957,-3.0269,-3.0174,-2.9509,-2.9184,-2.8885,-2.86,-2.8587,-2.8587,-2.8587,-2.8587,-2.8587,-2.8587,-2.8587,-2.8587,-2.8587,-2.8587,-2.8587,-2.8587,-2.8587,-2.8587,-2.8587,-2.8587,-2.8587,-2.8587,-2.8587,-2.8587,-2.8587,-2.8587,-2.8587,-2.8587,-2.8587,-2.8587,-2.8587,-2.8587,-2.8397,-2.8166,-2.8166,-2.7759,-2.7284,-2.7284,-2.6606,-2.5887,-2.5887,-2.5453,-2.5005,-2.5005,-2.5005,-2.5005,-2.5005,-2.5005,-2.5005,-2.5005,-2.5005,-2.4948,-2.465,-2.4835,-2.4948,-2.465,-2.4099,-2.3619,-2.3338,-2.2313,-2.1495,-2.1135,-2.0908,-2.0809,-2.0772,-2.0809,-2.0908,-2.1055,-2.1104,-2.1166,-2.1375,-2.1423,-2.1423,-2.1423,-2.1215,-2.1215,-2.1423,-2.097,-2.0871,-2.1104,-2.1104,-2.1104,-2.4156,-2.4445,-2.469,-2.4721,-2.434,-2.3591,-2.1888,-2.0914,-1.9966,-1.8747,-1.8436,-1.8475,-1.8798,-1.9371,-1.9865,-2.0144,-2.117,-2.2644,-2.472,-2.552,-2.6565,-2.837,-2.9116,-2.9292,-2.8831,-3.0188,-3.0907,-3.0446,-3.1273,-3.1232,-2.993,-2.9306,-2.8926,-2.879,-2.8777,-2.8722,-2.8587,-2.8587,-2.8587,-2.8587,-2.8587,-2.8587,-2.8587,-2.8587,-2.8587,-2.8587,-2.8587,-2.8587,-2.8587,-2.8587,-2.8587,-2.8587,-2.8587,-2.8587,-2.8587,-2.8587,-2.8587,-2.8587,-2.8587,-2.8587,-2.8587,-2.8587,-2.8587,-2.8587,-2.8587,-2.8261,-2.7895,-2.7895,-2.7121,-2.6253,-2.6131,-2.5738,-2.5358,-2.5222,-2.51,-2.5005,-2.5005,-2.5005,-2.5005,-2.5005,-2.4948,-2.4708,-2.435,-2.4593,-2.4708,-2.4234,-2.3839,-2.351,-2.328,-2.2416,-2.1584,-2.0978,-2.0757,-2.0589,-2.0233,-2.0409,-2.056,-2.066,-2.066,-2.0858,-2.1264,-2.1264,-2.1264,-2.1264,-2.0957,-2.0908,-2.1118,-2.0573,-2.0472,-2.066,-2.0858,-2.0908,-2.4751,-2.491,-2.5015,-2.5315,-2.4569,-2.3432,-2.2199,0.0,-1.9533,-1.8663,-1.8214,-1.7963,-1.8003,-1.8044,-1.8494,-1.9568,0.0,-2.1659,-2.4598,-2.552,-2.6565,-2.837,-2.9116,-2.9455,-2.9401,-3.0052,-3.0473,-3.0405,-3.0513,-3.073,-3.111,-3.0568,-2.9984,-2.9414,-2.9401,-2.9129,-2.86,-2.8587,-2.8587,-2.8587,-2.8587,-2.8587,-2.8587,-2.8587,-2.8587,-2.8587,-2.8587,-2.8587,-2.8587,-2.8587,-2.8587,-2.8587,-2.8587,-2.8587,-2.8587,-2.8587,-2.8587,-2.8587,-2.8587,-2.8587,-2.8587,-2.8587,-2.8587,-2.8587,-2.8587,-2.8546,-2.8519,-2.8519,-2.8044,-2.742,-2.6877,-2.6701,-2.6511,-2.5941,-2.5398,-2.5005,-2.5005,-2.5005,-2.5005,-2.5005,-2.465,-2.435,-2.4292,-2.435,-2.4234,-2.3754,-2.4008,-2.3843,-2.2865,-2.2349,-2.1856,-2.12,-2.0757,-2.0363,-2.022,-1.9926,-1.9862,-2.022,-2.0283,-2.0422,-2.0858,-2.0858,-2.0858,-2.0858,-2.0795,-2.066,-2.0334,-2.061,-2.056,-2.0283,-2.1019,-2.1166,-2.3737,-2.4404,-2.4984,-2.4913,-2.4017,-2.287,-2.189,-2.0366,-1.8985,-1.8274,-1.7989,-1.7882,-1.7882,-1.7882,-1.8045,-1.852,-1.9089,-2.0256,-2.2536,-2.3987,-2.5629,-2.78,-2.9224,-3.0038,-3.0038,-3.0907,-3.1477,-3.1477,-3.1477,-3.1585,-3.1816,-3.0934,-3.0296,-3.0052,-2.9672,-2.936,-2.9116,-2.8763,-2.8587,-2.8587,-2.8587,-2.8587,-2.8587,-2.8587,-2.8587,-2.8587,-2.8587,-2.8587,-2.8587,-2.8587,-2.8587,-2.8587,-2.8587,-2.8587,-2.8587,-2.8587,-2.8587,-2.8587,-2.8587,-2.8587,-2.8587,-2.8587,-2.8587,-2.8587,-2.8587,-2.8587,-2.8587,-2.8587,-2.8166,-2.7651,-2.742,-2.6809,-2.614,-2.5574,-2.5253,-2.4948,-2.465,-2.4821,-2.5005,-2.5005,-2.465,-2.4234,-2.393,-2.3872,-2.3695,-2.3245,-2.3305,-2.3289,-2.2896,-2.2454,-2.1945,-2.1362,-2.0791,-2.0283,-1.9953,-1.975,-1.9668,-1.9823,-1.9823,-2.0118,-2.0746,-2.056,-2.056,-2.0795,-2.0308,-2.0118,-2.0182,-1.985,-1.9759,-1.9875,-2.0169,-2.0207,-2.3073,-2.3963,-2.4689,-2.4553,-2.3644,-2.249,-2.139,-1.9917,-1.8643,-1.8004,-1.7882,-1.7882,-1.7882,-1.7882,-1.7882,0.0,-1.8575,-1.9727,-2.1681,-2.32,-2.5018,-2.742,-2.898,-2.9944,-3.012,-3.1382,-3.2182,-3.2182,-3.2182,-3.2182,-3.2182,-3.1382,-3.0853,-3.0676,-3.0079,-2.9659,-2.9482,-2.8885,-2.8587,-2.8587,-2.8587,-2.8587,-2.8587,-2.8587,-2.8587,-2.8587,-2.8587,-2.8587,-2.8587,-2.8587,-2.8587,-2.8587,-2.8587,-2.8587,-2.8587,-2.8587,-2.8587,-2.8587,-2.8587,-2.8587,-2.8587,-2.8587,-2.8587,-2.8587,-2.8587,-2.8587,-2.8587,-2.8587,-2.8166,-2.7683,-2.7719,-2.6808,-2.5901,-2.576,-2.523,-2.4802,-2.4789,-2.4642,-2.465,-2.4765,-2.4292,-2.3767,-2.3471,-2.3412,-2.3245,-2.2787,-2.2787,-2.2848,-2.2726,-2.2432,-2.2053,-2.168,-2.1092,-2.0465,-1.986,-1.9702,-1.958,-1.9408,-1.9408,-1.9759,-2.0409,-2.0169,-2.0169,-2.0459,-1.9914,-1.9656,-1.9823,-1.9408,-1.9251,-1.946,-1.9668,-1.972,-2.315,-2.3724,-2.4128,-2.4496,-2.3695,-2.238,-2.0873,-1.9619,-1.8643,-1.8004,-1.7882,-1.7882,-1.7882,-1.7882,-1.7882,-1.7882,-1.89,-2.0514,-2.2837,-2.3689,-2.5018,-2.742,-2.8234,-2.8831,-2.9428,-3.111,-3.2182,-3.2182,-3.2182,-3.2182,-3.2182,-3.2169,-3.1897,-3.13,-3.0703,-3.0106,-2.9482,-2.8885,-2.8587,-2.8587,-2.8587,-2.8587,-2.8587,-2.8587,-2.8587,-2.8587,-2.8587,-2.8587,-2.8587,-2.8587,-2.8587,-2.8587,-2.8587,-2.8587,-2.8587,-2.8587,-2.8587,-2.8587,-2.8587,-2.8587,-2.8587,-2.8587,-2.8587,-2.8587,-2.8587,-2.8587,-2.8587,-2.8587,-2.8166,-2.7714,-2.7762,-2.6918,-2.613,-2.6773,-2.5584,-2.4693,-2.5638,-2.4688,-2.3754,-2.4234,-2.3543,-2.2909,-2.2909,-2.2909,-2.2726,-2.2247,-2.2604,-2.2726,-2.2247,-2.2197,-2.2197,-2.2185,-2.1704,-2.0947,-1.9877,-1.9768,-1.9552,-1.9023,-1.8987,-1.9198,-1.9617,-1.9617,-1.9617,-1.9617,-1.9617,-1.9408,-1.8987,-1.9396,-1.9408,-1.904,-1.9811,-1.9978,-2.1361,-2.2108,-2.2768,-2.2473,-2.167,-2.0771,-2.0098,-1.9035,-1.8154,-1.7923,-1.7882,-1.7882,-1.7882,-1.7882,-1.8153,-1.8995,-1.9768,0.0,-2.2373,-2.4177,-2.5778,-2.6972,-2.9075,-3.0676,-3.1273,-3.1843,-3.2182,-3.2182,-3.2182,-3.2182,-3.2182,-3.2182,-3.1897,-3.1314,-3.0717,-3.0106,-2.9482,-2.9292,-2.8994,-2.86,-2.9442,-2.9604,-2.9211,-2.9645,-2.9604,-2.9197,-2.9197,-2.8967,-2.8587,-2.8587,-2.8587,-2.8587,-2.8587,-2.8587,-2.8587,-2.8587,-2.8587,-2.8587,-2.8587,-2.8587,-2.8587,-2.8587,-2.8587,-2.8587,-2.8587,-2.8587,-2.8587,-2.8587,-2.8451,-2.8228,-2.7868,-2.7221,-2.6502,-2.5957,-2.5704,-2.537,-2.4966,-2.4779,-2.4649,-2.4358,-2.3543,-2.2909,-2.2909,-2.2604,-2.2371,-2.2185,-2.2309,-2.2371,-2.2185,-2.2197,-2.2197,-2.2197,-2.2041,-2.1512,-2.0442,-1.9997,-1.9552,-1.9023,-1.8987,-1.9198,-1.9552,-1.9356,-1.9303,-1.9604,-1.9356,-1.9146,-1.8987,-1.9146,-1.9093,-1.8987,-1.9251,-1.9303,-2.024,-2.1052,-2.1648,-2.1179,-2.0502,-1.9839,-1.9432,-1.8587,-1.7882,-1.7882,-1.7882,-1.7882,-1.7882,-1.7882,-1.8208,-1.9184,-1.9836,-2.0785,-2.2427,-2.4327,-2.6117,-2.7651,-2.9686,-3.1192,-3.1789,-3.2046,-3.2087,-3.187,-3.2046,-3.2074,-3.1857,-3.206,-3.1897,-3.1314,-3.0934,-3.0446,-2.9835,-2.9835,-2.9523,-2.894,-2.993,-3.0201,-2.9835,-2.9984,-2.9849,-2.9469,-2.9238,-2.894,0.0,-2.8587,-2.8587,-2.8587,-2.8587,-2.8587,-2.8587,-2.8587,-2.8587,-2.8587,-2.8587,-2.8587,-2.8587,-2.8587,-2.8587,-2.8587,-2.8587,-2.8587,-2.8587,-2.8587,-2.8457,-2.8249,-2.7908,-2.738,-2.6843,-2.6381,-2.6012,-2.578,-2.5667,-2.4991,-2.4394,-2.4393,-2.3457,-2.2616,-2.2616,-2.2371,-2.2197,-2.2197,-2.2197,-2.2197,-2.2197,-2.2197,-2.2197,-2.2197,-2.2197,-2.1849,-2.0983,-2.0406,-1.9865,-1.9324,-1.9095,-1.9093,-1.9356,-1.9146,-1.9093,-1.9356,-1.9146,-1.8987,-1.8987,-1.8987,-1.8987,-1.8987,-1.8987,-1.8987,0.0,-2.0274,-2.0625,-2.0397,-1.9958,-1.9415,-1.8874,-1.8317,0.0,-1.7882,-1.7882,-1.7896,-1.7936,-1.7936,-1.8208,-1.8888,-1.9483,-2.069,-2.2931,-2.4354,-2.6212,-2.9129,-2.9984,-3.0581,-3.1178,-3.1721,-3.1829,-3.1273,-3.1748,-3.1829,-3.1327,-3.1816,-3.1884,-3.1368,-3.1355,-3.1042,-3.0418,-3.0446,-3.0161,-2.955,-3.0215,-3.0513,-3.0459,-2.9876,-2.9604,-2.9564,-2.8926,-2.8655,-2.8655,-2.8614,-2.8587,-2.8587,-2.8587,-2.8587,-2.8587,-2.8587,-2.8587,-2.8587,-2.8587,-2.8587,-2.8587,-2.8587,-2.8587,-2.8587,-2.8587,-2.8587,-2.8587,-2.8587,-2.8183,-2.7776,-2.7776,-2.7377,-2.704,-2.751,-2.6496,-2.5861,-2.7264,-2.5243,-2.3448,-2.4289,-2.3245,-2.2234,-2.2197,-2.2197,-2.2197,-2.2197,-2.2197,-2.2197,-2.2197,-2.2197,-2.2197,-2.2197,-2.2197,-2.1993,-2.15,-2.0983,-2.043,-1.9877,-1.9336,-1.9047,-1.9047,-1.9011,-1.8987,-1.8987,-1.8987,-1.8987,-1.8987,-1.8987,-1.8987,-1.8987,-1.8987,-1.9011,-1.8385,0.0,-1.859,-1.8548,-1.8411,-1.8275,0.0,-1.7977,-1.7882,0.0,0.0,-1.8058,-1.8507,-1.8602,-1.9049,-2.0555,-2.1301,-2.221,-2.3702,-2.5344,-2.7162,-2.9224,-2.9604,-2.9944,-3.0554,-3.0744,-3.0758,-3.0622,-3.0744,-3.0961,-3.1273,-3.1422,-3.1653,-3.1965,-3.1965,-3.1477,-3.0418,-3.0866,-3.0785,-3.0201,-3.126,-3.1531,-3.1083,-3.0934,-3.0866,-3.0812,-2.9726,-2.9265,-2.9224,-2.8777,-2.8587,-2.8587,-2.8587,-2.8587,-2.8587,-2.8587,-2.8587,-2.8587,-2.8587,-2.8587,-2.8587,-2.8587,-2.8587,-2.8587,-2.8587,-2.8587,-2.8587,-2.8587,-2.8183,-2.7709,-2.731,-2.6769,-2.6289,-2.6,-2.5983,-2.599,-2.5899,-2.5344,-2.4657,-2.4004,-2.3315,-2.2666,-2.2258,-2.2197,-2.2197,-2.2197,-2.2197,-2.2197,-2.2197,-2.2197,-2.2197,-2.2197,-2.2197,-2.2149,-2.2017,-2.1524,-2.0983,-2.0454,-1.9901,-1.9588,-1.9588,-1.9203,-1.8987,-1.8987,-1.8987,-1.8987,-1.8987,-1.8987,-1.8987,-1.8987,-1.8987,-1.9203,-1.7894,-1.7882,-1.7882,-1.7882,-1.7882,-1.7882,-1.7882,0.0,0.0,0.0,0.0,-1.8099,-1.8697,-1.8806,-1.9391,-2.1125,-2.1681,-2.2712,-2.5032,-2.6674,-2.8193,-2.9726,-2.9903,-3.0038,-3.0378,-3.0405,-3.0296,-2.9998,-3.0242,-3.0418,-3.0459,-3.0988,-3.1436,-3.1762,-3.2046,-3.1734,-3.0825,-3.1395,-3.1395,-3.0825,-3.1748,-3.2006,-3.168,-3.1137,-3.0893,-3.0825,-2.9604,-2.9075,-2.9048,-2.8722,-2.8587,-2.8587,-2.8587,-2.8587,-2.8587,-2.8587,-2.8587,-2.8587,-2.8587,-2.8587,-2.8587,-2.8587,-2.8587,-2.8587,-2.8587,-2.8457,-2.8249,-2.8249,-2.7855,-2.7443,-2.7377,-2.6973,-2.6564,-2.6483,-2.6294,-2.6173,-2.6068,-2.5132,-2.4312,-2.4486,-2.3497,-2.2606,-2.2558,-2.2354,-2.2197,-2.2197,-2.2197,-2.2197,-2.2197,-2.2197,-2.2197,-2.2197,-2.2197,-2.2197,-2.2197,-2.1933,-2.1536,-2.1007,-2.0466,-2.0153,-2.0141,-1.9636,-1.9239,-1.8999,-1.8987,-1.8987,-1.8987,-1.9239,-1.936,-1.936,-1.9624,-1.9877,-1.765,-1.7814,-1.7882,-1.7882,-1.7882,-1.7882,-1.7882,0.0,0.0,0.0,0.0,0.0,0.0,-1.9024,-1.9619,-2.141,-2.1925,-2.3241,-2.6497,-2.7827,-2.8872,-2.9998,-3.0133,-3.0133,-3.0133,-3.0133,-2.9903,-2.9387,-2.9835,-2.9944,-2.9496,-3.054,-3.1192,-3.13,-3.187,-3.1938,-3.1436,-3.1924,-3.1924,-3.1436,-3.1938,-3.2128,-3.2006,-3.0907,-3.0459,-3.0473,-2.9157,-2.8695,-2.8858,-2.8668,-2.8587,-2.8587,-2.8587,-2.8587,-2.8587,-2.8587,-2.8587,-2.8587,-2.8587,-2.8587,-2.8587,-2.8587,-2.8587,-2.8587,-2.8587,-2.8262,-2.7776,-2.7709,-2.731,-2.6973,-2.751,-2.7242,-2.6905,-2.7443,-2.6801,-2.6184,-2.6655,-2.4937,-2.37,-2.4982,-2.3725,-2.2546,-2.2919,-2.2546,-2.2197,-2.2197,-2.2197,-2.2197,-2.2197,-2.2197,-2.2197,-2.2197,-2.2197,-2.2197,-2.2197,-2.2197,-2.2005,-2.1548,-2.1031,-2.0646,-2.0454,-2.0105,-1.966,-1.9119,-1.9191,-1.9227,-1.9239,-1.9684,-1.9913,-1.9913,-2.0394,-2.0646,-1.7109,-1.7502,-1.7882,-1.7882,-1.7882,-1.7882,-1.7882,0.0,0.0,0.0,0.0,0.0,0.0,-1.9944,-2.0806,-2.2607,-2.4218,-2.5751,-2.7352,-2.7732,-2.8098,-2.879,-2.8872,-2.8872,-2.8872,-2.8872,-2.8831,-2.8736,-2.8817,-2.9048,-2.9455,-3.0161,-3.0771,-3.1273,-3.187,-3.2141,-3.2046,-3.2128,-3.2128,-3.2046,-3.2141,-3.1911,-3.1395,-3.073,-3.069,-3.107,-2.9333,-2.917,-3.0052,-2.9021,-2.8587,-2.8587,-2.8587,-2.8587,-2.8587,-2.8587,-2.8587,-2.8587,-2.8587,-2.8587,-2.8587,-2.8587,-2.8587,-2.8587,-2.8587,-2.8262,-2.7709,-2.7242,-2.6769,-2.6427,-2.6973,-2.6346,-2.5721,-2.6289,-2.5938,-2.5484,-2.5569,-2.5259,-2.4867,-2.4647,-2.4044,-2.3412,-2.3039,-2.2546,-2.2197,-2.2197,-2.2197,-2.2197,-2.2197,-2.2197,-2.2197,-2.2197,-2.2197,-2.2197,-2.2197,-2.2197,-2.2161,-2.2077,-2.1572,-2.0875,-1.9937,-2.0273,-2.0225,-1.9672,-2.0093,-2.0334,-2.037,-2.0454,-2.049,-2.049,-2.0574,-2.0851,-1.681,-1.719,-1.7475,-1.7801,-1.7882,-1.7977,-1.833,0.0,0.0,0.0,0.0,0.0,0.0,-2.0576,-2.1659,-2.3852,-2.5697,-2.7067,-2.7623,-2.7976,-2.8288,-2.856,-2.8587,-2.8587,-2.8587,-2.8587,-2.8587,-2.8587,-2.8587,-2.8709,-2.898,-2.9577,-3.0025,-3.0296,-3.0907,-3.1219,-3.1219,-3.1219,-3.1382,-3.1694,-3.1694,-3.1395,-3.0798,-3.054,-3.0364,-3.0269,-2.9428,-2.9211,-2.9387,-2.8817,-2.8587,-2.8587,-2.8587,-2.8587,-2.8587,-2.8587,-2.8587,-2.8587,-2.8587,-2.8587,-2.8587,-2.8587,-2.8587,-2.8587,-2.8587,-2.8052,-2.7377,-2.7443,-2.704,-2.6633,-2.6564,-2.6414,-2.6208,-2.622,-2.5568,-2.4957,-2.5262,-2.465,-2.423,-2.4831,-2.4073,-2.3364,-2.34,-2.2727,-2.2197,-2.2197,-2.2197,-2.2197,-2.2197,-2.2197,-2.2197,-2.2197,-2.2197,-2.2197,-2.2197,-2.2197,-2.2197,-2.2197,-2.1969,-2.1476,-2.0694,-2.0899,-2.0791,-2.0237,-2.0466,-2.0586,-2.0586,-2.0899,-2.1043,-2.1055,-2.1332,-2.1596,-1.6498,-1.6892,-1.7136,-1.7733,0.0,-1.8113,-1.8861,0.0,0.0,0.0,0.0,0.0,0.0,-2.1776,-2.3119,-2.5113,-2.6823,-2.7908,-2.7908,-2.8302,-2.8587,-2.8587,-2.8587,-2.8587,-2.8587,-2.8587,-2.8587,-2.8587,-2.8587,-2.8587,-2.8587,-2.9157,-2.9482,-2.9482,-3.0079,-3.0405,-3.0405,-3.0405,-3.0635,-3.1083,-3.1083,-3.0771,-3.0188,-3.0188,-2.993,-2.9469,-2.9333,-2.9089,-2.879,-2.8655,-2.8587,-2.8587,-2.8587,-2.8587,-2.8587,-2.8587,-2.8587,-2.8587,-2.8587,-2.8587,-2.8587,-2.8587,-2.8587,-2.8587,-2.8457,-2.7776,-2.7108,-2.751,-2.7242,-2.6769,-2.6427,-2.6633,-2.6701,-2.6289,-2.545,-2.4865,-2.5202,-2.4374,-2.3881,-2.5071,-2.4145,-2.3292,-2.3701,-2.2895,-2.2197,-2.2197,-2.2197,-2.2197,-2.2197,-2.2197,-2.2197,-2.2197,-2.2197,-2.2197,-2.2197,-2.2197,-2.2197,-2.2197,-2.2197,-2.1957,-2.1428,-2.1524,-2.1344,-2.0815,-2.0923,-2.0971,-2.1005,-2.138,-2.1584,-2.1596,-2.2005,-2.2197,-1.5996,-1.658,-1.7136,-1.7733,0.0,0.0,-1.9361,-1.9632,0.0,-2.107,0.0,0.0,0.0,-2.4042,-2.5819,-2.6565,-2.7732,-2.8532,-2.8532,-2.856,-2.8587,-2.8587,-2.8587,-2.8587,-2.8587,-2.8587,-2.8587,-2.8587,-2.8587,-2.8587,-2.8587,-2.9157,-2.9482,-2.9482,-3.0079,-3.0405,-3.0405,-3.0405,-3.0432,-3.0473,-3.0473,-3.0147,-2.9536,-2.9536,-2.9523,-2.9442,-2.8899,-2.894,-2.9374,-2.8817,-2.8587,-2.8587,-2.8587,-2.8587,-2.8587,-2.8587,-2.8587,-2.8587,-2.8587,-2.8587,-2.8587,-2.8587,-2.8587,-2.8522,-2.7987,-2.7443,-2.704,-2.704,-2.6701,-2.6358,-2.6837,-2.6633,-2.6233,-2.6233,-2.5742,-2.5286,-2.5288,-2.5216,-2.518,-2.5288,-2.4446,-2.3725,-2.3761,-2.2895,-2.2197,-2.2197,-2.2197,-2.2197,-2.2197,-2.2197,-2.2197,-2.2197,-2.2197,-2.2197,-2.2197,-2.2197,-2.2197,-2.2197,-2.2197,-2.1957,-2.1428,-2.1873,-2.1885,-2.1356,-2.1825,-2.2077,-2.2077,-2.2113,-2.2137,-2.2137,-2.2173,-2.2197,-1.5847,-1.6552,-1.7136,-1.7733,0.0,0.0,0.0,-2.0216,-2.0663,-2.2187,-2.2498,0.0,-2.3323,-2.4774,-2.609,-2.6714,-2.7813,-2.8587,-2.8587,-2.8587,-2.8587,-2.8587,-2.8587,-2.8587,-2.8587,-2.8587,-2.8587,-2.8587,-2.8587,-2.8587,-2.8587,-2.8804,-2.8926,-2.8926,-2.9157,-2.9279,-2.9279,-2.9279,-2.9279,-2.9279,-2.9659,-2.9509,-2.894,-2.9306,-2.9279,-2.894,-2.9089,-2.9062,-2.8912,-2.8682,-2.8587,-2.8587,-2.8587,-2.8587,-2.8587,-2.8587,-2.8587,-2.8587,-2.8587,-2.8587,-2.8587,-2.8587,-2.8587,-2.8587,-2.8392,-2.7908,-2.7577,-2.7908,-2.7377,-2.6701,-2.6564,-2.6358,-2.6082,-2.5734,-2.5199,-2.4903,-2.524,-2.5047,-2.4819,-2.4819,-2.4254,-2.3664,-2.334,-2.2678,-2.2197,-2.2197,-2.2197,-2.2197,-2.2197,-2.2197,-2.2197,-2.2197,-2.2197,-2.2197,-2.2197,-2.2197,-2.2197,-2.2197,-2.2197,-2.2101,-2.1909,-2.2089,-2.2101,-2.1897,-2.2089,-2.2197,-2.2197,-2.2197,-2.2197,-2.2197,-2.2197,-2.2197,-1.5833,-1.6552,-1.719,0.0,0.0,0.0,0.0,-2.0901,-2.1334,-2.339,-2.3744,-2.3974,-2.4571,-2.5507,-2.6389,-2.6999,-2.7949,-2.8587,-2.8587,-2.8587,-2.8587,-2.8587,-2.8587,-2.8587,-2.8587,-2.8587,-2.8587,-2.8587,-2.8587,-2.8587,-2.8587,-2.8587,-2.8587,-2.8587,-2.8587,-2.8587,-2.8587,-2.8522,-2.8509,-2.8522,-2.8915,-2.8915,-2.86,-2.9021,-2.898,-2.8614,-2.9021,-2.8967,-2.8587,-2.8587,-2.8587,-2.8587,-2.8587,-2.8587,-2.8587,-2.8587,-2.8587,-2.8587,-2.8587,-2.8587,-2.8587,-2.8587,-2.8587,-2.8587,-2.8392,-2.8118,-2.7855,-2.8249,-2.7577,-2.6701,-2.6496,-2.6302,-2.6094,-2.5664,-2.5175,-2.4936,-2.5438,-2.503,-2.4518,-2.4518,-2.3977,-2.3412,-2.3039,-2.2546,-2.2197,-2.2197,-2.2197,-2.2197,-2.2197,-2.2197,-2.2197,-2.2197,-2.2197,-2.2197,-2.2197,-2.2197,-2.2197,-2.2197,-2.2197,-2.2197,-2.2197,-2.2197,-2.2197,-2.2197,-2.2197,-2.2197,-2.2197,-2.2197,-2.2197,-2.2197,-2.2197,-2.2197,-1.5942,-1.6552,-1.7285,0.0,0.0,0.0,-2.1762,-2.1857,-2.2101,-2.4503,-2.5005,-2.5181,-2.5778,-2.6389,-2.7013,-2.7596,-2.8193,-2.8587,-2.8587,-2.8587,-2.8587,-2.8587,-2.8587,-2.8587,-2.8587,-2.8587,-2.8587,-2.8587,-2.8587,-2.8587,-2.8587,-2.8587,-2.8587,-2.8587,-2.8587,-2.8587,-2.8587,-2.843,-2.8287,-2.8287,-2.8287,-2.843,-2.8587,-2.8587,-2.8587,-2.8587,-2.8587,-2.8587,-2.8587,-2.8587,-2.8587,-2.8587,-2.8587,-2.8587,-2.8587,-2.8587,-2.8587,-2.8587,-2.8587,-2.8587,-2.8587,-2.8587,-2.8587,-2.8522,-2.7987,-2.7776,-2.7776,-2.7776,-2.704,-2.6302,-2.6837,-2.6633,-2.6164,-2.6164,-2.5734,-2.5453,-2.6082,-2.5318,-2.453,-2.4518,-2.3688,-2.2991,-2.2967,-2.2534,-2.2197,-2.2197,-2.2197,-2.2197,-2.2197,-2.2197,-2.2197,-2.2197,-2.2197,-2.2197,-2.2197,-2.2197,-2.2197,-2.2197,-2.2197,-2.2197,-2.2197,-2.2197,-2.2197,-2.2197,-2.2185,-2.2185,-2.2197,-2.2185,-2.2185,-2.2197,-2.2197,-2.2197,-1.5942,-1.6552,0.0,-1.8507,0.0,0.0,0.0,-2.2169,0.0,0.0,-2.5005,-2.5059,-2.5236,-2.5765,-2.6226,-2.6402,-2.7298,-2.7976,-2.7976,-2.8329,-2.8587,-2.8587,-2.8587,-2.8587,-2.8587,-2.8587,-2.8587,-2.8587,-2.8587,-2.8587,-2.8587,-2.8587,-2.8587,-2.8587,-2.8587,-2.8522,-2.8365,-2.8352,-2.8287,-2.8287,-2.8287,-2.8352,-2.8365,-2.8522,-2.8587,-2.8587,-2.8587,-2.8587,-2.8587,-2.8183,-2.7776,-2.751,-2.7908,-2.8052,-2.8052,-2.8457,-2.8587,-2.8587,-2.8587,-2.8587,-2.8587,-2.8587,-2.8587,-2.8587,-2.8392,-2.8392,-2.8392,-2.8392,-2.7577,-2.6769,-2.6973,-2.6277,-2.5594,-2.5594,-2.5453,-2.5382,-2.5523,-2.5332,-2.4855,-2.4133,-2.3749,-2.3292,-2.2558,-2.2294,-2.2197,-2.2197,-2.2197,-2.2197,-2.2197,-2.2197,-2.2197,-2.2197,-2.2197,-2.2197,-2.2197,-2.2197,-2.2197,-2.2197,-2.2197,-2.2197,-2.2197,-2.2197,-2.2197,-2.2197,-2.1663,-2.1663,-2.2197,-2.1663,-2.1663,-2.2197,-2.2197,-2.2197,-1.6295,-1.6905,0.0,-1.8845,-1.9673,-2.0636,-2.2305,0.0,0.0,0.0,-2.5005,-2.5073,-2.5317,-2.5643,-2.5968,-2.6212,-2.6877,-2.7352,-2.7352,-2.7868,-2.8234,-2.8234,-2.8451,-2.8587,-2.8587,-2.8587,-2.8587,-2.8587,-2.8587,-2.8587,-2.8587,-2.8587,-2.8587,-2.8509,-2.8509,-2.8379,-2.8249,-2.817,-2.817,-2.8249,-2.8249,-2.8235,-2.8287,-2.8509,-2.8587,-2.8587,-2.8587,-2.8457,-2.8249,-2.7908,-2.751,-2.704,-2.7377,-2.7643,-2.7855,-2.8183,-2.8392,-2.8587,-2.8587,-2.8587,-2.8587,-2.8587,-2.8587,-2.8587,-2.8587,-2.8587,-2.8587,-2.8587,-2.7855,-2.6973,-2.6973,-2.6139,-2.5382,-2.5594,-2.5441,-2.5322,-2.5314,-2.4969,-2.4446,-2.3616,-2.3292,-2.2943,-2.2306,-2.2197,-2.2197,-2.2197,-2.2197,-2.2197,-2.2197,-2.2197,-2.2197,-2.2197,-2.2197,-2.2197,-2.2197,-2.2197,-2.2197,-2.2197,-2.2197,-2.2061,-2.1788,-2.2061,-2.2061,-2.1788,-2.1336,-2.1325,-2.1788,-2.1325,-2.1463,-2.2197,-2.2197,-2.2197,-1.6769,0.0,0.0,-1.9374,-1.9822,0.0,-2.2674,-2.4055,-2.4881,-2.4991,-2.5005,-2.5168,-2.571,-2.5805,-2.5995,-2.6565,-2.6701,-2.6742,-2.6742,-2.7257,-2.7623,-2.7623,-2.8153,-2.8519,-2.8519,-2.856,-2.8587,-2.8522,-2.8587,-2.8587,-2.8522,-2.8522,-2.8444,-2.8287,-2.8287,-2.817,-2.8079,-2.7921,-2.7921,-2.8079,-2.8079,-2.8197,-2.8287,-2.8509,-2.8587,-2.8587,-2.8587,-2.8249,-2.7709,-2.7709,-2.7377,-2.6824,-2.6905,-2.7242,-2.7643,-2.7776,-2.8118,-2.8522,-2.8587,-2.8587,-2.8587,-2.8587,-2.8587,-2.8587,-2.8587,-2.8587,-2.8587,-2.8587,-2.7802,-2.6976,-2.7027,-2.6133,-2.539,-2.5926,-2.5627,-2.5308,-2.5321,-2.456,-2.3676,-2.3159,-2.263,-2.2246,-2.2197,-2.2197,-2.2197,-2.2197,-2.2197,-2.2197,-2.2197,-2.2197,-2.2197,-2.2197,-2.2197,-2.2197,-2.2197,-2.2197,-2.2197,-2.2197,-2.2123,-2.18,-2.1123,-2.1726,-2.1788,-2.0996,-2.0933,-2.0933,-2.0996,-2.0933,-2.1273,-2.1999,-2.2061,-2.2061,-1.6194,-1.6525,0.0,0.0,-2.0731,-2.2007,-2.2958,-2.3459,-2.3976,-2.4854,-2.5005,-2.5046,-2.5168,-2.5195,-2.5236,-2.5385,-2.5792,-2.609,-2.609,-2.6619,-2.7013,-2.7013,-2.7542,-2.7895,-2.7895,-2.8315,-2.8457,-2.7987,-2.8392,-2.8392,-2.7987,-2.7987,-2.8039,-2.8287,-2.8039,-2.7908,-2.7855,-2.8105,-2.8105,-2.7855,-2.8105,-2.83,-2.8287,-2.8509,-2.8587,-2.8587,-2.8587,-2.8052,-2.7175,-2.7175,-2.6552,-2.5721,-2.622,-2.6427,-2.6633,-2.751,-2.7855,-2.8052,-2.8457,-2.8587,-2.8587,-2.8587,-2.8587,-2.8587,-2.8587,-2.8587,-2.8587,-2.8587,-2.7524,-2.6488,-2.6925,-2.5854,-2.4718,-2.4796,-2.5081,-2.5168,-2.4776,-2.4502,-2.4206,-2.3701,-2.3171,-2.2678,-2.2258,-2.2197,-2.2197,-2.2197,-2.2197,-2.2197,-2.2197,-2.2197,-2.2197,-2.2197,-2.2197,-2.2197,-2.2197,-2.2197,-2.2197,-2.2197,-2.1663,-2.1262,-2.1135,-2.1262,-2.1008,-2.0355,-1.9759,-1.977,-2.0291,-1.9759,-1.9835,-2.056,-2.1071,-2.1071,-1.6339,0.0,0.0,-1.9195,0.0,-2.2336,-2.2454,-2.2777,-2.3105,-2.3519,-2.4136,-2.4708,-2.4948,-2.5005,-2.5005,-2.5005,-2.5263,-2.5466,-2.5466,-2.5995,-2.6375,-2.6375,-2.6918,-2.7393,-2.7678,-2.7976,-2.8147,-2.8157,-2.8457,-2.8444,-2.8039,-2.8039,-2.8039,-2.8039,-2.7987,-2.7855,-2.7656,-2.7908,-2.7973,-2.7776,-2.7973,-2.8157,-2.8287,-2.8509,-2.8587,-2.8587,-2.8327,-2.7776,-2.6973,-2.6701,-2.6082,-2.5312,-2.5664,-2.6082,-2.6633,-2.6905,-2.7377,-2.7855,-2.8118,-2.8197,-2.8249,-2.8522,-2.8587,-2.8587,-2.8587,-2.8587,-2.8587,-2.8587,-2.763,-2.6604,-2.6629,-2.5532,-2.4396,-2.3899,-2.4578,-2.4998,-2.402,-2.3977,-2.3929,-2.3159,-2.2799,-2.2522,-2.2246,-2.2197,-2.2197,-2.2197,-2.2197,-2.2197,-2.2197,-2.2197,-2.2197,-2.2197,-2.2197,-2.2197,-2.2197,-2.2197,-2.2197,-2.2197,-2.1526,-2.0933,-2.0613,-2.0279,-1.9955,-1.9573,-1.9177,-1.9177,-1.9573,-1.9177,-1.9375,-2.0096,-2.0484,-2.042,0.0,0.0,-1.753,-1.9279,-2.0806,0.0,-2.1586,-2.1891,-2.2137,-2.1921,-2.2916,-2.4072,-2.466,-2.473,-2.477,-2.4991,-2.5005,-2.5005,-2.5005,-2.5426,-2.5738,-2.5738,-2.6294,-2.685,-2.7339,-2.7488,-2.7737,-2.8126,-2.8231,-2.8206,-2.8026,-2.8026,-2.7973,-2.7855,-2.7934,-2.7815,-2.7523,-2.7643,-2.7709,-2.7789,-2.7855,-2.7973,-2.8222,-2.8379,-2.8457,-2.8457,-2.7987,-2.7443,-2.6837,-2.6358,-2.5873,-2.5312,-2.5382,-2.6,-2.6701,-2.6427,-2.6905,-2.7643,-2.7776,-2.7855,-2.7987,-2.8457,-2.8587,-2.8587,-2.8587,-2.8587,-2.8587,-2.8587,-2.7696,-2.6668,-2.6361,-2.5253,-2.4062,-2.3289,-2.41,-2.4624,-2.3289,-2.3328,-2.3376,-2.2498,-2.2258,-2.2197,-2.2197,-2.2197,-2.2197,-2.2197,-2.2197,-2.2197,-2.2197,-2.2197,-2.2197,-2.2197,-2.2197,-2.2197,-2.2197,-2.2197,-2.2123,-2.1999,-2.1336,-2.0613,-1.9966,-1.9243,-1.8844,-1.8844,-1.8844,-1.8844,-1.8844,-1.8844,-1.9177,-1.9781,-1.9901,-1.9901,0.0,0.0,-1.7797,0.0,-1.994,-2.0356,0.0,-2.081,-2.0806,-2.1181,-2.1789,-2.2604,-2.3503,-2.3708,-2.3992,-2.4867,-2.5005,-2.5005,-2.5005,-2.5073,-2.5127,-2.5127,-2.5643,-2.605,-2.6131,-2.6619,-2.6805,-2.6466,-2.6843,-2.7053,-2.6892,-2.6918,-2.7255,-2.8013,-2.7603,-2.7536,-2.7789,-2.7284,-2.7217,-2.7523,-2.7868,-2.8,-2.7842,-2.7908,-2.7921,-2.7908,-2.7842,-2.7242,-2.6289,-2.622,-2.5873,-2.5382,-2.5873,-2.5873,-2.5652,-2.6564,-2.6973,-2.7175,-2.7643,-2.8118,-2.8522,-2.8587,-2.8587,-2.8587,-2.8587,-2.8587,-2.8587,-2.8587,-2.7192,-2.5807,-2.6607,-2.4988,-2.3195,-2.3516,-2.3777,-2.3776,-2.3131,-2.3039,-2.3039,-2.2907,-2.251,-2.2197,-2.2197,-2.2197,-2.2197,-2.2197,-2.2197,-2.2197,-2.2197,-2.2197,-2.2197,-2.2197,-2.2197,-2.2197,-2.2197,-2.2197,-2.1925,-2.1262,-2.0613,-1.9901,-1.9177,-1.8462,-1.8144,-1.8144,-1.8269,-1.8395,-1.8395,-1.8395,-1.8462,-1.8529,-1.911,-1.911,-1.5251,-1.6348,-1.7505,0.0,-1.9245,-1.9607,-1.9682,-1.9825,-1.9964,-1.9911,-2.0151,-2.079,-2.238,-2.2919,-2.3276,-2.3708,-2.4024,-2.4234,-2.4234,-2.4234,-2.4234,-2.4234,-2.4691,-2.5042,-2.509,-2.5595,-2.5858,-2.5756,-2.6,-2.6348,-2.6672,-2.6419,-2.6631,-2.7379,-2.6583,-2.6297,-2.6539,-2.5967,-2.5927,-2.6277,-2.6756,-2.696,-2.6879,-2.7229,-2.7377,-2.731,-2.704,-2.6633,-2.6151,-2.5873,-2.5523,-2.5312,-2.5594,-2.5734,-2.5804,-2.6,-2.6483,-2.6973,-2.6905,-2.7242,-2.7776,-2.8052,-2.8118,-2.8183,-2.8522,-2.8587,-2.8522,-2.8249,-2.7275,-2.6282,-2.6087,-2.5201,-2.4124,-2.3435,-2.354,-2.3516,-2.2732,-2.2775,-2.2895,-2.2594,-2.2354,-2.2197,-2.2197,-2.2197,-2.2197,-2.2197,-2.2197,-2.2197,-2.2197,-2.2197,-2.2197,-2.2197,-2.2197,-2.2197,-2.2197,-2.2197,-2.1862,-2.1135,-2.0484,-1.977,-1.9044,-1.8327,-1.8076,-1.8144,-1.8269,-1.8269,-1.8144,-1.8279,-1.8269,-1.8337,-1.8596,-1.8596,0.0,0.0,-1.6866,-1.7995,-1.8598,-1.8907,0.0,-1.9006,-1.9184,-1.9016,-1.8987,-1.9441,-2.0932,-2.1759,-2.2304,-2.2557,-2.3058,-2.3431,-2.3431,-2.3487,-2.3577,-2.3577,-2.393,-2.4171,-2.4253,-2.458,-2.4814,-2.4975,-2.5062,-2.5405,-2.6078,-2.5688,-2.5701,-2.6297,-2.5409,-2.5048,-2.5336,-2.5068,-2.4948,-2.5087,-2.5697,-2.5975,-2.5975,-2.6471,-2.662,-2.6552,-2.6289,-2.6082,-2.5955,-2.5523,-2.5312,-2.5312,-2.5453,-2.5734,-2.5955,-2.5664,-2.6082,-2.6769,-2.6358,-2.6564,-2.7108,-2.7643,-2.7776,-2.7908,-2.8457,-2.8587,-2.8522,-2.8118,-2.7406,-2.6627,-2.5813,-2.5265,-2.4711,-2.3454,-2.3413,-2.3329,-2.243,-2.2498,-2.2666,-2.227,-2.2197,-2.2197,-2.2197,-2.2197,-2.2197,-2.2197,-2.2197,-2.2197,-2.2197,-2.2197,-2.2197,-2.2197,-2.2197,-2.2197,-2.2197,-2.2197,-2.18,-2.0869,-2.0355,-1.9704,-1.8777,-1.8269,-1.8076,-1.8202,-1.8269,-1.8269,-1.8144,-1.8269,-1.8337,-1.8337,-1.8337,-1.8405,0.0,-1.5702,0.0,-1.7797,-1.8013,-1.7918,-1.861,-1.8521,-1.8437,-1.8891,-1.8987,-1.9011,-1.9112,-1.9978,-2.0945,-2.1915,-2.2467,-2.284,-2.284,-2.3302,-2.3577,-2.3577,-2.3636,-2.3649,-2.3628,-2.3675,-2.3692,-2.3779,-2.3791,-2.3951,-2.4394,-2.4091,-2.4144,-2.4718,-2.4149,-2.4195,-2.4841,-2.5126,-2.4981,-2.448,-2.5169,-2.5533,-2.5627,-2.5627,-2.5569,-2.5441,-2.5943,-2.5873,-2.5312,-2.5312,-2.5312,-2.5382,-2.5943,-2.5804,-2.5382,-2.5943,-2.6164,-2.6233,-2.6233,-2.6564,-2.7108,-2.7643,-2.7776,-2.7908,-2.8457,-2.8587,-2.8587,-2.8587,-2.7458,-2.6246,-2.6057,-2.4962,-2.3862,-2.3675,-2.335,-2.2898,-2.2306,-2.2209,-2.2221,-2.2197,-2.2197,-2.2197,-2.2197,-2.2197,-2.2197,-2.2197,-2.2197,-2.2197,-2.2197,-2.2197,-2.2197,-2.2197,-2.2197,-2.2197,-2.2197,-2.2197,-2.16,-2.0237,-2.0107,-1.9507,-1.8144,-1.8008,-1.8008,-1.8008,-1.8202,-1.8337,-1.8482,-1.8337,-1.8347,-1.8482,-1.8482,-1.8617,0.0,0.0,0.0,-1.6306,-1.6941,-1.7289,-1.7384,-1.7545,-1.7845,-1.8374,-1.8482,-1.859,-1.8927,-1.9582,-2.0159,-2.052,-2.1309,-2.1901,-2.1901,-2.2369,-2.2714,-2.2714,-2.2957,-2.3005,-2.2714,-2.2944,-2.3044,-2.2762,-2.2826,-2.322,-2.3926,-2.3414,-2.3325,-2.4003,-2.2847,-2.2297,-2.2274,-2.299,-2.3266,-2.305,-2.4149,-2.4671,-2.4743,-2.5158,-2.537,-2.5312,-2.5523,-2.5523,-2.5312,-2.5312,-2.5312,-2.5312,-2.5523,-2.5523,-2.5312,-2.5523,-2.5873,-2.6151,-2.5734,-2.6013,-2.6564,-2.7108,-2.731,-2.7443,-2.8314,-2.8392,-2.7987,-2.7643,-2.6629,-2.5561,-2.5149,-2.4916,-2.4644,-2.4279,-2.3331,-2.2426,-2.2234,-2.2462,-2.2594,-2.2258,-2.2197,-2.2197,-2.2197,-2.2197,-2.2197,-2.2197,-2.2197,-2.2197,-2.2197,-2.2197,-2.1999,-2.1526,-2.1925,-2.1999,-2.1526,-2.1463,-2.1071,-2.0161,-1.9639,-1.8988,-1.8008,-1.8008,-1.8076,-1.8202,-1.8144,-1.8144,-1.8212,-1.8347,-1.8482,-1.8482,-1.8607,-1.8741,-1.373,0.0,0.0,0.0,-1.6203,-1.6697,-1.6638,-1.6895,-1.7291,-1.7832,-1.7941,-1.8097,-1.8626,-1.9011,-1.9312,-1.9492,-2.0273,-2.0863,-2.0863,-2.1476,-2.1921,-2.1921,-2.2384,-2.2555,-2.2247,-2.2494,-2.2555,-2.2185,-2.2258,-2.2639,-2.3206,-2.2552,-2.2273,-2.248,-2.1649,-2.1115,-2.0928,-2.1832,-2.2385,-2.2529,-2.3514,-2.4116,-2.4418,-2.4909,-2.5182,-2.5312,-2.5312,-2.5312,-2.5312,-2.5312,-2.5312,-2.5288,-2.5107,-2.5035,-2.5035,-2.5035,-2.5257,-2.5603,-2.5187,-2.5448,-2.5988,-2.635,-2.6684,-2.7175,-2.8052,-2.8183,-2.7947,-2.7209,-2.6355,-2.5457,-2.4487,-2.4394,-2.4418,-2.4054,-2.3194,-2.2402,-2.2234,-2.2474,-2.2618,-2.2258,-2.2197,-2.2197,-2.2197,-2.2197,-2.2197,-2.2197,-2.2197,-2.2197,-2.2197,-2.1987,-2.1651,-2.1135,-2.1336,-2.1273,-2.0805,-2.0741,-2.0484,-1.977,-1.9243,-1.8721,-1.8008,-1.8008,-1.8076,-1.8212,-1.8076,-1.8008,-1.8008,-1.8279,-1.8482,-1.8482,-1.8617,-1.8741,0.0,0.0,0.0,-1.5486,-1.5883,-1.6077,-1.6478,-1.6548,-1.675,-1.7279,-1.7388,-1.7556,-1.8085,-1.8181,-1.835,-1.8879,-1.942,-1.978,-1.978,-2.0706,-2.138,-2.138,-2.1837,-2.2149,-2.2149,-2.2161,-2.2173,-2.2173,-2.2185,-2.2197,-2.2197,-2.1549,-2.0839,-2.014,-2.0598,-2.0906,-2.0906,-2.1789,-2.2474,-2.2891,-2.3385,-2.3998,-2.4743,-2.4754,-2.4945,-2.5264,-2.5264,-2.5264,-2.5264,-2.53,-2.53,-2.524,-2.4723,-2.4506,-2.4494,-2.4494,-2.4494,-2.4494,-2.4494,-2.4831,-2.525,-2.5358,-2.6072,-2.7056,-2.7591,-2.8065,-2.8282,-2.7243,-2.6557,-2.5767,-2.4154,-2.3389,-2.2955,-2.2955,-2.2955,-2.2811,-2.2306,-2.2197,-2.2197,-2.2197,-2.2197,-2.2197,-2.2197,-2.2197,-2.2197,-2.2197,-2.2197,-2.2197,-2.2197,-2.1526,-2.106,-2.106,-2.0484,-2.0107,-2.0096,-2.0096,-1.977,-1.9044,-1.8977,-1.8654,-1.8008,-1.8008,-1.8008,-1.8008,-1.8008,-1.8008,-1.8008,-1.8202,-1.8337,-1.8482,-1.8482,-1.8617,-1.2708,0.0,0.0,0.0,0.0,0.0,-1.5501,-1.5732,-1.6164,-1.6691,-1.6799,-1.7003,-1.7532,-1.7628,-1.7808,-1.8338,-1.9191,-1.978,-1.978,-2.0382,-2.0839,-2.0839,-2.0947,-2.1031,-2.1055,-2.1392,-2.162,-2.162,-2.1981,-2.2123,-2.1851,-2.1158,-2.0582,-2.0074,-2.0205,-2.0468,-2.0653,-2.1296,-2.1823,-2.2217,-2.2982,-2.3432,-2.3638,-2.3934,-2.4138,-2.4194,-2.4194,-2.4194,-2.4254,-2.4999,-2.5083,-2.4723,-2.4578,-2.429,-2.3977,-2.3977,-2.3977,-2.3977,-2.3977,-2.4073,-2.4304,-2.4678,-2.5043,-2.5431,-2.6282,-2.6409,-2.6242,-2.6275,-2.5369,-2.4192,-2.338,-2.2775,-2.2527,-2.2837,-2.2651,-2.2378,-2.2221,-2.2197,-2.2197,-2.2197,-2.2197,-2.2197,-2.2197,-2.2197,-2.2197,-2.2197,-2.2197,-2.2197,-2.2197,-2.1526,-2.0933,-2.042,-2.0226,-1.9901,-1.9375,-1.9309,-1.9243,-1.9044,-1.8519,-1.8202,-1.8008,-1.8008,-1.8008,-1.8008,-1.8008,-1.8008,-1.8008,-1.8279,-1.8405,-1.8337,-1.8337,-1.8539,-1.2758,-1.3447,-1.4124,-1.4333,0.0,0.0,-1.5234,-1.5533,-1.5876,-1.6188,-1.6248,-1.6416,-1.6991,-1.7087,-1.7255,-1.7784,-1.8386,-1.8951,-1.9384,-1.9925,-2.0273,-2.0273,-2.0454,-2.0598,-2.061,-2.0887,-2.1079,-2.1079,-2.1236,-2.1244,-2.0938,-2.0511,-2.0295,-2.0324,-2.014,-2.027,-2.0571,-2.1151,-2.1608,-2.1916,-2.2756,-2.3282,-2.3482,-2.3694,-2.3773,-2.3773,-2.3773,-2.3773,-2.3821,-2.441,-2.4482,-2.4194,-2.3965,-2.3701,-2.3436,-2.3436,-2.3436,-2.3436,-2.3436,-2.358,-2.3791,-2.3888,-2.4221,-2.4718,-2.5547,-2.5673,-2.5634,-2.5387,-2.4229,-2.3009,-2.269,-2.2432,-2.2247,-2.2555,-2.2371,-2.2197,-2.2197,-2.2197,-2.2197,-2.2197,-2.2197,-2.2197,-2.2197,-2.2197,-2.2197,-2.2197,-2.2197,-2.2197,-2.2197,-2.1336,-2.0549,-2.0161,-1.9573,-1.9054,-1.8586,-1.8586,-1.8586,-1.8586,-1.8202,-1.8008,-1.8008,-1.8008,-1.8008,-1.8008,-1.8008,-1.8008,-1.8144,-1.8414,-1.8482,-1.8405,-1.8337,-1.8405,-1.3409,-1.3616,-1.3885,-1.4898,-1.5066,0.0,-1.5369,-1.5611,-1.5792,-1.5792,-1.5792,-1.5936,-1.6404,-1.6488,-1.6714,-1.7243,-1.7327,-1.7676,-1.8674,-1.9275,-1.9624,-1.9684,-2.0177,-2.0526,-2.0526,-2.0586,-2.0598,-2.0526,-2.0286,-2.0087,-1.9907,-1.9879,-2.0019,-2.0392,-2.0169,-2.0127,-2.0493,-2.1016,-2.145,-2.1801,-2.2671,-2.3238,-2.3592,-2.3592,-2.3592,-2.3592,-2.3592,-2.3592,-2.3592,-2.3592,-2.3628,-2.3628,-2.3159,-2.2943,-2.2895,-2.2895,-2.2895,-2.2895,-2.2895,-2.3195,-2.352,-2.3051,-2.3582,-2.4414,-2.4862,-2.5366,-2.5572,-2.4574,-2.3343,-2.2247,-2.2197,-2.2197,-2.2197,-2.2197,-2.2197,-2.2197,-2.2197,-2.2197,-2.2197,-2.2197,-2.2197,-2.2197,-2.2197,-2.2197,-2.2197,-2.2197,-2.2197,-2.2185,-2.2061,-2.0944,-2.0096,-1.9966,-1.8798,-1.8008,-1.8008,-1.8008,-1.8008,-1.8008,-1.8008,-1.8008,-1.8008,-1.8008,-1.8008,-1.8008,-1.8008,-1.8076,-1.8269,-1.8414,-1.8482,-1.8482,-1.8337,-1.8337,-1.4138,-1.4303,-1.4481,-1.4161,-1.4417,0.0,-1.4822,-1.5207,-1.5603,-1.5792,-1.5792,-1.5828,-1.5924,-1.5948,-1.6116,-1.6644,-1.6786,-1.7003,-1.7628,-1.8181,-1.8662,-1.9095,-1.9612,-1.9937,-1.9937,-2.0346,-2.043,-1.9973,-2.006,-2.01,-2.0076,-1.9803,-1.9599,-1.9387,-1.9326,-1.9516,-2.003,-2.0142,-2.0579,-2.136,-2.1783,-2.202,-2.2096,-2.236,-2.2498,-2.2498,-2.2498,-2.2498,-2.2498,-2.2498,-2.2751,-2.3123,-2.3015,-2.2727,-2.2354,-2.2354,-2.2354,-2.2354,-2.2354,-2.2414,-2.2486,-2.2378,-2.2476,-2.2748,-2.3232,-2.3464,-2.35,-2.3278,-2.2996,-2.2665,-2.2321,-2.2197,-2.2197,-2.2197,-2.2197,-2.2197,-2.2197,-2.2197,-2.2197,-2.2197,-2.2197,-2.2197,-2.2197,-2.2197,-2.2197,-2.2197,-2.2197,-2.1999,-2.1388,-2.0613,-1.9901,-1.9309,-1.8462,-1.8008,-1.8008,-1.8008,-1.8008,-1.8008,-1.8008,-1.8008,-1.8008,-1.8008,-1.8008,-1.8008,-1.8008,-1.8076,-1.8269,-1.8337,-1.8337,-1.8337,-1.8144,-1.8144,-1.4785,-1.4744,-1.4776,-1.4526,-1.4534,0.0,0.0,-1.5014,-1.5334,-1.5424,-1.5558,-1.5647,-1.5647,-1.5748,-1.5876,-1.6152,-1.6188,-1.6284,-1.6548,-1.7532,-1.8301,-1.8566,-1.9059,-1.9384,-1.9384,-1.9636,-1.9749,-1.9638,-1.9459,-1.9502,-1.9831,-1.9343,-1.9134,-1.9313,-1.9037,-1.9159,-1.9757,-2.0007,-2.0442,-2.1028,-2.167,-2.1925,-2.1987,-2.2123,-2.2197,-2.2197,-2.2197,-2.2197,-2.2197,-2.2197,-2.2354,-2.2582,-2.2582,-2.2426,-2.2197,-2.2197,-2.2197,-2.2197,-2.2197,-2.2197,-2.2197,-2.2197,-2.2197,-2.2309,-2.2726,-2.2909,-2.2909,-2.2909,-2.2726,-2.2494,-2.2247,-2.2197,-2.2197,-2.2197,-2.2197,-2.2197,-2.2197,-2.2197,-2.2197,-2.2197,-2.2197,-2.2197,-2.2197,-2.2197,-2.2197,-2.2197,-2.2197,-2.1925,-2.1198,-2.0484,-1.9835,-1.911,-1.8395,-1.8008,-1.8008,-1.8008,-1.8008,-1.8008,-1.8008,-1.8008,-1.8008,-1.8008,-1.8008,-1.8008,-1.8076,-1.8144,-1.8144,-1.8269,-1.8269,-1.8269,-1.8076,-1.8144,-1.5344,-1.509,-1.4928,-1.4959,-1.4789,-1.4651,0.0,0.0,0.0,-1.5108,-1.5289,-1.5424,-1.5424,-1.5558,-1.5659,-1.5659,-1.5659,-1.5659,-1.5659,-1.6932,-1.7879,-1.8037,-1.8602,-1.8987,-1.8987,-1.8903,-1.8964,-1.9294,-1.8833,-1.8854,-1.9587,-1.8931,-1.8783,-1.9459,-1.8862,-1.8803,-1.9295,-1.9753,-2.0197,-2.0554,-2.1425,-2.1872,-2.1968,-2.2041,-2.2101,-2.2197,-2.2197,-2.2197,-2.2197,-2.2197,-2.2197,-2.2197,-2.2197,-2.2197,-2.2197,-2.2197,-2.2197,-2.2197,-2.2197,-2.2197,-2.2197,-2.2197,-2.2197,-2.2247,-2.2665,-2.28,-2.28,-2.28,-2.2494,-2.2197,-2.2197,-2.2197,-2.2197,-2.2197,-2.2197,-2.2197,-2.2197,-2.2197,-2.2197,-2.2197,-2.2197,-2.2197,-2.2197,-2.2197,-2.2197,-2.2197,-2.2197,-2.1862,-2.0996,-2.042,-1.977,-1.8921,-1.8327,-1.8008,-1.8008,-1.8008,-1.8008,-1.8008,-1.8008,-1.8008,-1.8008,-1.8008,-1.8008,-1.8008,-1.8134,-1.8134,-1.8008,-1.8134,-1.8269,-1.8269,-1.8076,-1.8076,-1.5879,-1.5407,-1.4982,-1.4593,-1.4466,-1.4477,-1.4662,0.0,-1.48,-1.5062,0.0,-1.5153,-1.5153,0.0,0.0,-1.5198,-1.5198,-1.5198,-1.5198,-1.5963,-1.6777,-1.7399,-1.8386,-1.8987,-1.8987,-1.8566,-1.8506,-1.8994,-1.8538,-1.8694,-1.9694,-1.9251,-1.8944,-1.8954,-1.8429,-1.8137,-1.8192,-1.8505,-1.8857,-1.9306,-2.0029,-2.0594,-2.103,-2.1356,-2.1753,-2.2197,-2.2197,-2.2197,-2.2197,-2.2197,-2.2197,-2.2197,-2.2197,-2.2197,-2.2197,-2.2197,-2.2197,-2.2197,-2.2197,-2.2197,-2.2197,-2.2197,-2.2197,-2.2197,-2.2247,-2.2247,-2.2247,-2.2247,-2.2247,-2.2197,-2.2197,-2.2197,-2.2197,-2.2197,-2.2197,-2.2197,-2.2197,-2.2197,-2.2197,-2.2197,-2.2197,-2.2197,-2.2197,-2.2197,-2.2197,-2.2197,-2.2197,-2.1737,-2.0355,-2.0172,-1.9573,-1.8269,-1.8076,-1.8008,-1.8008,-1.8008,-1.8008,-1.8008,-1.8008,-1.8008,-1.8008,-1.8008,-1.8008,-1.8008,-1.8008,-1.8008,-1.8008,-1.8008,-1.8008,-1.8008,-1.8008,-1.8008,-1.5623,-1.5367,-1.5198,-1.4558,-1.4466,-1.4569,-1.4512,-1.4523,-1.4558,-1.4651,0.0,0.0,0.0,0.0,0.0,0.0,-1.5108,-1.5108,-1.5108,-1.552,-1.6078,-1.6693,-1.7518,-1.8193,-1.8506,-1.8049,-1.8217,-1.936,-1.8517,-1.8465,-1.9523,-1.8744,-1.823,-1.8171,-1.7812,-1.7701,-1.78,-1.8237,-1.8656,-1.8975,-1.9563,-2.0112,-2.0523,-2.0641,-2.1057,-2.174,-2.174,-2.1909,-2.2197,-2.2197,-2.2197,-2.2197,-2.2197,-2.2197,-2.2197,-2.2197,-2.2197,-2.2197,-2.2197,-2.2197,-2.2197,-2.2197,-2.2197,-2.2197,-2.2197,-2.2197,-2.2197,-2.2197,-2.2197,-2.2197,-2.2197,-2.2197,-2.2197,-2.2197,-2.2197,-2.2197,-2.2197,-2.2197,-2.2197,-2.2197,-2.2197,-2.2197,-2.2197,-2.2197,-2.2197,-2.2197,-2.2197,-2.1675,-2.0291,-2.0096,-1.9584,-1.8144,-1.8008,-1.8008,-1.8008,-1.8008,-1.8008,-1.8008,-1.8008,-1.8008,-1.8008,-1.8008,-1.8008,-1.8008,-1.8008,-1.8008,-1.8008,-1.8008,-1.8008,-1.8008,-1.8008,-1.8008,-1.5591,-1.5334,-1.5153,-1.4558,-1.4523,-1.4569,-1.4419,-1.4373,-1.4373,-1.4373,-1.4512,0.0,0.0,0.0,-1.4926,-1.4926,0.0,-1.4926,-1.4926,-1.5108,-1.5474,-1.6032,-1.6681,-1.7302,-1.784,-1.7361,-1.7647,-1.9132,-1.8142,-1.8061,-1.9312,-1.837,-1.7823,-1.7913,-1.7567,-1.749,-1.7711,-1.8171,-1.8464,-1.869,-1.9171,-1.9541,-1.9808,-1.9808,-2.0264,-2.1069,-2.1069,-2.1344,-2.1777,-2.1921,-2.1981,-2.1993,-2.2137,-2.2197,-2.2197,-2.2197,-2.2197,-2.2197,-2.2197,-2.2197,-2.2197,-2.2197,-2.2197,-2.2197,-2.2197,-2.2197,-2.2197,-2.2197,-2.2197,-2.2197,-2.2197,-2.2197,-2.2197,-2.2197,-2.2197,-2.2197,-2.2197,-2.2197,-2.2197,-2.2197,-2.2197,-2.2197,-2.2197,-2.2197,-2.2197,-2.2197,-2.2061,-2.1463,-2.0237,-1.9901,-1.9309,-1.8144,-1.8008,-1.8008,-1.8008,-1.8008,-1.8008,-1.8008,-1.8008,-1.8008,-1.8008,-1.8008,-1.8008,-1.8008,-1.8008,-1.8008,-1.8008,-1.8008,-1.8008,-1.8008,-1.8008,-1.8008,-1.6076,-1.5367,-1.4662,-1.4466,-1.4373,-1.4419,-1.4373,-1.4373,-1.4373,-1.4373,-1.443,-1.4419,-1.4419,-1.443,-1.4419,-1.4419,-1.4419,0.0,0.0,-1.4616,-1.4926,-1.5447,-1.5997,-1.6575,-1.7069,-1.6441,-1.646,-1.7761,-1.7097,-1.7479,-1.9289,-1.8591,-1.8202,-1.8463,-1.7958,-1.7711,-1.7711,-1.7998,-1.8118,-1.8107,-1.8499,-1.8768,-1.8919,-1.8919,-1.9436,-2.0229,-2.0229,-2.0415,-2.0706,-2.1211,-2.1428,-2.1488,-2.1993,-2.2197,-2.2197,-2.2197,-2.2197,-2.2197,-2.2197,-2.2197,-2.2197,-2.2197,-2.2197,-2.2197,-2.2197,-2.2197,-2.2197,-2.2197,-2.2197,-2.2197,-2.2197,-2.2197,-2.2197,-2.2197,-2.2197,-2.2197,-2.2197,-2.2197,-2.2197,-2.2197,-2.2197,-2.2197,-2.2197,-2.2197,-2.2197,-2.2197,-2.1588,-2.0869,-2.0161,-1.9507,-1.8787,-1.8076,-1.8008,-1.8008,-1.8008,-1.8008,-1.8008,-1.8008,-1.8008,-1.8008,-1.8008,-1.8008,-1.8008,-1.8008,-1.8008,-1.8008,-1.8008,-1.8008,-1.8008,-1.8008,-1.8008,-1.8008,-1.5856,-1.5513,-1.5108,-1.4697,-1.4743,-1.4789,-1.4466,-1.4373,-1.4373,-1.4373,-1.4373,-1.4373,-1.4373,-1.4373,-1.4373,-1.4373,-1.4373,-1.4373,0.0,-1.4743,-1.5108,-1.5468,-1.5485,-1.58,-1.6515,-1.5846,-1.5927,-1.7232,-1.6727,-1.6746,-1.7756,-1.7677,-1.7623,-1.7677,-1.7523,-1.7445,-1.7445,-1.7545,-1.7545,-1.7545,-1.7865,-1.8121,-1.8391,-1.8611,-1.9168,-1.9945,-1.9945,-2.0217,-2.0634,-2.0803,-2.1091,-2.1416,-2.1596,-2.1885,-2.2197,-2.2197,-2.2197,-2.2197,-2.2197,-2.2197,-2.2197,-2.2197,-2.2197,-2.2197,-2.2197,-2.2197,-2.2197,-2.2197,-2.2197,-2.2197,-2.2197,-2.2197,-2.2197,-2.2197,-2.2197,-2.2197,-2.2197,-2.2197,-2.2197,-2.2197,-2.2197,-2.2197,-2.2197,-2.2197,-2.2197,-2.2197,-2.1588,-2.0869,-2.0161,-1.9441,-1.8721,-1.8076,-1.8008,-1.8008,-1.8008,-1.8008,-1.8008,-1.8008,-1.8008,-1.8008,-1.8008,-1.8008,-1.8008,-1.8008,-1.8008,-1.8008,-1.8008,-1.8008,-1.8008,-1.8008,-1.8008,-1.8008,-1.5901,-1.5635,-1.5379,-1.4971,-1.4971,-1.5017,-1.4605,-1.4523,-1.4523,-1.4523,-1.4477,-1.4466,-1.4605,-1.4512,-1.4419,-1.4523,-1.4477,-1.4373,0.0,-1.4651,-1.4926,-1.5108,-1.5108,-1.5326,-1.5973,-1.5222,-1.5269,-1.6582,-1.6211,-1.6255,-1.7085,-1.7115,-1.7155,-1.7211,-1.7267,-1.7288,-1.7462,-1.7523,-1.7634,-1.7677,-1.779,-1.7865,-1.7986,-1.829,-1.8748,-1.9383,-1.9383,-1.9641,-2.0057,-2.0237,-2.0514,-2.0863,-2.1247,-2.1608,-2.1933,-2.2125,-2.2197,-2.2197,-2.2197,-2.2197,-2.2197,-2.2197,-2.2197,-2.2197,-2.2197,-2.2197,-2.2197,-2.2197,-2.2197,-2.2197,-2.2197,-2.2197,-2.2197,-2.2197,-2.2197,-2.2197,-2.2197,-2.2197,-2.2197,-2.2197,-2.2197,-2.2197,-2.2197,-2.2197,-2.2197,-2.2197,-2.14,-2.0613,-2.0161,-1.9253,-1.8462,-1.8076,-1.8008,-1.8008,-1.8008,-1.8008,-1.8008,-1.8008,-1.8008,-1.8008,-1.8008,-1.8008,-1.8008,-1.8008,-1.8008,-1.8008,-1.8008,-1.8008,-1.8008,-1.8008,-1.8008,-1.8008]}]]